GFSSW_925_spd_000.txt.gz
Wind_Speed
10 9 9 9 10 9 7 3 5 6 6 4 1 4 10 15 7 7 4 7 9 13 16 19 11 13 5 2 3 4 5 4 3 3 2 6 4 3 3 3 2 0 6 3 21
8 8 8 9 9 5 2 6 5 6 6 4 1 6 12 17 5 8 9 10 11 14 16 13 8 11 4 0 5 6 4 2 3 5 1 3 3 1 3 5 5 4 5 17 20
5 5 6 5 3 1 4 6 7 6 4 1 3 8 13 13 3 5 10 12 14 18 17 16 12 3 4 5 4 2 3 3 2 2 2 2 4 3 3 3 5 9 8 9 13
3 2 1 1 3 5 6 7 6 4 1 1 4 8 16 6 3 6 13 17 20 21 16 15 8 5 5 6 4 5 4 4 4 1 1 2 1 4 2 5 6 11 13 9 9
3 3 2 4 6 8 9 7 4 2 1 3 6 10 7 5 0 7 15 18 17 19 13 6 8 4 5 2 3 3 2 3 4 5 4 2 3 5 4 5 6 10 10 10 8
4 4 6 8 9 8 7 6 4 3 2 3 6 8 4 3 5 7 13 14 15 17 13 11 3 5 2 3 3 1 2 4 7 5 4 4 3 2 8 4 7 9 11 10 9
6 6 7 8 8 8 7 8 7 5 4 3 5 7 2 4 6 11 6 5 9 14 5 8 7 7 3 3 2 2 3 6 7 3 4 4 2 6 9 8 11 10 9 9 9
7 7 8 8 8 8 9 9 6 4 3 3 6 4 4 3 5 8 12 3 9 14 13 9 7 3 0 2 6 4 3 4 6 7 4 4 7 8 6 8 11 11 8 8 9
9 9 9 8 8 8 8 6 4 3 4 6 3 1 5 2 3 6 10 8 16 14 14 12 3 0 6 4 5 6 4 3 8 5 3 3 7 8 5 9 10 9 7 6 5
9 9 9 9 9 8 7 4 5 6 5 2 1 3 4 1 3 9 12 11 4 7 9 2 5 4 5 6 0 4 5 5 2 6 5 6 8 9 7 7 11 8 7 6 6
10 10 10 9 9 8 6 2 6 4 2 3 2 4 2 7 1 6 15 10 4 2 3 4 6 2 4 2 3 1 2 3 4 3 7 6 8 13 4 5 8 8 9 7 7
8 8 8 8 8 7 6 5 3 1 3 3 3 3 4 2 2 7 11 4 4 2 5 7 3 2 4 5 3 6 3 4 6 6 3 8 10 7 6 3 7 10 9 8 6
5 6 6 5 5 5 9 4 3 3 2 4 1 1 5 2 2 5 3 3 1 5 4 5 3 2 5 6 7 3 2 3 6 7 3 5 6 6 4 3 5 4 6 6 8
3 4 4 3 3 3 3 2 3 1 4 3 3 3 3 2 2 4 2 2 5 2 2 2 3 4 6 3 2 4 3 4 6 4 2 4 3 3 3 2 2 4 6 6 7
4 4 5 3 2 3 1 3 4 2 5 3 1 1 4 3 3 5 5 3 2 4 5 4 2 4 4 3 3 7 7 8 4 4 3 9 3 6 4 4 6 4 6 5 4
6 4 6 4 2 0 3 4 1 6 1 2 1 1 1 5 5 4 7 6 3 4 3 2 2 3 1 4 2 6 6 5 4 3 3 3 2 4 5 5 5 3 3 6 4
6 5 4 3 2 1 2 3 4 5 2 2 1 2 3 4 5 5 5 11 5 6 7 6 5 4 2 5 7 8 6 4 5 5 4 5 4 3 1 8 9 8 5 3 6
5 6 8 3 1 1 1 5 6 4 3 1 1 2 2 2 3 5 3 5 7 6 3 5 6 7 6 2 2 4 4 4 1 0 5 7 1 2 4 2 5 6 9 5 2
1 2 3 4 2 1 5 5 5 4 3 4 4 3 3 5 3 5 4 3 6 7 4 5 4 5 4 4 2 4 4 1 5 2 3 5 5 7 4 9 5 3 1 6 8
1 1 5 4 3 3 5 3 2 2 2 4 3 4 3 6 4 3 4 5 3 6 2 3 4 2 6 4 4 3 1 5 4 2 3 5 6 5 7 11 10 5 3 8 6
2 3 7 5 1 5 4 2 3 1 3 4 4 4 4 3 4 3 3 3 3 5 6 2 3 7 4 3 2 5 4 4 1 4 3 2 6 4 9 8 9 6 6 4 4
3 3 7 7 4 1 2 2 1 3 5 4 5 4 4 4 4 3 2 3 3 1 2 3 4 3 5 8 2 2 3 5 3 5 3 3 11 11 6 14 8 5 3 4 3
3 1 5 4 3 2 2 4 4 4 5 4 3 3 3 3 3 4 2 3 3 2 3 1 2 3 7 6 8 4 7 4 3 2 6 3 5 11 17 5 6 7 6 6 1
3 3 4 4 1 6 4 2 3 4 4 4 2 4 5 4 5 2 6 4 2 1 5 6 3 6 5 5 3 9 15 11 4 2 5 13 15 18 9 6 5 4 6 3 3
3 2 4 2 5 5 4 1 4 2 2 3 5 5 3 2 4 3 3 5 5 2 1 3 5 4 7 7 5 15 17 16 9 14 5 8 9 10 3 4 6 6 6 7 6
3 3 4 1 2 5 5 3 2 4 3 3 5 3 7 3 3 2 1 0 5 3 2 3 4 4 10 6 8 17 14 12 13 13 9 9 14 2 6 6 7 6 11 9 7
3 3 4 5 3 4 2 2 2 5 2 5 5 3 4 1 4 5 5 5 7 6 4 2 3 2 5 4 4 10 8 6 5 7 7 6 6 4 6 9 11 16 13 10 8

GFSSW_925_spd_003.txt.gz
Wind_Speed
11 12 11 11 10 10 7 6 7 7 1 4 2 4 9 13 4 4 2 5 7 13 16 17 7 10 2 3 3 4 5 3 2 2 4 4 2 5 2 5 2 3 5 4 20
11 11 11 11 9 7 6 6 7 2 3 1 1 5 12 12 3 4 9 13 14 16 16 11 8 9 3 3 3 5 5 6 3 3 3 3 2 2 4 2 3 2 4 14 20
9 10 10 8 6 7 5 6 2 3 1 1 1 7 13 6 2 5 14 18 18 13 10 10 3 1 5 5 5 2 4 3 3 4 5 3 1 2 6 2 5 8 6 8 11
4 3 4 4 5 4 7 5 4 2 2 2 4 10 10 2 4 5 15 17 16 17 16 9 6 5 5 5 4 5 1 5 3 4 3 3 1 1 2 6 9 12 13 8 8
2 2 4 5 6 8 8 6 3 3 2 4 7 12 6 5 1 12 17 14 13 15 17 5 9 3 4 3 3 3 2 2 1 2 1 2 4 3 5 5 4 6 7 10 9
2 5 6 8 9 9 7 5 4 3 6 6 9 10 2 5 8 14 14 13 16 20 17 11 3 1 3 2 3 1 2 5 3 3 2 2 3 1 5 2 8 9 11 9 9
5 7 8 9 10 9 8 7 6 7 7 8 8 9 3 3 7 12 14 6 15 16 6 8 2 6 1 3 3 3 5 6 3 3 4 5 5 6 3 4 9 10 8 9 11
9 9 10 10 10 9 8 8 9 9 9 6 8 5 2 3 7 9 13 9 13 14 10 8 9 3 3 2 7 5 5 6 6 1 3 4 9 9 2 5 10 10 9 9 9
9 10 10 11 10 9 9 9 10 8 4 5 3 3 3 4 4 11 13 10 16 8 13 5 4 3 6 4 5 7 1 3 5 5 3 4 8 10 3 6 10 9 8 6 5
8 9 11 11 9 8 8 8 8 4 4 3 3 4 6 4 5 10 14 7 3 7 7 8 6 4 5 6 1 3 3 4 4 5 7 4 9 10 6 6 9 3 5 2 4
8 11 11 10 9 7 5 2 5 5 7 1 3 4 3 6 3 8 12 7 4 7 4 5 6 2 3 1 3 1 2 2 4 3 7 4 8 12 8 5 6 6 8 7 7
8 9 10 10 10 9 10 7 3 1 3 4 2 2 1 2 5 7 12 5 5 3 3 6 2 1 4 5 3 2 2 4 5 5 3 7 9 8 8 4 4 8 7 8 6
6 8 8 7 8 13 13 7 3 2 4 5 2 1 3 3 2 5 4 1 4 4 4 5 1 4 4 5 6 4 2 3 5 7 1 6 6 5 5 4 5 4 5 4 7
5 6 6 4 5 4 4 3 3 1 5 6 6 4 4 1 5 3 5 2 6 2 2 2 3 3 6 3 2 4 2 2 6 4 2 5 3 5 3 2 3 6 4 5 6
4 5 5 3 7 3 1 2 3 2 5 4 3 2 2 4 2 9 8 3 3 3 5 1 3 6 6 4 2 7 7 4 2 3 2 8 4 6 5 2 1 2 3 4 4
5 5 7 5 4 2 1 3 1 6 1 2 2 3 4 6 5 4 8 7 3 5 6 4 2 3 2 3 4 8 4 6 4 2 2 1 2 6 4 4 1 3 1 1 5
6 6 5 3 1 1 1 3 5 6 2 2 1 3 3 5 6 5 6 11 5 5 6 7 4 5 4 5 6 8 6 3 5 5 4 1 2 6 4 4 1 3 5 5 4
6 7 7 3 1 1 2 5 6 3 2 3 3 3 4 5 5 6 3 5 7 5 3 4 5 5 6 1 3 3 3 4 3 1 5 6 2 4 1 4 3 5 4 3 6
4 5 4 5 2 1 5 5 6 6 2 2 3 4 5 5 3 4 4 3 3 5 4 4 4 4 1 3 1 4 4 2 6 2 3 4 5 5 4 6 4 3 2 7 7
2 3 6 5 3 3 5 3 1 1 1 2 3 1 2 6 4 4 4 3 3 6 1 3 4 2 6 3 5 6 2 4 4 2 3 5 5 5 4 5 5 3 6 4 4
3 4 6 6 2 5 4 4 2 4 2 3 2 3 3 2 3 2 0 2 2 3 6 2 2 6 3 4 1 5 4 5 3 3 3 2 6 5 5 7 5 6 2 4 3
4 3 8 4 4 1 2 2 2 5 7 5 4 3 3 3 4 3 2 2 1 1 2 2 3 3 3 7 4 4 6 4 3 5 3 3 6 3 5 4 6 3 6 7 6
3 1 4 3 3 2 1 4 3 4 5 3 3 4 4 2 3 2 2 4 5 3 1 2 2 3 7 6 3 3 3 3 3 3 6 3 5 3 13 5 4 5 6 6 7
3 3 4 4 0 6 4 2 3 3 4 5 4 5 4 5 6 2 5 5 7 3 6 5 2 5 5 5 4 7 5 3 5 3 4 10 16 15 6 4 7 8 8 8 9
3 1 3 1 4 4 4 2 3 2 3 7 5 4 3 3 3 2 2 4 4 3 3 3 2 3 5 7 5 13 12 16 7 10 6 8 8 10 6 5 7 7 7 10 13
4 4 3 2 2 3 4 1 4 2 3 2 6 1 4 4 4 2 1 1 5 3 3 2 3 3 5 6 8 14 14 10 13 10 8 9 10 6 3 5 6 8 10 11 10
2 3 4 5 2 4 2 1 2 4 6 4 8 4 2 4 4 4 5 5 5 5 4 2 4 2 5 4 8 7 7 4 4 5 5 5 7 1 6 8 8 10 9 10 10

GFSSW_925_spd_006.txt.gz
Wind_Speed
13 13 12 11 10 10 9 9 6 5 6 3 2 5 10 10 4 4 2 5 8 13 14 10 3 2 6 4 4 3 5 2 3 4 2 3 1 1 2 5 1 3 6 3 23
12 11 11 11 11 10 9 7 4 6 1 1 3 7 11 6 4 1 10 14 15 9 5 7 4 3 5 3 4 5 5 4 4 4 1 3 1 1 3 3 2 1 3 10 25
9 10 11 11 11 9 7 5 6 4 1 2 4 9 8 4 3 4 14 16 15 13 7 6 6 4 6 3 5 2 4 3 2 2 2 1 2 1 7 2 6 8 6 8 12
6 7 8 8 7 5 6 8 7 5 2 2 5 8 6 2 4 5 17 13 16 16 14 14 7 6 5 5 3 6 4 3 1 3 4 3 1 2 5 7 8 9 10 9 8
5 5 5 5 6 8 9 8 7 4 2 2 6 9 3 4 1 11 14 14 15 17 19 4 7 3 4 3 3 4 2 4 2 6 3 2 3 3 7 8 2 8 7 9 9
3 3 4 7 9 11 9 8 6 4 3 3 9 6 2 6 8 14 13 12 16 17 12 11 3 1 5 3 4 1 1 1 1 3 1 1 3 1 4 1 3 7 11 9 9
5 7 9 10 10 9 8 7 6 6 5 7 9 5 4 1 11 14 15 11 14 13 5 5 3 5 3 3 5 3 5 6 6 5 2 3 5 6 3 3 5 7 8 9 11
7 8 9 10 10 9 8 8 7 5 6 6 8 4 1 7 8 13 16 11 10 7 7 5 4 5 5 1 6 6 6 5 6 3 3 4 8 11 1 0 8 8 8 8 6
7 9 10 11 11 10 9 8 6 6 5 6 4 5 2 7 9 12 14 7 9 12 12 8 7 4 7 4 5 8 1 2 7 5 5 1 8 9 4 6 10 6 7 5 4
8 10 11 11 8 7 7 7 8 5 5 6 7 5 7 4 5 8 14 7 4 3 5 9 6 5 5 6 1 2 2 2 3 5 7 4 8 8 7 7 7 5 5 6 4
8 10 10 9 6 6 5 2 5 6 10 3 2 3 3 6 3 9 9 3 5 9 5 6 8 3 3 1 0 0 1 2 3 1 5 4 6 9 9 7 8 5 6 7 5
7 8 9 10 8 9 8 6 3 2 3 2 3 2 1 3 6 11 9 6 6 3 2 6 4 1 5 5 3 3 2 4 5 3 0 6 7 6 7 5 5 6 7 6 5
5 6 7 8 8 16 16 7 4 2 5 5 3 2 3 4 4 8 6 2 5 6 5 5 1 4 4 6 6 4 2 2 5 6 1 5 4 6 4 5 7 7 3 3 5
4 4 4 4 5 6 5 5 4 2 5 8 5 3 4 2 4 5 9 3 6 3 2 4 4 5 6 4 2 4 2 2 4 2 2 4 2 5 6 3 5 4 0 3 3
4 4 4 3 9 4 3 3 3 3 5 5 6 3 4 6 2 11 7 6 4 4 5 2 3 6 7 2 1 6 4 2 1 2 3 8 4 6 5 3 1 3 4 3 6
4 6 6 6 6 5 3 3 3 6 1 3 2 4 5 8 6 6 8 8 2 6 7 2 3 3 2 3 2 6 3 5 4 2 3 3 3 5 3 3 2 2 2 6 3
5 7 5 4 3 3 2 4 5 6 3 2 3 4 5 6 6 7 7 9 4 4 6 6 4 5 3 5 6 9 6 3 5 5 4 3 1 6 5 3 3 4 4 5 7
7 7 8 6 3 2 3 5 6 3 1 1 3 5 5 4 5 7 3 5 5 5 3 4 5 5 6 1 2 3 4 4 2 1 5 5 3 2 4 5 6 6 6 7 8
8 9 5 6 3 2 5 5 6 5 1 2 3 5 4 3 5 5 4 2 3 4 3 3 3 5 2 2 1 2 4 2 5 2 3 3 4 5 4 8 9 8 8 7 7
4 5 5 3 3 4 5 3 1 4 1 2 3 0 2 5 3 4 2 1 1 4 1 1 2 1 4 2 5 6 4 4 4 2 3 5 6 3 7 10 8 5 6 8 8
3 4 4 3 3 5 4 4 3 2 2 3 2 3 3 2 3 2 1 2 2 3 5 2 2 5 2 4 1 4 3 4 3 3 3 2 6 4 4 2 5 3 6 7 8
4 3 5 3 4 1 2 1 1 3 6 5 5 3 3 3 3 2 2 3 5 2 3 2 4 3 4 1 1 2 3 3 4 4 2 3 6 2 5 4 5 2 5 6 6
3 1 3 1 3 2 1 4 4 4 5 3 3 4 4 3 4 3 4 2 5 3 2 1 2 3 8 5 4 3 2 4 5 3 6 2 5 5 4 5 1 4 6 7 8
3 2 4 4 1 6 4 2 4 4 4 6 3 5 5 5 6 2 2 3 6 4 6 5 2 5 5 6 4 5 4 4 5 3 3 10 16 18 14 7 6 7 7 8 8
3 1 2 0 4 4 4 2 3 3 3 5 5 5 4 3 3 3 3 5 4 6 4 3 2 4 5 8 7 11 11 7 8 8 6 15 9 11 9 7 6 7 7 8 9
4 4 3 2 2 4 4 1 3 3 3 2 6 2 4 4 4 2 2 2 5 2 2 3 3 0 4 3 4 8 12 10 9 7 11 14 15 10 4 2 6 9 11 10 8
2 3 4 4 2 4 2 4 4 5 5 3 8 4 3 5 5 3 5 1 1 2 2 0 3 2 5 3 8 8 6 5 4 5 6 6 11 2 2 6 9 11 8 7 5

GFSSW_925_spd_009.txt.gz
Wind_Speed
14 14 14 13 12 11 11 9 6 3 2 1 2 6 10 7 1 1 2 7 8 10 7 3 5 3 4 4 4 2 4 3 4 6 3 1 3 1 1 5 1 2 4 2 20
13 13 13 13 12 11 10 7 6 4 2 3 2 6 9 3 3 2 10 12 9 4 3 5 3 4 3 3 2 4 3 4 3 2 2 2 1 2 3 2 3 2 2 7 21
11 12 12 11 11 10 8 7 7 6 4 2 3 7 4 0 1 4 17 12 11 6 7 7 8 3 5 2 4 2 3 4 2 4 3 2 2 1 6 1 4 7 8 14 18
9 9 10 10 10 9 8 9 8 6 5 4 4 5 3 2 3 6 12 9 12 11 5 5 5 4 5 4 2 6 3 2 4 3 3 3 2 1 3 3 3 4 13 17 16
7 7 7 8 9 9 11 10 9 7 6 1 3 3 3 4 1 9 5 11 15 16 14 4 5 4 4 3 3 5 2 2 2 5 2 4 3 2 6 8 2 6 13 16 16
5 6 7 8 10 11 11 10 9 7 5 2 4 4 2 7 5 9 7 11 13 13 10 8 2 2 5 2 4 3 4 3 4 1 1 1 0 1 1 2 4 7 13 14 15
3 6 9 10 10 10 10 10 9 7 5 3 3 5 6 2 4 7 10 6 8 8 3 3 4 3 3 3 4 3 5 3 8 4 3 2 2 4 3 2 3 7 9 11 15
6 7 9 9 10 11 11 11 10 7 4 4 6 5 3 6 4 12 13 5 5 5 5 4 10 7 5 2 6 5 5 3 5 6 3 2 5 5 4 5 5 4 7 9 11
8 9 10 11 12 12 11 10 8 6 5 3 3 3 1 4 5 9 11 3 4 8 10 8 8 5 5 4 3 8 3 3 4 4 5 4 6 4 11 9 10 5 5 8 8
8 9 10 10 10 9 9 7 7 4 4 5 3 4 6 3 5 7 4 6 7 2 4 9 6 5 4 4 2 1 1 1 3 5 6 3 7 11 11 3 3 3 2 6 6
8 8 8 6 5 6 6 3 3 5 10 4 2 5 2 6 4 11 7 2 5 8 5 6 8 4 2 1 3 3 2 2 3 2 5 3 6 9 10 9 8 6 6 7 6
7 8 8 7 10 9 6 6 3 3 6 1 1 1 1 2 5 16 10 5 6 4 2 6 4 0 5 4 2 2 3 2 3 1 1 5 4 4 9 6 5 7 8 7 6
6 6 7 8 11 12 12 8 4 3 5 5 2 2 2 5 4 8 6 2 5 5 5 5 0 2 2 4 4 1 2 2 3 6 2 4 2 6 4 5 5 6 4 4 6
4 4 4 5 5 5 4 4 2 3 5 8 5 4 4 2 5 6 8 3 6 3 3 5 3 3 3 3 1 2 2 4 3 1 1 4 3 4 5 3 2 2 3 3 4
5 4 4 3 10 3 3 3 3 2 5 4 6 3 4 7 2 13 7 7 4 2 3 0 2 4 5 2 1 2 1 1 1 3 2 5 0 2 3 2 2 3 3 4 6
5 6 6 6 7 6 2 2 1 6 1 2 3 4 6 8 6 7 7 8 2 5 6 2 2 3 2 2 1 4 2 3 2 2 2 1 2 2 3 5 4 2 5 8 8
6 7 5 4 4 3 2 3 5 5 3 1 3 4 5 5 5 7 6 9 4 3 5 5 3 4 3 4 3 8 3 1 2 3 1 1 1 2 7 7 5 6 7 8 8
8 8 8 7 4 3 2 5 6 3 2 1 3 3 4 3 4 6 3 5 6 5 3 3 1 4 5 2 2 4 2 2 1 2 4 2 0 3 5 6 6 9 7 8 8
10 9 5 5 3 3 5 5 6 5 2 4 3 4 2 3 4 4 4 2 4 4 3 2 2 3 4 2 2 1 5 1 5 1 2 3 1 5 5 11 10 8 8 8 8
5 4 4 3 3 4 5 3 1 4 2 2 3 1 2 3 3 3 2 2 2 5 0 1 2 2 3 1 6 4 4 1 3 2 3 4 4 3 2 4 2 4 6 6 6
3 4 3 1 3 5 4 3 3 2 1 3 3 3 3 3 3 2 1 3 3 2 5 1 1 2 1 4 1 2 2 5 3 1 2 3 5 5 5 3 1 3 0 3 6
4 3 4 4 4 1 3 5 2 2 5 4 4 4 3 3 4 3 3 1 5 1 2 1 2 1 2 1 1 1 3 3 2 2 1 0 7 3 6 3 2 5 3 4 6
3 1 3 2 3 1 1 3 3 2 4 3 3 3 3 3 4 3 3 1 5 3 1 2 2 2 2 2 2 1 2 4 4 2 7 3 6 2 6 5 6 4 6 8 11
3 2 4 4 1 6 5 2 4 4 4 5 4 3 4 4 5 3 2 2 3 2 6 4 2 4 4 3 2 4 4 5 4 4 4 12 18 21 18 15 8 7 6 11 12
3 1 1 1 3 4 3 3 4 3 3 4 4 3 5 3 2 2 1 2 2 1 3 2 3 3 4 8 5 10 12 11 12 12 7 13 15 19 15 11 7 6 11 13 13
4 4 3 2 2 4 4 1 4 3 2 2 6 2 3 4 4 4 3 2 3 1 2 2 2 1 3 5 4 8 14 12 13 13 13 18 20 17 11 3 5 11 12 12 9
3 3 4 4 2 4 2 4 5 5 5 2 9 5 4 5 4 1 2 3 2 3 2 0 3 1 3 5 8 7 4 4 3 5 4 6 8 5 4 4 13 15 11 5 4

GFSSW_925_spd_012.txt.gz
Wind_Speed
16 16 16 15 15 14 14 11 6 5 5 4 1 4 6 4 2 2 3 7 7 10 6 2 4 5 4 3 1 2 6 8 8 8 10 8 7 4 1 7 3 3 4 8 21
16 15 14 14 14 14 13 9 6 6 6 4 1 6 5 3 2 3 11 9 5 2 6 8 9 8 5 3 2 2 5 6 4 5 10 7 4 7 6 7 5 6 6 12 21
14 14 13 13 13 13 11 8 8 8 7 3 2 4 4 1 2 7 11 11 9 4 5 6 9 3 7 4 2 2 8 9 7 7 6 8 6 4 5 7 7 8 10 16 20
12 11 12 13 12 12 10 9 9 10 6 2 4 3 1 1 2 5 9 7 9 7 5 7 5 3 4 6 5 10 7 4 6 5 6 7 5 4 5 7 5 2 11 17 16
10 10 9 11 10 10 10 10 11 9 5 3 1 1 1 4 5 6 5 7 7 5 4 6 7 5 6 9 10 13 9 7 6 7 3 3 3 1 3 3 4 7 10 12 13
8 8 8 9 10 11 12 13 11 8 6 3 2 4 3 6 2 6 3 4 6 4 6 2 3 6 8 5 1 6 8 6 4 4 3 4 4 3 7 2 6 7 10 12 11
6 6 7 9 11 13 13 13 11 10 6 2 4 6 3 5 2 4 1 1 3 4 4 4 4 4 6 9 4 8 9 6 5 4 3 3 7 4 4 0 2 7 9 12 13
6 8 9 12 13 14 13 12 11 8 5 3 5 3 4 1 1 6 2 2 2 2 5 4 7 7 2 6 5 6 4 5 6 2 2 6 10 8 4 4 7 4 8 12 15
8 9 10 11 12 12 12 12 9 6 3 4 2 3 6 2 2 5 4 2 4 5 5 4 3 4 5 7 6 2 3 2 7 3 4 3 2 6 7 7 11 9 8 12 13
9 10 10 11 11 12 11 8 7 5 3 5 2 5 2 3 4 5 1 2 2 4 5 1 2 5 4 5 1 3 3 2 1 5 6 3 5 6 8 5 5 5 5 8 10
9 9 9 10 11 9 8 4 4 4 6 5 6 5 2 1 3 6 2 3 3 3 3 4 3 6 7 6 4 1 1 3 3 4 9 1 2 8 8 6 6 4 5 8 9
8 6 5 8 10 9 6 1 4 4 9 5 3 2 2 2 5 12 7 1 0 5 3 4 7 5 4 4 1 2 3 2 1 1 5 2 3 7 9 9 8 9 10 10 11
7 6 8 11 9 4 5 5 4 2 6 5 3 3 3 7 7 11 8 3 7 6 3 3 6 2 1 5 4 2 2 4 5 6 3 3 6 6 6 8 9 10 11 11 10
7 5 6 7 5 5 4 3 3 2 3 3 2 4 2 0 4 9 8 3 3 9 8 7 3 2 2 4 7 2 2 8 7 6 3 3 4 4 4 7 7 8 9 8 8
7 5 6 4 9 3 4 3 4 1 3 1 4 3 5 3 2 10 5 4 5 5 4 4 4 4 4 4 5 5 8 5 3 6 4 3 6 8 4 6 5 6 6 8 8
9 9 9 6 4 6 5 5 2 2 3 4 1 5 8 10 5 3 5 8 1 7 10 7 2 4 5 2 2 5 3 2 1 2 4 2 5 6 2 4 5 7 7 7 7
10 8 4 5 4 5 4 3 4 3 1 6 5 4 7 5 7 9 12 11 4 3 2 4 5 2 6 4 4 8 3 2 2 3 1 1 6 7 5 7 7 6 7 8 8
11 10 7 8 6 5 2 3 4 2 1 3 5 7 4 3 6 6 4 9 12 6 3 2 4 8 9 5 5 6 6 3 3 2 3 4 3 7 6 6 7 7 7 7 7
13 8 4 4 4 4 3 2 3 4 4 7 8 4 4 4 2 3 8 5 9 10 3 2 3 3 6 5 4 3 4 1 2 1 3 1 4 8 6 6 6 6 5 5 4
5 5 3 2 3 1 1 2 2 1 2 3 4 1 4 4 2 2 3 3 2 7 4 2 2 1 1 3 7 4 3 1 2 2 4 3 7 6 10 4 3 3 1 1 2
3 4 2 3 3 1 2 3 4 2 1 2 4 4 4 4 4 3 3 3 3 3 5 3 3 2 3 2 2 3 2 2 1 2 3 4 6 4 3 2 2 5 5 4 5
3 3 4 5 3 1 4 4 2 4 3 4 4 5 4 3 3 3 4 3 3 2 2 4 1 1 1 2 3 2 1 0 2 2 2 4 7 3 2 3 3 10 3 5 7
2 3 4 0 3 3 4 4 3 3 3 3 3 2 3 4 4 5 3 2 3 1 2 1 0 2 3 4 3 5 2 1 1 1 9 4 4 3 2 8 11 9 8 6 10
2 3 2 2 1 9 10 5 5 4 4 6 5 6 7 5 3 6 5 2 1 2 3 1 2 4 4 6 4 6 7 7 9 5 8 13 18 17 14 14 12 9 5 11 12
2 2 2 4 3 9 5 6 10 5 3 2 4 3 5 4 4 4 3 4 2 3 1 2 3 3 7 10 13 12 13 12 15 16 11 16 16 16 15 14 11 4 11 15 12
2 3 2 3 5 10 1 7 8 5 2 4 7 7 5 5 2 5 4 3 2 3 1 2 1 3 3 7 11 13 16 15 13 14 14 16 16 7 9 7 5 12 14 12 8
2 2 1 1 3 4 3 7 8 8 5 3 13 10 8 8 6 7 6 5 3 1 2 1 2 1 3 8 13 6 3 2 4 4 8 11 10 7 6 9 12 14 10 5 6

GFSSW_925_spd_015.txt.gz
Wind_Speed
18 18 16 17 17 16 15 13 10 7 6 7 7 5 6 9 5 6 6 8 5 9 9 6 8 8 9 4 6 8 5 7 7 7 8 7 8 2 3 7 1 3 10 20 20
17 17 16 15 16 15 14 11 9 7 8 7 6 5 6 8 6 7 7 7 6 7 7 10 9 12 6 5 5 9 4 12 7 5 9 8 4 7 7 8 9 8 7 20 19
16 16 15 15 14 14 12 11 9 9 9 8 6 5 5 5 10 12 6 7 5 5 6 7 7 10 6 8 5 4 7 8 4 1 7 8 5 4 6 8 9 12 11 17 17
15 14 14 14 14 13 12 10 9 10 9 7 5 3 5 2 2 7 7 9 6 3 6 8 11 8 10 7 4 4 7 5 6 4 1 5 7 4 4 10 7 8 13 15 15
13 13 13 12 12 12 10 10 11 11 9 7 2 4 2 8 5 4 7 7 1 5 10 7 4 2 2 5 4 10 8 9 7 5 1 4 4 2 5 9 5 6 11 12 13
11 12 11 10 10 10 10 12 12 11 9 4 1 5 6 5 1 3 5 4 3 5 3 5 2 3 5 8 1 7 9 8 7 6 4 6 5 8 6 6 10 9 11 13 12
10 10 10 9 10 11 12 14 12 10 7 2 5 3 10 6 1 3 4 5 5 7 0 2 0 6 8 6 4 8 8 9 8 8 5 7 10 11 8 5 10 12 11 10 10
7 8 9 10 11 13 14 13 12 8 3 3 5 4 1 2 3 3 5 3 3 3 5 4 2 1 5 7 7 11 9 11 9 8 5 12 13 11 6 6 10 10 12 10 11
7 8 9 11 12 13 13 11 8 4 2 3 2 7 4 3 6 3 3 3 1 2 3 3 5 4 5 12 10 9 11 3 9 4 2 8 3 15 2 7 11 11 11 10 10
7 8 9 11 11 11 11 8 5 4 3 2 8 7 3 1 1 2 2 3 5 6 6 6 7 10 11 11 9 7 4 9 2 7 6 9 10 5 5 7 11 12 10 8 10
7 8 9 10 12 12 10 5 6 5 10 6 11 3 8 4 5 3 2 6 9 9 10 6 11 4 10 7 8 5 4 5 5 5 6 5 7 3 4 4 5 6 5 5 7
7 7 8 9 10 9 5 6 7 6 10 6 6 7 3 2 8 7 4 9 9 10 5 9 5 5 2 2 3 4 5 1 1 2 6 5 5 5 6 6 6 7 8 10 11
7 6 9 10 11 7 6 3 2 3 6 6 3 4 3 2 4 5 7 4 6 5 5 9 9 2 4 1 7 3 7 6 10 8 10 9 9 10 8 10 10 11 12 12 13
6 5 9 11 6 8 4 1 2 3 4 6 5 4 3 1 4 6 4 4 2 3 6 5 4 0 2 2 8 8 4 8 10 8 6 11 3 9 12 10 10 11 10 9 9
5 4 7 4 5 5 4 1 1 3 3 4 5 2 3 2 3 6 4 4 4 7 5 5 3 0 1 5 6 6 8 8 8 9 9 10 8 10 10 11 10 8 8 8 7
7 7 9 4 2 4 2 1 2 4 3 6 4 7 8 7 6 5 4 5 4 4 7 8 2 4 6 4 4 7 8 6 6 4 5 3 7 9 7 9 5 8 6 5 6
9 6 2 1 3 4 3 4 4 4 3 7 8 5 8 8 8 6 5 5 0 5 5 7 4 4 6 9 6 8 7 4 3 4 1 4 7 9 8 7 7 6 6 6 6
10 7 4 3 3 3 4 6 6 3 6 4 9 10 5 7 4 4 5 8 9 6 3 4 7 5 6 5 6 5 7 3 4 3 5 8 5 8 10 9 6 6 5 5 5
12 6 4 1 2 2 7 6 3 7 8 11 12 9 7 5 3 5 9 7 7 9 4 3 4 5 5 5 6 3 4 3 1 1 3 5 6 9 10 9 6 4 1 3 3
9 8 5 2 2 5 5 2 2 2 2 13 7 4 6 8 6 4 2 3 3 7 5 3 2 1 3 4 4 7 3 3 1 3 4 3 10 7 10 8 6 4 2 5 6
9 6 3 4 3 6 5 3 5 5 1 3 3 4 6 5 3 3 3 5 2 4 5 6 3 5 3 2 8 2 1 3 5 3 4 5 5 8 5 4 4 6 8 8 8
5 5 2 4 6 4 5 6 1 8 3 3 2 4 6 4 3 3 5 5 3 4 4 6 2 2 4 4 3 3 4 4 2 3 3 4 8 7 5 2 5 9 10 5 8
3 4 2 4 4 3 5 6 3 7 3 4 3 1 4 5 4 6 5 4 4 4 6 5 1 3 5 6 4 4 1 2 1 2 10 7 6 3 3 9 8 10 8 6 9
3 3 4 5 3 9 9 9 7 2 4 4 6 6 8 6 4 7 7 4 2 5 4 2 1 3 5 8 6 8 9 9 10 7 11 12 17 14 11 11 13 13 9 10 11
2 2 1 6 5 8 9 10 10 5 3 6 4 4 7 4 6 5 7 6 3 3 1 3 2 4 9 11 11 12 13 14 15 15 14 16 17 16 12 11 11 7 10 12 13
2 3 2 3 6 9 5 10 12 5 8 7 7 8 6 6 2 6 5 3 2 4 1 2 1 3 4 7 11 15 17 18 16 11 13 14 13 9 9 8 9 14 15 13 10
2 1 3 2 8 8 7 9 9 9 2 3 10 8 9 9 10 10 8 5 4 2 3 1 0 2 4 10 13 6 3 3 7 8 8 10 12 7 10 13 13 11 9 8 5

GFSSW_925_spd_018.txt.gz
Wind_Speed
19 19 19 20 17 16 15 14 11 9 9 11 10 9 11 13 10 6 10 2 5 5 8 9 10 12 14 14 13 18 11 6 7 9 11 7 5 3 7 8 5 6 8 23 22
19 19 18 18 17 15 14 13 11 9 11 10 10 9 11 13 10 14 6 3 5 9 7 10 11 12 10 10 7 9 8 11 11 10 11 8 5 8 5 9 8 9 20 24 20
18 17 17 17 17 15 14 13 11 10 11 10 8 9 11 7 7 6 3 4 3 7 11 13 7 12 16 6 9 6 9 9 8 8 6 7 11 5 6 7 12 13 14 16 18
18 16 17 16 16 15 14 12 10 10 11 9 7 10 9 1 1 6 4 5 3 7 13 13 11 16 8 10 3 2 5 8 12 3 2 6 10 3 2 10 8 15 14 17 13
14 15 15 15 14 13 12 10 10 11 10 8 7 9 2 7 3 6 6 5 3 6 13 12 14 7 5 5 5 7 5 10 8 6 3 6 6 4 1 8 3 12 12 14 12
13 13 13 12 13 12 10 10 11 11 9 7 7 6 3 10 3 0 4 7 8 10 8 6 4 5 3 7 3 9 8 9 8 7 4 5 7 6 8 13 8 7 12 11 13
12 12 12 11 12 11 11 12 12 11 7 4 6 2 7 6 1 2 2 6 5 10 9 6 9 7 3 5 2 6 7 6 6 7 7 6 7 11 10 8 11 10 7 12 12
9 10 11 11 11 12 13 13 11 8 5 6 5 0 6 1 8 4 4 5 2 4 4 1 5 10 5 7 5 9 8 9 11 10 6 8 10 14 11 10 9 13 11 9 11
6 8 8 10 12 12 11 10 8 5 5 4 3 6 7 4 7 1 4 8 3 2 1 1 6 5 2 7 8 8 9 8 9 9 2 11 12 14 12 7 8 7 9 9 7
4 5 7 10 11 11 10 8 6 5 4 4 13 9 6 2 4 1 3 4 4 3 4 5 6 7 10 9 2 13 10 4 5 9 6 9 10 9 7 3 8 10 10 11 9
5 7 8 9 10 12 13 5 5 4 12 7 12 4 5 5 5 6 4 6 6 7 10 8 9 4 13 9 7 10 7 7 12 7 3 9 10 3 9 6 3 4 3 6 18
5 6 7 8 10 12 7 7 5 4 7 2 4 5 3 4 6 6 7 7 6 11 4 4 2 7 5 8 6 6 6 6 5 6 3 10 9 10 6 6 5 6 6 15 15
5 4 8 9 8 9 11 6 4 8 6 5 3 6 1 7 4 4 4 7 8 11 6 10 10 5 5 2 7 5 5 9 8 11 10 12 11 12 9 4 9 11 11 14 12
4 5 9 12 6 10 10 1 4 6 5 7 7 4 4 3 4 2 4 5 2 3 2 8 3 3 1 2 7 7 6 6 9 9 8 12 7 13 13 10 11 12 11 10 11
3 4 7 8 11 8 3 2 4 3 4 5 6 3 5 3 9 4 2 5 5 2 4 6 3 1 2 7 6 5 5 7 9 10 10 12 7 14 16 13 12 11 11 9 10
3 6 8 3 2 3 2 3 3 4 4 6 6 8 8 4 1 5 4 3 4 3 4 8 3 7 7 4 3 7 9 11 8 9 3 12 1 4 3 13 13 12 10 8 8
7 7 2 4 3 2 2 2 4 3 6 7 9 8 10 6 5 7 6 4 5 5 6 6 6 5 5 10 6 6 9 4 2 3 1 4 3 8 9 8 11 11 10 9 6
7 4 2 2 1 2 2 6 6 4 5 8 11 9 7 8 4 2 10 8 8 9 4 8 6 4 5 6 7 4 6 2 4 4 4 4 3 9 12 9 10 11 9 8 7
9 3 3 3 0 2 5 6 2 4 8 7 11 8 4 4 2 3 11 8 6 9 7 3 7 6 6 6 7 5 5 3 1 2 2 5 12 13 11 9 8 8 4 5 3
7 6 7 4 2 3 4 7 1 5 2 10 9 4 8 8 8 7 4 2 4 8 5 4 3 3 3 3 3 4 1 2 2 2 3 8 7 6 7 6 6 5 4 5 4
3 5 4 6 2 5 5 4 1 2 6 5 4 4 2 6 3 4 5 6 5 5 6 7 3 5 5 6 7 1 2 2 3 0 2 3 1 8 6 5 3 5 7 7 7
5 5 6 9 5 6 8 2 1 7 3 2 4 3 4 4 2 4 9 8 4 4 4 4 2 1 8 5 3 3 4 3 1 3 1 1 7 8 4 6 10 10 11 7 9
4 4 4 5 5 4 4 5 4 7 7 5 2 1 3 5 3 6 8 4 4 6 4 4 1 2 7 5 4 2 3 2 3 2 4 4 5 4 7 14 11 8 9 11 8
4 3 4 5 7 11 8 7 5 3 4 1 5 4 5 5 3 6 9 4 5 7 3 3 1 1 2 5 6 7 9 10 10 4 6 8 14 15 10 9 3 7 9 9 8
4 5 7 6 7 6 10 9 10 6 5 6 5 6 6 3 6 5 11 8 5 3 1 3 0 4 7 8 7 10 12 13 13 12 9 11 14 11 10 8 11 13 12 11 12
4 1 3 3 11 9 5 6 11 7 8 8 4 7 8 6 3 7 6 5 3 4 2 3 1 4 3 3 10 13 15 12 12 11 10 11 13 8 12 13 12 12 12 12 11
2 3 2 1 4 6 6 9 9 9 2 4 6 7 10 12 12 11 10 8 6 4 4 2 1 2 2 9 9 2 2 7 9 11 9 6 8 12 8 10 12 10 10 9 9

GFSSW_925_spd_021.txt.gz
Wind_Speed
17 18 17 17 16 16 15 15 13 11 12 12 10 10 13 15 14 7 6 9 13 11 10 9 9 13 13 4 8 4 2 9 16 8 5 3 5 5 6 8 9 5 15 19 27
18 18 17 16 16 15 14 13 12 11 12 11 10 11 12 14 11 10 15 13 11 12 11 9 7 13 3 5 4 6 4 4 1 10 8 3 8 5 7 8 11 12 20 27 27
18 17 16 15 15 15 13 13 12 11 11 10 9 11 10 9 4 8 10 11 8 12 16 14 19 5 7 4 5 1 5 4 7 6 11 8 6 3 9 6 16 18 13 12 23
17 17 15 14 14 13 13 13 12 11 11 9 10 10 9 1 3 6 6 4 6 9 13 7 6 5 2 5 4 5 8 9 5 8 7 10 7 3 5 9 13 20 20 15 9
14 13 13 12 12 12 13 11 11 11 10 9 9 8 1 2 8 6 3 6 6 11 13 6 9 6 8 6 3 9 6 7 6 8 6 10 5 5 7 9 13 19 18 15 13
12 12 12 11 11 11 11 11 11 11 9 7 7 4 1 4 6 2 3 6 13 13 10 14 6 8 1 6 4 6 9 7 4 4 4 3 3 2 5 9 10 17 15 14 15
11 11 10 10 11 10 11 11 10 9 6 6 5 1 3 11 11 3 5 5 8 9 5 12 10 8 5 6 1 9 6 6 5 7 4 1 2 7 8 10 11 11 14 13 15
8 8 9 9 10 10 10 9 7 6 5 6 2 2 5 11 8 3 9 4 4 8 12 12 13 7 3 3 3 3 4 5 6 9 6 8 7 7 11 10 10 11 9 10 11
6 6 7 8 9 8 7 7 6 5 6 4 1 2 6 6 4 1 4 9 2 3 4 7 4 2 4 3 2 2 5 6 6 11 6 4 7 9 9 9 8 7 9 8 8
3 4 6 8 7 9 10 7 4 4 3 2 7 3 8 4 5 2 2 6 3 2 1 2 1 1 5 4 3 4 5 6 7 4 3 2 3 1 4 7 6 5 8 8 18
2 5 6 8 10 11 9 2 2 1 5 8 8 5 6 7 6 9 9 5 5 3 4 6 5 4 4 3 4 5 4 9 5 6 2 3 4 5 5 3 4 10 19 16 17
4 6 7 8 9 9 8 3 3 1 4 18 12 8 3 6 5 5 7 1 2 6 6 3 4 4 1 2 3 5 7 6 4 4 3 3 5 4 7 4 12 17 15 14 14
4 6 8 9 8 9 10 11 13 10 4 3 2 4 1 4 2 4 2 5 7 6 5 6 3 2 4 7 9 9 6 5 3 6 3 3 2 6 6 12 18 14 14 13 15
3 6 10 10 5 5 6 9 5 7 4 3 2 2 3 4 4 4 4 3 3 3 11 7 3 4 5 8 7 5 6 5 6 5 2 4 1 2 8 12 15 14 11 11 13
5 6 9 12 8 1 3 3 6 2 4 7 4 5 3 1 8 2 2 5 4 4 7 2 5 7 9 4 4 2 2 3 3 4 3 7 3 3 8 11 12 11 13 11 10
4 8 9 2 6 5 8 5 1 5 2 3 5 5 5 3 2 5 2 2 3 7 9 5 5 4 4 4 2 5 4 6 4 2 2 7 4 2 5 11 7 8 9 10 10
6 9 5 2 1 8 7 2 4 4 6 5 4 7 7 2 5 6 5 3 3 3 2 3 4 3 2 4 1 3 6 4 4 4 3 4 6 2 6 10 16 13 10 9 9
7 6 2 1 3 5 4 5 1 5 4 5 6 4 7 3 4 3 6 4 8 6 2 5 2 5 6 5 2 4 4 4 1 1 4 3 3 1 10 14 14 12 10 8 8
8 3 2 1 1 3 5 2 4 4 5 6 4 5 4 3 2 4 8 3 5 7 4 4 3 4 6 3 3 5 5 1 5 2 3 1 3 5 8 8 9 7 7 8 7
6 4 4 2 1 3 4 4 1 5 5 5 5 5 7 8 4 4 4 4 3 5 2 5 4 2 3 1 3 5 2 5 4 2 2 3 4 3 5 4 3 3 6 7 8
1 2 5 7 3 4 2 5 3 6 8 5 3 2 2 7 6 5 4 5 7 2 7 4 4 3 2 4 4 4 2 4 2 4 4 1 3 3 5 4 3 6 7 9 9
2 1 7 9 3 3 3 3 1 3 3 2 3 5 3 5 5 5 4 4 8 6 3 3 4 3 3 2 2 0 3 4 4 3 1 4 5 3 9 11 8 8 9 6 7
2 3 3 2 3 2 5 3 1 5 4 1 5 6 5 4 5 9 5 5 7 5 2 3 2 3 4 4 4 1 4 4 5 3 5 5 5 2 5 8 4 8 8 6 7
1 2 2 1 2 4 4 3 2 5 3 4 5 3 3 4 4 4 4 2 4 3 3 2 2 5 5 3 1 2 5 4 6 3 3 6 7 9 5 4 8 7 7 6 7
1 4 7 3 4 4 5 8 6 2 2 2 1 3 4 3 4 5 5 4 2 1 2 3 3 4 4 5 4 3 5 7 5 5 4 7 4 8 7 8 7 6 6 9 9
1 2 2 4 5 4 5 6 8 8 6 4 3 6 7 4 2 6 8 5 4 5 4 4 1 2 1 6 7 4 7 8 8 2 3 5 4 7 6 7 8 5 7 8 7
5 6 4 5 3 4 3 0 1 7 3 4 4 11 14 6 9 6 8 5 6 5 3 3 4 3 2 4 5 4 4 5 4 3 3 3 1 7 10 9 7 7 6 5 5

GFSSW_925_spd_027.txt.gz
Wind_Speed
18 19 18 18 16 16 15 14 14 16 13 14 13 12 11 13 14 10 8 11 7 13 6 4 6 2 2 1 1 2 4 2 3 14 10 8 6 2 2 8 1 1 6 18 32
20 19 18 17 17 15 15 14 13 13 12 12 12 9 9 13 14 12 23 16 12 7 11 9 4 6 1 1 2 3 4 8 7 7 9 5 9 9 5 2 5 7 13 29 28
21 20 18 18 17 15 14 13 13 12 11 11 8 7 8 9 4 8 5 14 18 10 11 7 3 3 3 4 4 5 3 2 3 5 10 9 5 3 12 2 7 15 16 19 24
23 21 18 17 16 15 13 13 13 11 11 9 4 7 7 1 4 3 5 3 14 14 12 5 2 3 2 4 4 3 3 5 3 6 7 8 8 7 1 9 12 21 22 19 14
22 19 16 14 13 12 11 11 12 11 10 4 4 6 1 2 8 6 6 4 11 16 14 6 6 5 3 4 2 5 5 3 6 8 5 6 5 7 4 8 10 15 19 18 14
19 16 14 12 12 11 11 11 12 10 6 3 5 3 1 3 5 3 15 9 11 15 9 10 7 7 4 6 4 6 3 4 4 5 2 6 3 2 4 8 12 18 16 14 15
17 15 14 12 11 10 10 10 10 7 5 3 3 1 2 12 3 16 17 12 16 17 6 17 19 5 6 5 3 6 6 5 3 1 3 5 3 4 6 11 17 17 16 12 15
16 13 12 10 11 8 8 7 7 5 4 3 2 2 7 6 13 16 11 9 9 12 12 4 9 5 3 4 6 4 5 3 3 4 4 5 7 2 9 14 15 13 9 4 6
14 11 10 10 10 7 6 5 5 5 4 3 1 2 8 11 7 5 4 4 2 5 1 1 4 4 6 6 4 7 2 2 3 3 2 3 4 3 9 13 12 5 7 7 7
12 9 10 9 8 8 8 8 5 3 3 2 3 2 6 3 4 2 1 2 4 3 5 8 5 4 3 5 3 4 1 2 5 5 4 1 9 2 8 6 7 7 8 8 9
9 8 9 9 10 12 12 6 2 0 4 7 4 3 3 9 4 3 2 2 5 9 4 4 6 0 3 1 3 2 2 3 3 1 5 3 6 8 3 9 9 8 11 10 11
8 9 10 11 13 15 11 3 4 1 4 11 6 7 10 7 3 3 1 4 4 2 3 7 2 0 7 5 5 5 6 3 1 5 6 6 8 11 8 5 6 12 12 11 8
10 11 12 14 14 11 7 5 4 10 2 5 6 4 5 8 3 3 2 2 3 2 2 4 3 5 6 6 8 4 4 3 3 4 6 5 5 7 6 10 10 8 8 8 11
11 12 14 16 9 6 5 5 5 3 4 4 3 5 3 4 3 1 2 3 3 4 7 5 5 5 6 6 4 2 1 3 3 4 3 3 2 4 4 7 7 6 6 8 9
12 14 16 13 7 5 1 4 2 3 4 3 3 2 2 4 3 3 3 4 2 5 6 2 3 5 6 1 3 3 2 3 3 3 3 4 5 2 5 2 4 5 5 7 8
13 17 17 9 3 4 3 1 3 6 2 2 3 3 4 2 1 1 5 7 3 5 6 3 1 3 2 2 1 1 4 6 4 3 3 3 4 4 6 6 6 4 4 5 6
14 17 18 8 3 1 0 4 5 4 1 4 3 3 3 2 3 3 4 5 3 5 3 5 4 5 2 2 3 5 5 2 3 3 4 5 3 5 5 5 6 7 7 7 6
16 18 11 7 3 1 3 5 2 3 4 2 5 3 5 3 4 3 3 3 5 4 3 4 4 3 5 2 3 3 4 4 5 3 3 5 2 4 1 10 11 8 9 6 6
18 16 4 5 4 3 6 3 5 6 3 6 5 4 2 2 5 5 3 2 0 2 5 4 1 2 0 1 3 1 3 3 6 3 3 2 2 6 2 11 10 12 9 7 6
14 8 3 7 5 6 5 4 4 4 2 5 5 5 5 5 4 4 1 2 1 4 2 5 3 1 3 3 3 4 4 3 4 2 1 3 3 4 8 7 8 5 8 7 7
7 4 3 6 4 5 3 6 4 4 1 4 5 4 5 6 4 3 1 3 3 2 5 3 4 4 2 3 1 4 2 6 5 3 4 1 5 5 10 8 8 6 7 10 9
5 3 2 4 4 1 3 4 4 2 6 4 4 3 5 4 4 3 4 1 4 1 2 2 5 3 1 5 3 1 3 4 4 2 1 3 5 3 6 9 10 11 8 6 7
4 2 2 1 4 1 4 4 1 2 3 2 2 2 2 5 6 2 3 1 4 3 4 2 2 3 6 6 5 1 2 5 6 3 4 4 5 2 6 5 4 8 7 7 6
4 3 3 3 1 7 3 3 1 4 3 3 3 5 5 5 6 5 3 2 1 3 2 4 3 5 6 4 3 3 3 4 5 3 3 6 4 5 4 7 6 6 7 7 6
2 4 5 4 2 4 4 2 3 2 2 4 4 2 4 4 3 4 2 2 4 2 3 4 3 2 3 4 2 1 4 6 6 5 6 5 7 5 9 8 6 6 6 6 5
4 4 3 2 6 6 3 5 6 2 3 0 5 3 2 6 6 7 6 3 3 3 3 4 1 1 1 5 6 3 5 6 5 4 7 3 5 5 5 5 6 7 7 6 4
3 2 5 3 4 6 5 6 8 6 4 4 8 5 4 2 3 4 4 5 5 5 3 3 4 3 3 4 4 6 9 9 5 4 7 6 8 8 6 7 7 7 7 6 5

GFSSW_925_spd_030.txt.gz
Wind_Speed
19 18 18 18 18 18 17 17 17 16 18 14 13 13 11 13 14 10 9 13 3 16 1 3 4 3 3 2 4 3 3 3 5 9 15 5 7 4 2 4 3 4 5 9 27
18 18 18 18 18 19 18 16 16 16 14 12 12 10 10 12 14 14 25 13 11 4 10 5 1 3 1 2 1 4 2 3 7 8 11 4 8 8 5 2 4 4 9 25 28
18 20 19 19 19 17 18 15 15 14 13 11 9 7 10 10 4 7 7 6 16 10 7 7 2 2 1 1 1 3 5 5 6 6 6 7 4 4 9 2 6 11 12 16 19
21 22 22 20 17 16 16 14 14 12 12 9 6 7 7 3 3 3 9 3 14 15 10 6 3 3 3 3 3 1 7 4 2 6 8 9 8 5 3 5 9 16 20 16 12
21 23 20 18 15 13 14 12 12 12 11 7 5 6 2 2 8 4 11 1 13 17 12 6 5 5 4 5 4 3 3 3 5 8 8 8 4 7 2 3 12 15 17 17 16
22 22 17 16 13 12 13 12 12 11 8 5 4 3 0 3 4 6 10 5 11 19 10 10 7 7 3 3 4 5 4 2 4 4 5 7 4 4 1 7 12 16 15 13 13
21 18 16 15 13 13 11 11 10 9 5 3 1 1 2 11 3 12 18 9 15 16 6 19 15 4 2 3 3 3 4 5 5 2 4 4 3 2 4 8 13 13 13 9 4
21 16 15 13 12 12 10 8 8 5 5 3 2 2 7 4 11 15 10 6 9 13 19 9 19 5 2 3 6 5 5 4 3 1 1 5 6 0 7 14 10 7 6 6 4
19 15 13 11 11 10 9 6 4 6 4 4 2 2 8 7 7 4 6 3 2 8 8 7 7 3 4 5 5 7 3 1 1 2 3 3 0 8 2 6 7 6 7 6 4
17 13 12 10 11 10 10 6 6 4 4 2 2 2 6 2 5 3 3 3 2 2 3 4 5 4 5 5 4 5 4 1 3 2 2 4 5 7 2 6 6 6 6 6 6
14 12 11 10 11 12 12 6 3 1 4 7 4 3 3 10 5 0 2 1 3 8 2 5 7 3 5 5 4 4 3 3 2 2 7 6 5 8 4 7 6 6 7 7 7
13 11 11 11 13 14 11 3 5 3 3 11 6 6 10 4 2 3 1 3 4 3 1 6 4 3 4 4 6 6 5 2 2 6 6 6 8 8 8 3 4 7 7 7 7
12 12 13 15 15 14 10 7 3 5 2 2 6 5 4 7 4 4 2 2 3 3 4 6 1 3 4 5 8 4 4 1 2 3 7 4 4 5 5 6 8 7 5 5 8
12 14 15 17 11 8 6 5 6 6 4 4 3 5 4 3 2 1 1 3 4 4 5 5 3 5 6 5 3 3 0 2 4 3 3 3 3 2 3 4 4 5 5 6 6
14 16 19 20 8 6 2 4 4 2 3 3 3 1 3 4 4 3 6 3 4 4 4 1 2 5 7 1 2 1 5 4 3 5 4 4 4 3 6 3 5 5 5 5 7
17 19 21 15 7 4 3 3 2 6 3 2 4 3 3 3 2 1 4 7 4 5 6 3 2 3 2 2 3 4 5 8 5 3 2 1 4 3 5 6 6 4 5 7 5
19 22 26 8 4 3 3 2 5 4 1 3 4 3 3 2 4 4 5 5 4 5 4 6 4 5 2 3 3 6 5 3 3 3 4 3 3 6 5 5 9 9 8 7 6
19 22 25 11 6 2 2 5 2 3 5 1 4 3 4 3 3 4 3 3 5 4 3 4 4 3 5 2 4 3 5 5 5 3 3 3 3 4 4 7 9 9 8 6 6
20 20 7 7 8 4 5 4 6 6 3 6 4 5 1 2 5 5 3 2 1 1 5 4 0 2 2 2 3 2 3 3 6 2 3 2 3 4 5 4 7 9 7 7 6
18 11 4 8 8 4 5 5 3 4 1 4 4 3 4 3 4 4 1 2 2 3 1 5 4 2 2 3 5 2 5 3 3 2 3 4 4 5 5 7 8 8 8 7 5
9 4 3 7 6 5 4 5 4 6 4 4 5 4 3 5 3 2 3 1 1 2 3 3 4 4 1 3 3 2 2 6 4 3 4 1 5 5 12 12 12 8 7 8 8
5 3 2 6 4 1 4 5 3 2 3 3 4 3 5 3 4 3 4 1 3 1 3 1 5 2 2 2 2 2 3 5 4 3 1 3 5 2 6 9 7 7 7 5 6
4 3 3 3 4 1 2 2 3 2 3 2 3 2 3 4 5 2 3 1 2 2 6 5 1 3 6 5 4 2 3 4 5 3 5 5 5 1 3 6 4 8 8 7 7
4 3 3 3 1 7 5 3 2 2 3 4 4 4 4 4 6 5 3 1 1 2 5 6 3 5 7 4 2 4 4 4 5 3 4 6 4 4 4 6 6 8 7 8 7
2 3 4 3 1 4 4 4 4 2 2 5 4 3 5 4 3 3 2 2 4 1 3 3 4 2 1 3 1 2 5 6 7 5 6 5 7 7 9 10 7 7 8 7 7
4 4 3 1 6 6 3 5 6 3 3 2 5 1 2 5 6 8 6 4 4 3 3 3 2 1 2 4 5 3 5 6 5 3 7 3 9 7 2 7 7 8 8 7 6
2 4 5 4 3 6 6 6 7 6 3 3 6 5 4 1 3 4 5 7 5 5 3 3 5 3 4 4 5 6 9 11 6 5 7 7 9 6 4 7 8 8 8 8 7

GFSSW_925_spd_033.txt.gz
Wind_Speed
16 17 16 17 18 18 19 18 14 15 15 16 15 14 13 15 15 10 9 11 4 17 6 9 7 4 2 1 2 2 1 3 7 10 11 10 7 8 4 6 2 1 1 12 21
19 17 17 17 19 18 19 19 14 14 13 14 13 12 12 14 14 12 19 12 11 6 10 7 3 4 1 1 1 2 3 7 7 9 9 8 11 10 4 8 3 5 11 22 20
19 18 18 19 21 19 19 16 13 12 12 13 11 10 12 10 4 6 8 7 15 11 7 9 7 4 2 2 5 5 4 6 8 11 11 10 8 6 11 10 5 9 16 17 18
19 19 21 22 21 18 18 15 12 11 11 12 10 9 9 3 2 2 6 4 20 15 11 9 4 3 4 5 4 3 4 2 3 9 9 12 6 5 6 1 4 17 21 19 18
18 20 21 21 19 17 16 14 10 10 11 10 8 7 2 2 8 4 10 3 19 18 14 6 5 5 4 4 5 3 1 2 5 7 8 8 4 5 6 2 13 19 18 18 18
19 20 21 18 18 16 14 13 10 9 10 7 5 4 1 3 4 5 3 2 13 20 9 8 6 6 3 1 3 2 3 4 4 7 5 7 4 3 1 11 15 18 17 17 19
20 20 19 18 17 15 12 11 9 10 9 4 5 1 2 11 3 4 14 7 14 21 7 15 9 2 1 1 3 4 5 5 5 2 4 8 4 2 4 13 17 16 13 12 13
20 19 18 16 15 11 9 9 10 10 5 2 2 1 7 6 8 16 14 7 9 18 14 4 14 2 2 1 4 4 4 4 2 3 1 3 3 7 5 14 15 14 12 12 11
19 18 17 14 13 8 8 8 8 7 4 3 2 3 8 8 7 4 5 3 6 10 10 7 8 3 2 3 3 6 3 3 4 4 4 3 3 8 1 7 9 9 10 10 8
18 16 17 12 12 7 8 3 2 2 3 2 4 3 6 2 5 5 0 0 2 7 4 2 2 3 2 2 4 4 4 2 3 2 9 7 4 7 5 7 7 7 7 7 5
17 15 14 11 11 9 9 5 2 2 5 7 4 3 4 10 4 1 1 2 2 6 2 0 3 3 3 3 3 4 3 3 2 2 6 4 4 6 3 6 8 7 7 6 5
17 13 12 12 11 12 12 3 6 2 3 12 5 5 10 4 3 3 1 3 4 1 1 4 3 1 4 3 5 4 7 3 3 3 4 4 6 7 5 2 2 7 8 7 7
15 13 11 13 12 13 13 16 2 6 1 3 5 4 4 7 4 3 1 3 3 2 2 4 1 3 3 4 7 4 5 2 3 4 6 3 3 2 4 5 4 4 6 8 12
15 13 14 16 9 8 9 15 14 6 2 2 3 5 4 3 1 1 0 3 3 4 4 4 3 3 4 3 2 4 1 4 4 2 2 3 3 2 1 3 4 7 9 12 13
15 15 20 20 7 9 4 8 5 1 3 3 3 4 2 5 4 1 5 5 5 4 3 1 2 4 4 1 2 3 3 4 3 4 2 2 2 1 0 4 8 10 11 10 9
17 18 22 24 6 12 5 4 4 4 3 3 4 5 4 2 2 2 3 7 4 4 6 2 1 3 2 3 4 8 4 5 3 2 1 1 3 3 5 5 11 11 10 9 8
19 22 28 17 4 8 5 3 3 3 2 2 3 4 3 2 3 3 4 4 2 4 3 4 3 2 2 4 3 4 4 2 1 1 3 1 2 5 4 6 15 16 13 11 10
20 23 27 21 8 3 5 3 3 2 4 1 3 4 5 4 2 3 3 2 4 5 3 3 0 2 3 1 4 2 3 4 4 3 1 1 4 1 2 4 14 14 14 12 11
19 20 11 32 19 9 4 3 6 6 4 7 3 5 2 2 4 3 2 2 1 1 4 3 1 2 3 1 1 3 2 2 6 1 1 2 3 5 1 5 11 15 12 14 12
18 13 7 15 14 8 4 5 4 4 2 2 4 3 4 3 3 3 1 2 2 1 1 5 3 1 0 1 5 1 7 3 2 3 3 2 4 5 4 8 12 15 16 14 11
11 3 8 14 13 3 4 5 5 6 4 5 5 4 3 5 3 2 3 1 1 2 3 3 3 2 1 1 5 2 2 5 4 1 2 1 4 4 8 11 16 17 16 13 11
7 3 9 16 3 0 4 6 3 3 3 4 4 4 5 3 3 3 6 2 1 1 5 1 4 3 2 0 1 1 3 4 3 4 1 0 5 2 5 8 9 12 8 8 9
4 2 3 5 4 1 2 3 3 1 2 3 3 3 2 4 4 2 3 0 2 3 6 5 1 3 2 2 1 3 3 4 5 2 5 4 4 1 3 5 10 11 8 9 12
3 3 3 3 0 8 5 3 2 2 1 4 5 4 4 3 4 5 3 1 2 2 6 5 3 4 6 3 1 4 4 5 4 3 4 6 4 4 6 7 7 9 11 13 12
1 3 3 4 2 5 3 5 5 3 2 3 4 3 5 4 2 3 2 2 3 3 3 2 4 2 1 1 2 2 4 8 8 4 6 4 9 6 9 11 10 9 12 14 12
4 4 3 2 5 6 1 6 7 3 1 1 6 3 2 6 6 8 7 4 4 2 2 2 3 2 3 1 3 3 5 7 8 3 10 4 13 9 1 4 10 13 15 14 13
3 3 4 4 3 5 5 6 7 6 3 4 6 5 4 1 3 3 6 8 5 5 3 2 5 3 3 3 3 5 9 12 6 6 8 10 10 5 5 8 12 14 16 15 14

GFSSW_925_spd_036.txt.gz
Wind_Speed
14 16 17 15 16 18 18 18 16 15 15 17 17 16 14 16 18 7 12 12 5 15 7 8 8 8 5 5 4 3 7 9 11 15 15 9 10 8 13 11 1 2 1 12 21
14 15 17 17 17 18 20 18 17 15 13 15 15 14 13 17 14 17 19 13 10 8 12 9 8 8 6 6 5 8 8 7 4 7 14 19 10 14 9 13 7 5 9 22 20
15 15 17 17 20 19 19 17 16 15 13 14 13 12 11 13 7 4 4 5 17 12 9 9 8 8 8 6 9 9 8 5 6 10 8 13 13 11 16 10 9 12 17 19 19
15 15 17 19 20 20 17 15 14 14 13 13 11 10 10 4 1 3 6 6 21 16 11 12 9 9 7 9 11 8 11 4 1 9 8 6 7 6 13 6 2 7 21 21 18
16 15 16 19 20 18 16 14 12 11 11 12 8 7 4 6 9 4 7 6 20 16 14 11 11 9 11 10 8 14 4 5 6 10 13 5 10 8 6 7 9 16 20 18 18
16 15 16 18 20 17 15 13 10 10 10 9 5 4 4 8 2 4 2 8 12 17 14 12 5 8 3 5 11 4 3 5 3 11 10 10 7 11 4 11 13 19 18 17 18
15 16 16 17 17 16 13 10 8 10 10 5 2 2 6 13 3 6 6 3 9 16 11 13 10 7 2 4 3 8 11 10 6 11 5 10 11 6 4 11 15 16 14 14 15
16 16 16 16 14 14 11 9 7 9 8 1 0 2 7 6 6 13 12 9 8 12 10 2 11 8 6 1 4 4 9 8 6 8 4 11 11 6 6 11 14 15 13 13 14
16 15 15 13 13 11 9 6 6 9 3 3 1 4 7 5 7 5 9 3 7 9 7 4 10 5 5 9 8 7 8 9 9 2 7 7 9 3 9 11 12 13 14 13 13
16 15 15 12 10 8 7 2 3 2 2 1 5 5 9 2 2 3 5 6 3 11 7 5 4 5 6 10 10 8 6 11 12 7 13 9 8 7 8 12 13 14 13 13 13
16 14 13 11 8 8 6 4 5 5 6 8 1 5 5 9 2 5 3 8 5 7 4 6 6 9 14 3 4 3 4 10 8 5 7 4 7 5 7 12 13 12 12 11 10
16 14 12 10 8 9 6 5 4 4 5 20 12 9 14 6 3 5 2 5 2 6 3 6 6 4 5 4 4 5 8 6 5 4 5 8 6 4 5 10 10 11 11 11 10
16 14 10 8 9 9 11 17 1 8 5 4 7 8 5 7 4 6 3 3 10 9 2 5 5 5 6 7 7 4 3 7 5 7 2 9 8 8 4 6 7 7 7 8 10
16 13 11 12 7 7 9 18 18 7 4 7 7 6 6 4 5 1 0 2 1 2 3 3 3 4 7 6 5 6 3 6 10 10 7 8 8 11 8 8 8 9 10 10 10
16 14 17 16 4 8 2 13 6 5 5 10 7 4 5 6 4 4 3 4 6 8 5 4 6 7 5 3 2 4 4 4 4 6 5 9 7 8 8 10 11 11 11 12 13
17 15 19 17 7 9 3 6 7 4 5 8 8 9 10 4 3 4 2 4 3 3 2 5 2 1 3 6 1 10 7 6 3 3 7 4 7 9 5 4 11 12 14 15 14
18 16 26 14 6 3 8 5 5 7 4 8 11 12 11 7 5 7 8 8 7 9 9 6 4 4 3 8 6 6 6 3 3 4 6 2 6 11 3 3 9 17 18 16 14
17 18 26 15 9 2 7 7 8 8 9 2 8 15 12 9 5 4 8 9 4 8 10 9 6 5 2 3 1 3 4 3 4 3 1 3 5 2 1 1 6 16 17 16 14
14 15 12 18 17 1 6 11 8 6 9 10 10 15 8 8 5 7 6 8 4 4 7 7 4 5 3 2 3 5 4 3 2 1 3 4 4 8 3 5 10 15 17 17 16
17 10 18 14 23 6 7 11 9 3 5 11 13 13 14 13 10 10 9 4 4 2 3 4 4 2 4 2 6 4 9 3 3 3 4 4 5 2 6 9 12 16 17 17 16
14 6 10 19 17 7 10 12 7 7 6 11 13 9 11 9 9 11 10 4 3 4 1 5 3 5 3 7 6 4 4 0 1 2 2 3 1 3 2 5 13 16 17 18 16
12 9 15 25 9 9 12 9 4 7 5 6 7 7 12 11 7 8 10 2 4 4 5 2 1 4 6 3 1 3 6 9 4 4 1 2 3 3 1 3 8 13 15 16 13
9 5 4 7 12 10 7 5 5 6 9 9 7 6 5 9 6 5 6 2 3 5 7 6 3 4 5 5 5 7 9 5 4 1 6 3 2 3 3 5 8 10 12 12 13
9 7 4 6 4 16 13 12 8 2 5 4 5 4 7 6 1 7 8 2 2 2 3 3 3 7 10 2 0 6 11 12 11 4 5 9 10 7 8 8 8 11 13 15 15
7 7 10 12 10 13 15 15 11 7 4 6 4 8 8 5 6 6 6 6 3 5 2 3 6 4 2 0 3 5 8 13 16 14 8 12 11 11 7 9 10 10 12 14 15
8 5 4 14 12 13 11 11 15 6 5 7 8 10 7 5 7 10 10 7 5 6 5 2 3 3 3 3 3 7 10 11 15 16 15 19 20 16 9 7 8 11 13 16 15
4 3 9 4 10 11 11 11 14 10 3 3 12 8 6 4 5 8 7 8 5 7 6 4 6 4 2 2 3 6 16 18 13 13 15 14 16 3 7 10 11 12 14 15 16

GFSSW_925_spd_039.txt.gz
Wind_Speed
13 13 14 15 14 16 17 20 19 18 18 16 17 19 18 18 20 14 15 14 10 17 6 7 11 13 13 14 11 13 11 14 7 14 11 15 10 5 3 6 5 6 5 12 18
14 13 14 15 16 17 18 20 17 17 17 14 16 19 17 17 19 22 19 16 14 8 14 14 12 12 13 13 10 11 12 16 15 8 2 14 5 10 9 11 6 3 7 17 18
14 15 15 16 17 17 18 18 18 16 15 13 16 17 15 13 14 1 6 13 16 12 18 10 9 11 15 10 13 14 15 4 3 12 28 2 10 12 12 14 17 16 14 15 17
15 14 15 16 18 19 18 17 16 14 12 12 15 15 12 7 4 9 6 7 16 13 15 11 10 12 13 12 14 15 15 4 6 4 13 12 12 7 8 21 10 13 18 17 16
16 15 15 16 17 19 17 16 14 13 11 12 14 11 7 7 12 2 8 5 17 14 15 11 11 11 11 12 12 15 4 3 2 6 7 11 7 5 1 8 4 20 19 18 16
17 15 16 16 17 18 17 15 12 11 10 12 11 6 7 11 2 3 2 10 13 18 15 12 9 10 10 5 11 11 13 3 6 10 15 7 4 3 9 8 11 17 18 15 17
18 16 15 16 17 16 15 13 11 10 10 10 7 5 8 16 2 4 8 3 10 15 13 12 12 6 4 8 3 4 7 9 6 11 6 11 3 17 4 11 15 16 16 17 18
18 16 15 15 16 15 13 11 10 10 10 6 3 6 8 6 12 14 11 12 10 12 14 3 8 11 12 5 6 8 6 12 7 13 6 14 12 7 9 11 15 17 15 16 17
18 17 15 15 15 13 11 9 9 8 7 1 2 6 7 2 12 10 12 9 5 9 8 3 7 9 7 9 8 10 8 11 11 12 11 12 15 11 13 12 16 15 16 15 16
18 17 15 15 14 12 8 4 6 1 1 3 10 8 9 9 7 5 6 7 6 9 9 7 7 8 9 10 10 13 14 14 11 11 10 10 9 10 14 14 13 14 14 13 15
18 16 14 15 13 10 4 2 5 6 11 11 4 12 1 5 8 11 9 10 6 10 12 12 7 12 15 15 9 4 7 11 14 11 13 12 10 13 14 13 14 14 15 15 15
17 16 14 13 11 8 8 8 8 6 7 21 19 13 16 9 6 10 7 9 7 13 5 7 9 7 10 3 7 6 6 7 10 11 9 10 12 12 14 16 16 15 15 16 15
18 15 13 11 7 9 14 16 3 11 6 11 16 14 13 10 11 14 9 9 15 17 9 1 6 5 6 7 6 7 2 8 7 11 14 9 14 15 12 12 11 14 16 15 15
18 15 12 7 6 11 13 19 18 8 5 12 11 8 9 8 10 8 7 6 9 13 10 20 17 6 8 7 6 10 2 1 4 12 13 17 13 19 18 16 14 14 13 14 14
19 17 15 16 8 9 4 9 6 4 5 15 16 6 8 12 4 14 6 9 12 15 10 3 9 9 8 4 5 8 3 4 6 12 7 13 8 18 15 15 15 15 15 14 14
21 18 13 12 13 11 2 7 6 5 9 9 13 13 13 13 8 11 13 8 5 4 12 2 7 3 5 3 4 4 4 6 7 10 8 15 13 5 12 14 17 13 13 14 13
23 20 21 14 7 9 10 11 6 8 6 12 18 18 17 10 11 11 16 15 12 11 12 12 10 4 5 6 3 8 9 8 5 4 8 4 5 12 7 4 5 13 14 15 15
23 20 20 20 15 3 13 9 11 13 15 7 16 16 16 13 12 12 15 16 19 14 10 12 8 12 7 9 5 9 11 5 6 7 7 8 7 3 9 2 3 12 15 15 15
22 14 14 23 16 5 10 14 11 10 14 9 12 16 16 14 8 13 15 17 14 15 6 15 5 7 2 3 5 6 7 5 4 1 5 10 9 9 5 6 6 13 15 16 16
21 12 21 19 21 10 10 19 19 9 7 12 16 17 17 14 12 14 14 15 9 5 7 4 3 4 5 5 6 8 3 3 4 3 7 4 6 5 7 7 8 13 15 16 16
22 7 16 25 23 6 13 20 18 10 10 12 17 15 15 14 16 15 13 7 8 10 8 7 9 7 5 10 11 7 8 6 4 3 4 4 2 8 3 6 9 12 15 16 16
20 11 28 37 10 8 16 22 20 12 11 10 8 13 14 14 12 12 16 12 11 7 11 4 4 7 10 5 5 10 8 9 5 6 4 4 5 4 5 3 7 10 13 14 15
13 7 19 27 13 14 20 21 21 15 13 13 12 12 12 11 11 12 11 6 4 7 6 6 7 9 7 6 7 8 9 8 8 2 9 4 3 6 7 3 5 8 12 14 16
11 10 4 9 15 20 24 21 19 12 13 15 15 12 10 12 11 10 9 4 5 4 3 1 11 9 10 9 5 12 12 11 12 8 10 12 13 6 9 8 7 8 10 14 15
9 13 13 16 19 14 23 18 22 13 10 12 12 15 14 11 14 8 10 7 6 5 5 4 10 12 14 5 7 9 9 10 16 17 15 12 15 12 9 6 8 8 10 12 13
6 14 16 19 21 19 21 23 24 19 16 16 15 17 15 10 11 11 12 10 8 9 8 5 6 3 6 9 9 12 14 14 15 16 17 19 18 16 11 9 6 10 9 12 14
15 15 15 19 24 17 17 22 24 16 3 9 17 16 12 3 7 9 6 2 4 8 11 6 4 4 5 3 5 6 15 18 18 17 14 16 16 11 8 6 9 10 7 10 11

GFSSW_925_spd_042.txt.gz
Wind_Speed
16 16 15 15 16 18 20 22 22 21 19 19 17 18 22 23 24 15 12 13 10 17 17 13 11 14 16 15 17 17 12 14 19 10 5 18 18 26 6 7 6 7 13 21 23
16 16 15 16 16 18 21 22 23 21 19 18 17 18 20 22 21 21 19 16 17 15 9 15 12 13 11 16 15 11 12 20 3 11 6 8 12 31 4 4 10 12 20 24 26
16 17 16 16 16 18 21 23 21 20 18 15 15 18 18 16 10 3 4 13 15 15 15 21 14 11 12 15 15 15 15 16 3 15 16 11 20 28 4 8 10 7 18 17 22
16 16 17 17 17 18 21 21 21 19 16 15 15 16 14 6 1 5 9 5 11 13 11 17 11 12 13 16 13 14 15 17 4 12 15 14 16 9 10 4 8 7 16 16 18
16 16 16 17 17 18 21 22 21 18 15 15 14 13 6 7 11 5 5 3 11 12 13 13 10 11 13 13 12 14 17 7 7 5 8 10 7 6 12 15 24 22 18 17 13
16 16 17 17 17 18 19 21 20 18 16 13 12 8 3 11 5 3 2 5 10 13 13 14 9 10 11 15 11 9 14 4 3 3 2 9 7 9 5 5 20 18 18 15 14
16 16 17 17 18 18 19 19 19 17 14 12 9 4 9 18 10 5 6 8 11 14 14 11 11 9 7 11 11 5 7 4 2 3 3 13 9 2 5 11 12 14 14 12 13
17 16 16 17 17 18 18 17 17 15 12 11 5 3 8 10 12 16 13 12 12 13 14 12 7 9 10 13 7 8 6 5 6 11 9 12 9 8 7 13 15 16 13 12 13
18 16 16 16 17 18 17 15 14 13 11 5 3 6 9 3 13 15 13 14 6 8 10 5 6 10 11 10 9 1 6 9 15 13 6 11 14 14 10 12 15 14 14 13 14
18 16 15 16 16 16 15 12 12 11 6 8 11 9 10 10 13 15 10 7 6 7 6 8 6 7 9 8 5 8 14 16 12 13 11 16 14 14 14 14 14 13 13 14 13
18 15 15 15 15 14 10 7 5 5 12 10 10 9 4 3 4 8 12 10 11 9 11 11 6 8 6 5 13 11 15 15 11 13 8 8 10 12 14 12 15 13 13 12 13
18 15 14 14 14 11 7 6 4 9 9 20 19 18 17 9 8 13 15 10 9 9 11 10 5 6 14 17 19 16 1 10 13 9 10 13 11 14 15 14 14 13 14 14 14
18 15 13 12 11 10 15 19 15 16 7 15 22 18 15 14 14 14 11 14 12 4 9 15 3 13 12 16 12 8 12 7 9 7 11 11 13 15 15 14 15 16 17 17 18
17 16 13 9 6 12 12 14 19 10 5 10 16 14 15 7 14 22 22 15 5 10 9 4 10 16 17 11 5 2 11 8 16 15 7 9 9 17 13 13 15 16 15 15 17
18 17 15 15 10 11 11 9 7 5 4 11 16 9 13 15 7 18 6 12 6 12 4 4 14 18 20 7 5 3 9 16 16 6 4 7 6 12 12 18 16 11 10 11 14
20 19 14 10 12 17 10 2 4 5 7 6 11 13 18 14 17 9 14 12 10 1 6 10 16 20 2 2 2 13 10 15 9 9 7 16 11 14 13 11 19 10 13 12 9
23 22 22 11 8 14 9 5 5 7 10 11 18 16 17 15 16 12 15 17 12 8 8 8 16 4 4 6 6 8 10 3 7 7 4 9 5 5 19 19 17 19 12 11 10
25 22 24 21 16 8 10 5 11 11 21 3 15 15 20 17 15 14 13 16 18 18 9 11 9 13 8 7 4 15 7 3 2 5 7 5 5 5 12 9 6 12 10 10 10
25 20 16 22 21 11 8 11 11 13 21 8 13 14 18 18 10 14 15 16 18 18 11 6 3 13 10 3 10 9 4 4 7 3 2 6 17 7 8 8 7 11 12 12 12
23 16 21 23 22 11 8 18 15 24 12 12 15 15 17 18 14 11 14 13 17 18 12 6 3 14 16 6 4 5 6 4 2 2 4 8 10 9 6 8 6 10 11 12 12
19 7 13 26 23 7 15 18 22 21 18 10 14 15 19 14 15 13 10 12 18 9 7 7 11 8 6 8 8 6 7 5 6 4 1 4 3 7 6 8 6 8 12 13 14
7 7 31 39 11 11 15 22 22 17 15 12 10 16 15 14 13 14 14 13 7 8 9 13 5 4 12 3 5 9 11 9 3 6 2 1 6 4 5 6 5 7 10 13 14
5 7 33 35 12 14 18 25 26 23 18 14 15 13 12 13 10 14 10 6 8 8 3 4 4 5 9 6 8 8 12 9 8 2 4 3 3 5 4 2 4 4 8 10 11
5 9 5 11 12 21 23 22 26 24 20 14 15 14 12 14 9 9 9 3 3 1 3 3 5 9 6 11 5 6 11 11 10 3 4 9 14 9 10 10 7 8 4 5 10
4 9 7 12 18 19 21 21 25 23 20 17 16 17 12 8 11 11 11 7 4 3 2 3 8 12 14 14 7 9 12 8 11 10 10 11 15 12 11 7 5 2 6 7 7
7 6 12 7 19 21 20 27 27 24 20 20 16 18 13 11 12 10 11 8 7 7 8 5 6 4 8 9 13 11 15 15 15 15 14 14 14 11 8 8 8 7 7 6 5
17 11 10 14 21 19 21 25 25 19 19 19 17 14 16 7 5 10 2 11 7 10 9 7 3 2 2 6 7 5 10 16 16 15 13 11 10 8 12 8 5 3 6 4 5

GFSSW_925_spd_045.txt.gz
Wind_Speed
14 15 16 16 15 17 19 21 22 22 23 24 23 23 23 25 27 14 7 9 5 6 7 11 12 19 16 5 8 2 1 11 10 0 4 5 3 2 6 14 8 5 6 21 31
15 15 16 16 16 17 18 21 23 23 23 22 22 22 22 23 22 14 11 10 15 16 10 8 8 11 4 6 5 1 4 7 3 6 6 5 11 13 9 11 3 12 17 27 29
15 15 16 16 16 17 18 21 23 23 23 21 21 20 20 16 7 6 5 3 15 13 13 11 17 9 6 5 7 7 10 9 3 6 8 8 5 3 4 1 3 6 7 16 25
15 15 15 17 16 17 19 21 23 23 22 20 19 18 16 5 1 2 6 1 10 12 6 6 7 4 4 7 9 6 9 10 7 7 6 7 2 2 5 4 11 11 4 11 14
15 15 15 16 17 17 19 20 22 23 21 18 16 16 7 3 10 9 6 3 9 9 9 8 9 6 7 5 7 7 8 4 9 10 6 15 8 3 3 3 11 15 10 9 11
14 14 15 16 17 17 19 20 21 21 19 16 13 12 2 6 9 11 2 3 6 10 11 15 9 8 6 5 5 7 9 3 5 7 5 15 5 9 7 7 6 8 6 11 10
15 14 15 16 17 18 19 20 20 19 16 14 12 6 5 16 11 10 7 4 13 13 7 23 19 4 7 9 10 9 6 5 4 4 4 10 5 5 9 13 10 11 13 12 10
16 14 15 16 17 18 19 19 19 17 14 12 10 2 7 16 16 15 8 15 15 22 17 17 13 5 3 7 7 7 3 2 2 8 4 9 5 9 16 17 15 16 13 9 12
16 15 15 15 16 18 18 19 18 15 12 9 5 4 9 18 11 18 15 16 20 18 11 13 4 2 6 3 5 4 3 3 2 1 8 5 5 12 10 16 13 10 8 8 9
17 15 15 15 15 17 18 17 15 15 6 3 9 5 9 5 12 18 20 20 5 4 0 3 2 2 3 2 3 1 3 3 6 7 12 6 7 6 9 15 15 13 10 9 10
17 15 14 14 14 16 16 7 2 0 4 9 6 6 13 18 2 12 12 16 3 5 2 5 4 5 8 6 4 5 6 8 9 8 6 9 9 11 10 10 11 13 12 9 10
17 15 14 13 12 14 10 4 7 8 8 18 20 19 25 19 5 9 16 6 6 5 1 6 7 8 7 8 7 6 11 10 13 5 4 7 8 11 11 10 14 11 10 10 7
17 14 13 11 11 14 14 21 20 15 4 9 16 8 7 11 7 11 6 7 6 4 8 6 11 16 3 9 13 3 6 2 2 5 5 3 5 6 7 6 10 14 13 13 15
18 14 13 9 7 9 7 15 3 5 3 6 8 7 7 7 7 16 16 9 3 10 13 5 6 10 8 13 6 4 5 5 3 5 2 2 3 1 5 10 12 13 13 14 11
16 14 16 13 9 4 10 12 4 5 4 5 10 8 10 10 2 6 22 8 6 6 5 6 1 2 5 6 6 6 7 10 8 7 10 4 5 6 2 5 6 3 10 14 16
19 16 15 14 13 19 13 16 8 1 7 4 8 7 8 10 9 4 6 2 2 2 3 6 6 1 2 8 11 3 2 4 4 1 1 5 5 4 6 8 5 3 9 6 10
19 19 22 12 5 7 11 5 1 4 7 7 12 11 10 6 9 8 6 6 5 4 3 4 5 9 8 6 3 7 3 3 5 6 5 8 3 8 11 12 8 15 21 7 11
18 20 25 26 19 11 6 1 9 12 11 2 10 9 11 7 10 11 5 6 8 7 3 5 1 5 3 3 4 3 3 4 4 2 6 8 6 5 14 7 11 13 9 7 8
16 20 13 29 24 9 1 9 6 7 7 4 14 11 9 12 7 9 7 6 11 12 7 5 3 8 10 11 3 2 4 4 6 2 2 4 4 5 7 4 6 8 8 8 9
15 10 10 26 17 8 5 14 6 15 11 7 7 8 8 12 10 9 8 8 6 13 7 2 5 2 3 7 7 7 7 1 3 3 3 4 3 3 6 3 8 8 8 8 8
16 4 14 22 17 4 14 12 14 21 13 6 5 7 8 8 9 6 6 6 9 4 9 6 4 2 11 4 8 1 3 2 3 5 4 1 4 1 7 8 9 10 11 11 10
9 8 26 35 7 5 15 10 8 20 13 13 6 3 7 9 7 8 7 9 8 9 9 8 4 4 9 18 15 6 6 6 5 4 3 5 5 2 7 9 9 9 12 13 14
5 6 25 35 11 13 9 15 21 15 18 6 6 3 2 5 6 6 6 4 3 5 6 3 2 4 1 9 8 4 6 4 3 4 4 5 5 2 5 5 6 7 8 11 13
5 7 6 10 8 19 17 15 23 12 21 19 13 6 5 5 4 7 3 2 5 4 2 5 0 5 6 6 3 3 4 5 4 4 4 5 5 10 7 8 7 7 5 9 12
4 9 9 12 18 14 18 14 21 18 17 11 11 9 7 5 4 5 5 3 4 1 3 4 3 1 4 5 5 2 1 4 6 6 6 9 8 9 5 5 2 5 1 2 6
4 6 7 2 16 17 19 21 26 21 15 20 16 9 9 6 7 6 8 5 5 1 5 2 2 3 1 5 7 4 7 6 7 6 3 2 4 5 3 6 8 7 7 7 8
10 7 10 6 17 16 22 23 24 16 13 21 10 6 8 8 4 2 6 9 9 9 7 6 4 3 2 4 6 6 7 6 6 4 3 2 4 8 10 9 6 8 8 7 8

GFSSW_925_spd_048.txt.gz
Wind_Speed
11 12 12 13 14 14 16 18 20 22 24 24 24 23 24 25 27 15 7 4 1 6 5 6 10 10 4 2 5 4 2 3 3 2 2 3 3 4 9 6 3 5 5 18 24
12 12 13 13 14 14 16 18 20 22 24 24 23 22 22 24 23 12 4 7 11 5 5 3 3 7 2 3 1 3 3 5 7 3 5 7 4 3 1 5 3 15 22 26 23
12 13 13 13 14 15 16 18 20 22 24 24 21 20 20 18 5 6 7 6 9 7 10 6 4 1 3 4 4 4 4 6 6 6 6 8 3 3 6 2 3 15 20 20 21
13 13 13 13 14 15 16 17 20 22 22 21 19 18 18 5 2 4 5 4 8 7 7 4 1 3 3 5 1 3 8 7 6 8 5 6 5 7 5 5 11 21 22 18 16
14 13 13 14 14 15 16 17 19 20 20 19 17 16 6 3 9 7 11 3 9 11 9 3 0 0 3 4 6 4 7 4 8 10 6 6 2 5 3 9 15 20 21 17 17
15 14 14 14 14 16 16 17 19 20 18 16 14 11 3 5 3 6 2 5 8 14 7 7 4 1 6 3 3 6 9 7 10 11 5 6 3 3 6 10 11 12 16 22 22
16 15 14 14 15 16 16 17 19 19 16 14 11 5 2 15 4 4 10 14 11 11 4 10 9 3 4 7 4 6 2 5 7 10 6 9 1 1 6 14 15 8 9 11 23
17 15 15 14 15 16 17 17 19 19 15 12 8 1 7 12 13 17 12 14 14 15 13 13 7 4 2 3 7 6 4 2 5 8 6 1 4 5 11 10 8 7 7 12 15
17 15 15 14 15 17 17 18 20 18 11 8 2 2 10 15 9 11 13 14 9 19 18 17 2 1 6 3 5 5 2 4 1 5 5 5 3 5 8 9 8 7 7 10 15
18 16 15 14 15 17 18 19 18 14 2 1 3 4 8 3 5 9 18 17 5 4 3 4 5 3 5 4 3 4 1 3 2 3 4 6 5 6 12 14 14 10 8 14 17
16 16 14 13 13 15 16 7 2 0 3 8 5 5 8 12 13 9 15 8 3 5 3 0 4 3 7 7 7 9 1 4 6 6 5 11 6 6 15 13 13 12 10 11 17
15 16 15 12 11 12 11 2 4 1 8 14 17 15 23 10 6 7 9 6 6 4 2 4 3 5 7 4 3 3 2 9 9 8 9 6 9 6 16 16 17 15 13 17 14
16 18 15 11 9 11 9 10 10 12 3 8 8 7 6 12 7 8 6 6 5 5 5 5 6 4 1 5 7 4 3 5 6 4 4 5 3 4 5 5 12 14 17 16 20
16 18 16 10 5 4 6 8 10 12 2 7 5 7 6 5 5 10 7 6 3 8 7 4 2 2 5 2 2 7 7 7 1 4 1 3 3 3 7 8 12 15 13 14 14
16 19 18 16 3 4 2 15 5 2 3 4 5 8 9 8 3 4 10 4 5 7 6 9 3 3 4 6 4 9 4 6 1 3 3 1 2 7 4 7 9 16 15 16 18
18 19 18 15 15 15 15 12 5 3 7 3 7 7 6 5 3 5 4 3 4 6 0 5 3 4 4 1 3 8 2 7 7 4 1 5 5 6 5 11 12 13 12 10 9
18 20 24 17 4 2 7 1 3 5 5 5 6 7 6 7 4 5 3 5 6 4 1 2 3 2 0 8 8 2 4 3 3 3 6 2 3 8 6 7 8 14 9 9 13
18 19 24 25 18 4 1 2 9 7 7 4 6 9 9 6 7 6 5 5 3 5 3 4 2 1 1 3 4 4 4 5 4 3 4 5 4 6 7 3 2 7 6 7 11
16 16 14 29 24 7 1 9 8 6 5 4 4 6 5 8 5 6 8 9 9 7 7 4 3 3 4 4 3 1 2 5 5 2 3 4 4 6 5 4 6 2 8 7 8
14 9 8 19 21 7 5 15 6 8 6 4 6 7 10 10 7 7 6 6 5 10 7 7 2 1 4 2 2 6 4 2 3 2 3 3 3 4 3 3 1 3 6 7 7
12 4 16 20 19 3 12 12 12 21 4 4 2 2 8 8 9 7 6 5 9 6 8 5 5 4 4 7 8 3 3 2 4 4 4 1 5 6 7 8 10 8 8 9 9
9 7 25 33 6 4 14 13 12 20 7 4 5 7 6 9 9 9 11 9 4 9 10 7 5 4 8 3 6 6 5 4 5 4 1 4 5 4 9 10 8 9 8 9 11
7 5 21 27 11 12 8 22 18 10 5 6 5 4 4 6 5 7 8 3 2 8 10 7 1 2 7 6 4 3 6 6 4 4 6 5 5 2 3 5 8 9 9 10 11
6 8 5 9 8 18 16 13 19 17 17 11 7 6 4 3 5 7 5 1 2 2 7 9 5 7 7 7 3 3 6 5 6 3 4 6 6 6 9 8 8 9 8 9 10
4 7 7 13 19 16 17 13 16 15 14 8 8 16 8 5 4 5 2 4 2 4 2 5 6 5 5 4 3 1 1 2 3 4 5 7 7 8 4 5 5 4 2 4 6
4 5 6 4 18 23 16 24 26 23 8 16 11 9 5 9 7 7 7 4 6 2 4 2 3 3 3 2 3 3 2 3 4 3 4 4 2 6 4 6 9 7 8 7 6
17 6 5 12 19 18 28 21 23 23 12 21 13 13 9 10 7 6 7 8 10 9 5 6 6 3 4 3 3 5 6 6 3 2 5 5 5 4 8 9 6 7 9 8 7

GFSSW_925_spd_051.txt.gz
Wind_Speed
12 12 12 13 13 13 14 15 17 19 21 23 24 23 24 26 30 20 7 2 1 7 4 2 2 0 2 1 3 4 3 1 4 5 5 2 3 3 3 3 5 2 4 14 19
12 12 13 14 14 13 15 15 17 19 21 22 23 22 22 25 24 12 2 3 7 5 2 2 2 4 2 1 2 3 3 7 6 5 4 6 3 6 4 8 4 12 15 20 21
13 14 13 14 15 14 15 16 17 19 20 21 21 20 21 19 6 6 4 5 7 8 2 0 1 1 1 0 3 2 4 4 8 6 7 7 4 4 6 1 8 17 14 15 20
15 15 14 14 15 15 16 16 17 19 20 21 20 19 18 7 3 1 4 8 8 9 4 3 3 3 1 3 3 2 9 5 6 8 7 7 5 1 1 3 14 19 19 18 14
18 16 15 15 16 16 16 17 17 18 20 20 19 17 7 3 9 5 7 2 11 9 4 4 3 2 3 4 4 3 5 6 4 9 7 7 3 6 3 13 20 22 19 14 14
21 18 15 16 16 17 17 17 17 18 19 18 16 13 3 5 4 5 3 1 3 7 4 5 5 4 3 4 1 4 4 4 5 6 6 7 3 5 3 13 15 17 18 15 13
21 20 17 16 16 17 17 18 17 18 18 17 13 7 1 15 3 6 4 10 11 9 3 9 3 3 2 6 3 4 4 3 2 4 5 5 2 4 13 13 15 12 13 17 16
19 21 19 16 16 17 18 18 18 19 18 13 8 2 7 7 7 16 15 14 11 13 17 10 6 4 3 3 7 4 3 3 4 5 2 5 4 6 16 16 13 11 13 13 17
18 21 20 17 17 17 18 19 20 20 13 8 2 1 9 11 8 10 16 7 4 10 15 11 4 1 5 3 5 5 2 2 3 7 3 2 4 4 15 16 13 11 12 13 15
19 19 21 18 16 17 18 18 18 9 1 2 1 3 7 3 6 13 10 10 3 3 2 3 4 3 3 4 2 4 3 1 3 4 4 5 6 6 10 15 16 11 12 14 17
19 19 20 18 15 15 16 7 3 1 4 8 5 4 4 11 8 2 5 9 3 5 3 2 3 2 5 5 6 3 5 4 3 4 3 7 6 8 9 6 7 8 12 15 17
17 17 17 15 14 13 11 2 3 2 8 13 17 11 20 3 4 5 7 5 5 5 2 4 3 6 5 2 4 0 4 6 6 5 5 4 10 4 7 7 13 14 10 12 14
17 16 14 14 14 12 7 9 13 9 4 7 7 6 6 12 7 6 6 5 4 6 6 5 4 2 3 4 1 1 2 5 6 5 2 4 5 3 5 5 8 10 14 12 18
19 16 16 14 7 7 5 3 16 13 2 6 5 7 7 8 4 12 7 6 2 10 6 4 2 3 2 2 4 3 3 8 3 2 4 1 3 4 6 14 11 14 12 15 15
21 17 17 20 2 4 5 12 4 1 3 3 4 7 7 11 2 6 8 3 7 6 5 8 5 5 4 5 4 6 3 3 3 2 2 2 3 6 4 9 15 17 15 17 17
19 18 17 21 18 13 7 12 5 4 7 3 7 7 6 3 2 1 5 3 4 5 3 5 1 2 5 1 4 2 1 4 3 1 2 2 5 5 4 10 17 15 19 16 15
21 19 20 18 4 7 9 1 3 4 4 4 5 6 5 6 3 1 5 6 6 5 4 2 1 3 2 2 3 6 5 3 4 4 5 3 2 8 7 7 8 14 18 15 14
21 19 21 21 14 5 2 3 8 6 6 4 3 5 8 6 5 5 5 5 3 4 3 5 4 4 1 3 4 2 5 4 4 2 4 3 4 6 5 9 1 7 8 8 11
20 20 16 20 21 10 1 11 7 6 4 3 3 4 4 4 6 5 8 7 9 8 7 4 3 3 3 1 4 1 0 2 6 3 3 3 7 10 7 4 6 2 6 8 9
19 9 18 18 26 7 4 18 6 5 4 4 8 6 8 8 7 7 8 5 5 9 7 7 2 2 4 3 6 4 5 1 2 3 2 4 4 5 6 5 4 6 6 7 4
15 4 14 22 20 4 13 11 11 13 4 3 2 2 7 7 9 6 8 4 7 6 5 5 5 2 1 6 7 2 1 1 4 4 4 1 5 6 7 6 6 6 7 8 8
10 5 25 34 7 6 14 7 6 15 1 3 3 4 4 7 7 8 9 8 8 10 9 7 6 4 9 2 2 2 5 5 4 4 1 4 6 4 8 9 5 8 6 6 6
8 5 24 31 13 13 8 17 7 6 6 6 4 1 4 2 4 7 8 4 7 8 10 8 1 3 6 5 4 4 5 4 4 4 6 5 6 3 5 6 9 9 8 7 8
5 6 5 10 13 20 20 13 23 14 11 3 3 3 2 3 6 6 7 4 7 8 5 9 5 8 8 8 4 4 5 5 6 3 4 6 6 6 8 5 8 8 9 7 7
4 7 7 13 20 17 20 12 16 16 10 7 5 9 3 3 3 4 2 3 1 6 5 5 6 5 6 4 5 4 3 7 5 5 6 6 7 7 6 8 7 6 4 2 6
8 3 4 2 17 28 18 22 25 22 8 10 15 3 10 9 7 3 4 3 6 2 5 1 3 3 2 3 2 4 7 6 6 4 6 5 5 3 2 3 7 7 7 7 5
13 3 2 7 17 19 29 20 21 17 14 15 15 16 11 13 8 10 8 3 6 10 6 6 6 4 4 2 3 5 8 7 6 4 5 6 8 4 4 6 4 5 6 7 7

GFSSW_925_spd_054.txt.gz
Wind_Speed
14 14 14 15 15 14 14 16 16 18 20 22 23 24 26 27 32 15 6 1 1 8 7 5 3 4 2 0 2 2 4 2 4 3 5 3 1 2 1 4 3 4 2 13 20
16 15 14 16 16 16 16 16 17 18 20 22 23 24 24 26 24 9 3 2 5 8 6 5 3 4 1 1 1 4 3 6 6 4 4 4 5 4 3 3 3 5 12 20 20
18 17 16 16 16 16 16 17 18 18 20 22 23 22 22 20 5 4 2 4 10 7 4 5 4 2 1 1 3 5 6 5 5 8 6 5 1 3 6 2 6 11 14 16 18
21 19 18 17 17 17 17 17 18 18 20 22 22 20 20 7 2 1 8 7 7 10 5 6 3 3 1 2 3 2 6 6 5 5 6 8 6 5 3 3 9 13 15 12 13
23 22 20 19 17 17 17 18 18 18 19 21 20 18 8 4 9 4 7 2 10 9 5 4 3 4 2 3 2 4 5 3 4 7 5 7 4 5 4 7 14 13 10 11 10
21 22 22 21 19 17 18 18 18 18 19 20 18 14 2 4 3 4 3 7 3 6 5 5 4 5 2 4 2 3 5 4 4 5 4 6 4 4 2 12 15 15 13 10 11
21 21 22 22 21 18 19 19 19 19 18 19 15 8 2 14 4 6 7 3 5 7 3 5 3 2 1 5 2 3 4 4 1 3 4 7 3 3 10 14 14 11 7 6 7
21 20 21 22 21 19 19 20 21 21 20 18 9 3 8 7 9 15 14 12 10 10 10 7 4 3 2 4 7 3 4 2 0 2 3 3 4 2 13 15 13 10 8 8 9
21 19 19 20 20 20 20 21 23 24 15 7 2 2 9 6 9 8 15 7 4 5 6 4 2 1 4 3 4 5 2 2 4 5 2 4 1 6 12 12 13 11 12 9 8
19 19 19 19 19 19 19 22 22 11 1 2 1 3 7 2 4 6 8 9 4 2 3 2 4 3 4 4 3 1 1 4 4 5 4 3 7 6 13 13 13 12 11 11 9
19 18 18 18 18 17 17 9 5 3 5 8 5 4 5 10 4 4 4 8 3 6 2 3 3 4 8 6 4 3 2 4 5 2 4 7 7 9 12 9 9 11 11 12 14
19 17 15 15 14 13 10 3 4 1 8 12 16 8 12 3 5 5 10 6 5 5 3 4 5 8 5 4 4 3 2 3 6 3 3 2 7 7 14 16 16 16 14 16 12
19 17 14 12 10 9 8 15 6 9 4 7 7 5 5 12 8 7 9 6 4 5 6 6 4 4 3 2 1 1 1 3 3 6 1 1 3 4 6 5 7 11 15 12 15
21 18 13 9 6 6 6 3 14 9 3 6 5 6 6 8 5 10 11 6 2 10 7 5 3 3 3 4 4 2 3 1 4 2 3 3 4 4 4 12 10 12 11 14 12
21 18 14 14 2 4 4 9 5 1 3 3 3 9 7 9 6 6 7 4 9 6 6 6 4 5 4 6 6 7 4 2 2 2 3 2 2 6 1 5 11 14 13 13 14
21 18 15 13 18 13 6 15 2 1 7 3 6 7 6 3 2 4 4 3 4 5 1 5 1 3 4 0 3 4 4 5 4 3 2 4 4 5 4 7 6 10 14 15 14
22 19 18 9 5 21 13 2 2 5 4 4 5 5 5 6 4 4 6 7 6 5 3 2 2 3 2 1 4 4 5 3 4 3 5 1 1 8 6 5 7 11 16 16 15
23 20 21 22 16 10 6 2 10 6 6 4 1 5 7 5 4 5 7 7 3 5 3 6 4 5 3 4 6 2 6 5 2 2 4 3 4 5 3 7 6 8 9 11 11
22 20 20 20 18 13 3 11 6 6 4 3 2 4 5 5 6 4 7 7 8 7 7 5 4 1 1 0 3 3 2 4 6 2 2 3 6 10 3 2 5 5 2 8 9
21 12 21 19 26 9 4 17 7 5 4 3 5 5 8 7 5 8 8 5 7 10 5 7 2 0 1 1 1 2 5 3 3 1 3 4 4 5 7 7 6 5 3 5 6
15 4 10 24 20 4 13 12 15 12 4 3 3 2 5 7 8 6 9 3 8 7 4 5 4 2 1 4 6 2 0 5 5 4 3 1 5 7 6 5 5 5 5 5 7
9 7 14 38 11 7 15 7 7 15 1 4 2 4 4 6 6 7 10 9 9 9 9 6 6 5 8 1 3 4 7 6 5 4 1 3 6 5 8 6 4 7 5 4 5
6 6 22 30 14 16 10 14 4 8 5 5 3 1 2 1 3 7 7 5 9 8 9 7 1 1 7 4 1 4 5 4 5 3 6 4 6 3 6 7 6 7 7 5 5
5 6 5 10 13 19 22 17 18 6 6 2 2 3 1 3 4 1 7 4 8 8 9 7 4 7 8 8 5 4 6 6 6 4 4 6 6 8 7 6 7 7 8 7 7
5 7 6 13 22 16 21 14 20 15 12 9 2 5 0 3 4 2 1 2 2 5 4 7 8 6 5 4 5 6 5 8 7 6 7 7 8 8 6 6 7 7 6 4 7
5 4 3 1 17 23 15 23 22 19 8 12 6 5 8 6 4 4 4 1 5 4 6 3 5 4 3 2 2 3 3 8 6 3 5 4 6 6 0 1 5 6 6 7 7
10 2 3 13 17 17 26 16 16 16 19 6 18 13 7 10 5 5 6 7 6 3 6 9 7 4 5 2 5 4 8 6 5 5 6 7 10 6 3 4 2 5 6 7 7

GFSSW_925_spd_057.txt.gz
Wind_Speed
16 15 16 17 16 17 18 17 18 19 20 21 23 24 25 27 30 15 6 1 2 11 10 8 5 5 3 3 2 3 1 2 4 3 4 2 4 2 3 3 1 3 1 10 22
19 17 16 17 18 17 17 18 18 19 20 22 23 23 24 26 22 8 1 3 8 13 9 8 4 5 2 2 2 2 2 6 6 4 5 4 2 4 3 2 1 1 8 16 17
20 20 19 17 18 19 18 18 19 20 20 22 23 23 22 21 5 3 1 3 11 10 6 6 6 3 3 3 5 4 4 3 8 12 4 1 2 4 4 4 5 7 12 10 15
19 19 20 19 18 19 19 19 19 20 20 21 23 23 20 7 2 2 5 4 13 10 7 5 2 3 2 2 3 3 9 8 5 4 5 4 4 5 4 3 5 12 14 12 12
20 19 20 20 20 19 20 19 20 20 21 21 21 21 8 3 8 4 6 5 13 12 7 4 4 3 1 2 4 4 5 5 6 4 3 6 2 4 4 1 9 15 14 12 10
22 20 19 19 20 20 20 20 20 20 20 21 20 16 3 4 3 3 5 11 9 10 5 4 3 3 1 3 3 4 5 5 2 3 3 4 3 1 3 7 10 12 12 8 12
19 22 20 19 19 21 19 21 21 21 21 21 19 9 2 15 5 6 7 5 7 6 3 6 4 2 1 3 2 3 5 2 3 2 2 6 0 2 8 9 10 11 10 12 12
18 18 18 18 17 19 20 21 22 22 25 21 12 3 7 8 8 13 12 11 11 10 8 3 2 2 2 3 4 1 2 3 1 6 3 3 3 3 9 10 10 9 10 10 14
19 17 17 17 17 15 17 20 23 26 20 7 3 2 9 5 8 6 15 7 5 7 5 2 1 1 2 2 2 3 2 2 1 3 4 4 3 6 11 10 9 10 8 8 10
19 17 16 14 17 15 19 19 24 14 0 1 1 2 7 3 2 1 4 11 3 5 4 2 2 1 1 2 4 3 1 2 2 2 3 4 8 7 13 13 12 10 8 10 11
19 17 14 14 13 14 13 8 4 2 4 8 4 4 4 6 3 3 5 9 4 3 3 1 2 6 10 4 2 3 1 2 1 2 4 6 9 8 14 12 13 12 12 12 14
18 18 13 11 11 12 4 1 3 1 8 13 18 13 15 1 4 3 10 6 4 5 3 1 5 7 3 3 3 4 1 2 3 2 4 1 8 4 16 19 18 17 15 16 13
19 18 14 10 9 5 6 9 6 8 4 8 8 7 6 13 9 7 11 5 4 6 6 5 3 4 4 4 5 4 5 4 1 1 1 3 4 2 7 12 14 16 17 15 15
21 17 15 9 4 6 5 3 10 7 3 6 5 6 7 8 5 11 14 5 2 11 8 5 2 5 5 5 6 3 5 5 2 2 2 3 3 4 4 11 13 17 16 18 18
22 18 16 13 0 4 6 13 7 4 4 2 3 7 7 7 7 7 12 3 9 7 6 5 5 4 4 5 6 5 2 2 2 3 1 2 3 3 0 7 16 18 19 19 19
24 19 15 15 14 7 10 10 2 2 8 2 5 6 7 3 2 4 5 4 4 5 1 4 1 3 4 1 4 4 3 5 3 2 1 1 3 3 5 5 3 10 18 19 19
26 22 19 15 6 20 13 3 3 7 4 3 4 5 5 6 3 4 8 7 7 6 5 1 2 2 3 3 2 2 3 0 1 1 3 3 2 7 3 7 8 9 11 17 18
28 23 23 24 17 8 11 2 10 5 6 4 2 4 5 5 3 3 11 11 3 5 4 6 3 6 4 4 5 4 3 4 3 3 1 0 4 3 3 8 7 7 9 8 16
28 24 24 26 24 10 5 9 6 8 3 3 2 4 4 4 4 4 7 14 9 7 7 6 5 1 1 2 2 4 2 1 6 2 0 2 5 8 3 4 3 6 6 4 8
27 18 20 28 24 10 6 19 8 6 0 2 5 5 9 6 5 7 8 5 7 8 5 7 3 1 2 2 3 1 8 3 1 3 3 2 3 4 4 3 4 3 5 7 3
23 6 15 30 21 7 15 15 18 4 3 1 2 2 4 6 7 6 10 2 10 8 4 5 3 1 1 5 8 3 2 3 4 1 2 2 3 6 5 2 4 3 4 5 6
13 9 24 38 13 9 18 18 6 18 1 3 1 3 3 5 5 6 11 7 9 13 10 6 4 4 6 1 1 2 6 5 3 3 0 1 5 3 6 5 6 8 5 4 4
6 5 23 33 14 16 16 22 14 9 12 6 4 2 2 1 3 5 6 4 9 8 11 8 2 2 1 1 2 3 4 4 5 3 7 4 4 3 3 3 4 8 6 4 4
5 6 6 12 14 19 21 20 24 16 4 3 3 1 2 2 2 2 5 3 7 4 5 10 4 6 10 7 4 4 6 7 6 3 5 7 8 9 9 7 7 7 8 9 6
5 5 6 11 21 18 20 18 26 14 19 8 3 6 2 4 2 2 2 3 2 4 4 5 7 6 4 4 5 5 5 12 11 10 8 11 10 10 7 4 4 5 4 7 8
8 5 3 5 24 21 19 21 26 23 11 18 12 9 10 6 2 4 4 1 1 2 2 2 5 5 3 2 7 5 8 7 7 4 9 8 7 11 3 3 2 3 6 8 8
9 6 7 16 18 18 21 21 15 17 16 9 14 3 3 13 3 2 2 4 5 2 5 4 5 4 5 2 5 4 7 9 5 5 6 8 11 6 6 6 5 5 6 7 7

GFSSW_925_spd_060.txt.gz
Wind_Speed
19 17 17 15 14 15 16 18 19 19 21 21 23 25 25 29 31 11 7 2 4 13 11 10 8 8 7 5 4 4 6 6 3 4 2 4 4 2 1 5 3 1 4 8 19
14 18 18 17 16 16 16 18 19 20 21 22 23 24 25 28 19 14 6 5 7 15 11 11 9 10 5 5 5 7 6 2 4 6 8 3 7 4 8 5 5 8 8 15 17
18 19 16 17 17 17 17 17 20 20 21 22 23 24 25 22 8 3 4 6 11 15 6 6 5 9 7 5 7 5 9 4 8 11 11 13 7 5 7 4 4 4 13 14 16
22 20 18 17 17 18 20 17 18 21 21 22 23 24 22 6 5 3 4 6 14 11 8 7 7 8 7 8 4 8 10 10 9 9 9 10 3 3 5 6 7 4 15 11 10
20 22 20 20 19 18 18 19 18 20 21 21 22 22 10 7 8 6 6 8 17 10 11 9 9 6 8 4 5 11 8 5 10 11 8 3 5 1 2 4 7 13 11 11 9
18 18 21 21 19 19 18 19 19 19 22 20 22 19 5 11 2 2 4 12 10 14 9 8 3 1 5 5 8 3 11 10 4 0 2 6 4 3 5 7 10 12 10 9 9
17 17 17 18 21 19 19 19 19 19 23 22 20 8 7 16 4 6 7 6 11 10 7 8 3 6 0 6 3 10 13 4 2 4 3 4 7 5 5 9 10 10 7 7 8
16 16 16 15 17 18 17 19 19 19 23 23 14 3 9 8 6 11 10 9 9 8 4 3 4 5 5 3 8 10 6 11 7 7 4 6 3 4 8 10 11 11 9 8 11
17 15 15 15 15 15 18 16 17 20 23 10 1 5 9 4 7 11 17 10 11 8 7 3 5 4 4 10 9 10 10 6 6 7 4 9 4 7 8 10 11 12 13 11 13
19 16 15 13 14 14 16 16 18 17 2 2 3 5 9 3 4 5 16 15 5 10 7 7 7 8 8 9 8 8 8 8 4 8 8 9 10 6 9 10 11 11 12 12 13
20 17 15 13 12 11 12 8 7 5 7 9 2 5 4 4 4 9 9 13 12 10 11 9 9 10 5 5 6 4 6 5 3 3 6 9 10 6 10 11 13 14 13 14 14
21 18 14 13 11 8 8 6 2 3 10 17 20 22 24 8 4 9 12 14 13 15 8 7 12 6 3 5 7 8 9 6 3 4 5 6 11 2 9 14 13 14 13 14 14
21 19 14 13 11 7 8 10 4 3 7 8 15 12 12 17 11 13 14 16 17 17 14 13 3 2 9 9 9 8 9 3 3 2 8 10 11 6 5 10 11 13 14 16 16
23 19 15 12 6 7 9 7 6 6 5 5 8 7 11 9 10 22 20 15 9 19 14 11 9 7 9 10 10 10 7 6 6 7 7 3 3 5 7 9 13 15 17 16 17
24 21 17 18 3 6 5 3 7 6 6 7 4 6 7 17 10 17 24 12 20 13 10 11 10 11 13 13 8 6 4 6 8 8 5 7 6 6 5 8 12 16 17 18 17
25 24 19 16 15 8 8 5 4 5 9 4 6 7 8 15 7 14 13 9 14 12 10 9 3 5 5 3 8 4 7 4 4 3 7 3 6 4 5 4 2 8 16 18 18
28 26 23 19 15 14 8 3 5 9 2 7 5 8 12 12 11 17 22 21 17 18 15 14 13 5 5 8 7 10 9 6 5 5 4 4 5 8 2 3 6 7 7 10 17
29 26 26 24 21 8 12 4 14 7 11 1 3 7 9 16 9 20 21 21 22 19 15 15 14 14 11 11 8 15 11 4 5 4 4 4 5 3 2 5 7 6 6 7 11
28 27 25 29 24 11 7 13 11 13 7 6 6 6 7 14 7 16 21 23 22 21 11 16 13 5 8 4 7 7 8 1 2 1 2 4 4 11 2 4 3 2 2 2 5
27 21 23 29 23 16 10 23 16 9 6 7 10 10 11 12 10 15 20 20 24 21 17 8 11 5 7 6 4 6 10 5 4 4 5 4 4 4 2 4 3 2 5 5 2
24 6 18 29 21 6 16 20 24 14 8 5 10 5 6 12 17 17 16 6 23 20 18 11 7 7 6 11 12 6 6 2 1 3 3 3 4 0 2 1 1 1 3 3 3
13 8 27 40 10 6 19 31 13 21 11 6 3 4 5 8 14 17 17 17 21 22 22 16 8 8 13 4 3 6 9 11 5 5 3 3 6 8 8 6 5 5 4 4 4
7 3 29 31 14 15 22 28 28 18 22 8 7 5 2 4 7 17 11 10 12 22 21 14 10 9 9 6 5 8 10 11 6 2 11 6 4 6 5 6 7 7 3 3 4
6 6 5 12 20 29 20 23 30 24 17 18 5 7 3 3 6 5 8 3 11 20 5 18 13 19 13 12 9 12 14 15 13 7 10 11 15 12 13 12 9 7 5 4 4
7 8 11 17 19 27 29 21 30 20 25 15 17 11 11 4 2 4 3 5 5 4 8 13 18 16 15 13 13 16 15 15 17 17 15 12 12 10 12 11 6 2 2 3 2
5 12 14 15 28 33 26 25 30 31 23 23 15 19 10 3 2 4 2 2 2 4 7 6 11 12 16 14 13 16 16 17 17 17 12 16 14 12 11 5 6 3 3 4 6
12 14 13 14 25 22 23 27 26 28 22 24 18 9 12 14 8 7 5 6 4 2 6 6 8 6 12 6 6 7 15 16 15 14 15 15 14 11 9 10 7 5 5 7 9

GFSSW_925_spd_063.txt.gz
Wind_Speed
14 11 13 15 15 16 18 18 20 22 22 24 24 25 28 30 32 17 13 3 6 9 10 9 10 13 11 12 10 10 11 12 4 6 4 8 1 8 1 11 4 6 11 12 19
17 15 14 12 14 14 16 19 20 21 23 24 25 25 26 30 25 21 11 11 8 14 10 12 11 11 11 10 7 11 12 9 8 9 8 11 9 5 6 15 13 7 5 14 15
18 17 17 17 16 14 17 20 21 22 23 24 25 26 26 25 14 4 8 8 8 16 12 11 10 11 14 10 11 12 13 8 5 6 11 12 6 9 13 4 17 2 11 9 10
19 19 18 18 18 17 15 17 19 21 22 24 25 26 26 10 6 5 6 5 9 13 11 11 12 13 14 12 11 9 13 11 10 7 10 12 11 8 11 14 6 13 15 9 10
18 19 20 19 19 18 18 17 18 20 21 23 24 26 14 8 14 1 8 8 12 12 14 12 13 13 14 8 7 11 13 10 9 12 10 8 11 7 2 8 16 13 12 8 7
19 19 18 18 19 18 18 19 20 19 20 21 23 23 13 14 5 4 4 9 14 16 15 14 12 10 10 10 10 7 9 14 12 13 7 11 11 8 11 13 14 13 11 9 8
18 18 19 17 17 17 19 20 19 19 19 20 22 14 14 21 9 7 7 11 14 16 13 13 10 9 5 10 12 11 14 18 12 13 13 9 15 22 13 12 15 14 13 11 10
18 19 18 18 16 16 17 17 17 17 19 19 19 11 10 15 11 15 13 13 11 13 11 8 9 12 10 11 11 15 16 17 8 10 8 9 3 25 11 13 13 12 11 12 10
20 18 18 18 17 16 17 17 16 19 19 15 6 7 14 6 15 20 18 18 15 12 11 6 11 14 11 12 14 16 16 8 12 12 6 11 8 24 11 9 12 11 12 11 10
21 20 18 18 17 16 17 17 14 19 9 8 11 7 12 10 8 12 21 20 17 12 12 12 9 13 13 13 13 11 14 14 8 8 8 13 16 13 6 10 11 11 12 12 13
22 20 19 16 17 15 13 12 7 7 18 10 5 14 4 7 6 12 20 21 17 15 17 18 13 15 17 11 12 11 11 9 8 5 7 8 19 9 12 8 9 11 13 12 13
23 21 19 16 16 15 9 6 6 6 11 19 24 22 27 6 6 14 22 18 18 20 19 13 16 17 5 4 7 11 13 12 3 3 6 6 18 5 8 9 11 13 13 15 15
24 22 18 15 15 16 15 14 6 7 8 14 22 26 24 22 17 17 21 23 21 21 20 17 13 10 6 10 9 11 14 2 2 17 13 14 17 9 8 11 12 11 11 12 16
24 21 17 11 11 17 17 13 12 4 7 12 8 9 20 16 14 29 27 23 14 22 21 19 12 8 12 13 11 13 11 8 10 10 8 15 3 18 13 13 13 14 14 17 17
25 21 19 18 9 8 4 11 9 4 7 6 10 6 8 20 8 23 26 22 24 20 16 17 17 13 14 13 11 14 5 7 11 12 15 14 7 10 12 10 14 17 18 18 19
24 21 20 17 18 20 4 7 12 7 15 8 8 10 13 21 19 6 28 23 19 19 19 20 13 16 19 15 7 6 7 10 11 11 11 7 12 6 10 11 7 15 16 18 18
26 24 23 20 17 20 17 6 7 13 3 13 8 11 15 13 20 15 29 26 22 21 22 20 14 14 7 10 9 11 13 9 8 3 8 10 6 7 13 4 1 2 7 16 18
27 24 27 26 21 13 15 8 16 16 30 5 4 11 13 12 17 20 22 24 25 27 14 18 20 21 14 16 12 16 16 7 8 6 2 6 6 4 7 3 1 3 5 6 9
27 23 26 30 25 19 4 14 22 27 13 28 7 12 12 12 11 20 25 26 27 25 18 18 21 22 15 14 14 12 15 9 7 2 3 6 7 6 6 4 3 1 4 5 5
28 24 29 30 28 13 6 22 24 24 25 17 22 14 12 15 12 16 22 25 26 28 24 10 15 11 14 8 11 8 10 8 7 4 8 6 8 5 7 4 6 5 5 5 4
27 7 18 27 26 6 9 24 33 23 12 17 18 20 13 13 18 18 17 11 28 28 22 12 14 13 12 16 15 12 10 9 4 7 5 5 4 4 3 6 4 1 2 3 4
15 10 20 34 11 12 19 26 31 33 18 15 11 19 11 13 17 9 22 22 16 21 25 21 12 12 17 16 20 13 18 17 9 11 7 8 11 4 6 8 6 7 3 3 2
7 5 24 37 14 17 31 33 28 30 26 20 14 11 12 9 10 18 9 10 8 24 24 19 11 13 16 10 9 12 13 13 14 11 11 8 7 2 2 3 6 7 6 6 7
6 7 6 14 21 31 31 27 30 30 29 21 16 8 9 10 10 6 16 8 6 14 14 18 15 17 15 16 15 18 17 18 16 9 12 14 16 10 9 15 11 11 6 7 7
8 8 10 14 25 30 29 27 33 32 32 22 21 18 12 8 10 11 10 6 5 6 7 19 21 19 20 17 13 16 20 20 20 19 17 15 17 13 6 9 8 7 4 5 5
8 12 13 10 25 32 27 32 34 31 30 30 22 22 17 10 7 9 6 7 8 11 14 19 16 21 19 19 18 13 16 18 19 18 17 19 19 13 8 11 6 5 4 7 4
15 21 14 16 28 23 25 31 31 30 31 28 28 18 20 10 4 3 6 3 5 3 14 16 14 16 17 19 19 18 18 18 18 17 15 17 16 16 12 10 8 9 7 7 6

GFSSW_925_spd_066.txt.gz
Wind_Speed
18 16 15 14 14 15 16 17 18 21 23 25 27 28 30 32 37 25 16 11 10 6 9 9 13 15 15 15 18 12 11 14 13 11 10 9 8 10 4 7 17 19 14 10 17
16 17 17 16 16 16 17 19 19 21 24 23 26 30 31 34 32 26 19 12 10 9 9 13 11 13 11 17 12 10 12 19 10 10 12 8 14 5 4 14 10 23 4 12 15
19 19 18 19 18 17 17 18 19 20 23 24 24 28 31 30 15 4 7 7 10 11 15 16 15 13 13 17 13 14 14 17 15 7 10 15 16 7 10 5 7 9 8 11 13
16 18 19 20 21 20 19 19 20 20 23 24 24 26 29 12 7 4 4 5 7 10 13 15 11 13 14 18 16 15 12 15 16 13 11 12 13 16 4 4 13 15 12 11 11
17 18 18 19 20 21 21 20 21 20 22 24 24 23 18 9 15 5 5 9 8 10 15 13 14 15 15 19 15 12 14 13 18 11 14 12 10 15 10 18 14 15 11 13 9
19 18 18 18 19 19 19 20 20 19 22 22 22 22 13 20 15 10 7 10 13 16 15 16 14 14 17 17 18 15 14 14 16 19 11 12 5 5 18 27 13 11 11 11 10
20 20 18 19 20 19 20 21 21 20 20 20 19 16 16 25 16 16 9 14 16 17 14 19 18 16 13 16 15 16 17 17 18 17 12 14 10 3 7 15 7 11 9 9 8
19 20 20 18 20 22 20 22 21 18 20 17 18 13 12 16 16 21 21 18 17 17 17 19 14 11 16 16 18 17 17 16 14 6 13 12 7 5 9 4 11 11 11 11 13
21 20 20 19 19 22 23 22 22 19 20 17 11 10 15 12 21 23 19 20 17 16 14 15 10 13 15 16 14 16 15 19 16 10 14 8 2 8 16 11 16 12 12 10 16
22 20 20 20 20 22 24 22 17 17 12 11 14 11 15 13 12 16 20 20 16 12 13 12 8 13 14 13 15 16 11 20 12 9 12 11 15 13 12 21 24 14 13 11 17
25 20 19 19 19 18 22 14 6 7 13 11 11 8 18 8 8 9 16 20 19 18 16 17 13 16 19 20 22 16 13 15 4 4 4 9 9 16 19 21 17 15 15 16 13
21 23 18 17 19 17 16 8 8 7 11 20 24 24 31 26 9 15 18 16 20 21 19 16 19 19 21 21 7 12 14 15 2 2 3 11 7 21 17 13 11 14 15 15 15
21 20 20 16 17 17 20 25 18 14 9 18 25 24 29 28 24 17 21 22 22 21 21 20 20 20 21 11 9 13 14 3 18 4 13 13 13 9 2 11 8 13 14 18 16
23 20 17 13 12 19 19 19 21 15 7 14 14 8 27 23 24 29 24 21 16 23 23 24 23 13 16 10 13 14 10 11 11 10 7 6 9 11 11 11 13 11 12 13 16
26 21 17 19 11 9 4 4 12 5 6 6 11 4 8 21 6 24 34 23 25 22 17 21 20 19 14 15 15 13 6 11 10 12 14 10 5 11 13 15 14 14 12 14 11
27 22 18 18 21 24 20 20 5 7 11 6 9 8 12 22 26 14 26 23 21 24 20 21 16 19 18 15 13 10 9 9 12 11 11 14 6 9 5 10 11 18 17 15 18
28 25 21 19 16 19 15 10 7 11 10 12 14 11 16 18 25 21 27 25 23 22 20 18 22 17 15 16 18 9 10 7 6 8 8 6 9 7 12 12 14 8 19 19 16
29 27 22 24 21 19 4 5 15 21 29 5 19 16 17 17 19 24 21 23 24 21 14 16 16 24 13 17 14 14 14 8 6 3 4 12 6 5 10 10 5 1 2 9 16
28 29 24 24 24 19 3 14 15 27 24 28 9 11 15 17 11 21 25 22 24 24 21 19 21 20 16 15 18 14 13 16 9 9 5 5 14 6 9 5 8 4 2 7 6
29 22 26 26 26 16 5 17 27 29 31 21 28 13 13 17 16 17 22 19 22 24 18 16 13 22 21 17 18 16 9 10 6 4 6 6 7 3 8 6 8 8 6 6 2
26 6 17 29 25 6 11 28 34 24 31 23 25 20 24 16 17 17 13 16 19 17 26 25 15 15 17 16 18 11 11 11 13 7 1 4 2 2 7 6 7 6 7 5 5
12 9 24 38 11 8 24 25 30 28 29 27 24 25 18 20 13 19 21 16 15 21 23 25 9 10 16 17 16 17 17 15 6 8 5 2 5 4 11 5 8 7 6 4 4
6 5 24 32 13 19 23 33 26 30 25 24 28 21 14 19 14 15 14 10 2 19 20 20 16 10 15 16 16 19 14 14 13 11 11 8 4 2 2 3 1 3 7 9 7
6 6 5 14 18 27 25 27 28 31 31 24 23 22 19 16 12 8 17 5 5 7 22 16 17 15 11 15 14 14 16 19 18 7 7 9 11 16 3 9 10 11 12 7 9
7 9 11 15 23 29 25 14 27 30 29 23 22 20 23 15 15 15 10 10 3 3 5 4 16 17 17 19 20 21 18 19 19 13 15 12 15 15 12 7 6 4 8 4 3
6 8 15 10 19 26 25 28 25 30 29 34 26 18 17 17 16 19 18 9 5 7 9 6 12 17 16 19 19 14 19 22 20 19 16 17 17 15 12 8 8 6 8 4 5
10 20 12 17 22 17 26 30 31 23 27 30 29 19 12 21 5 9 7 4 3 3 10 9 7 12 15 17 18 17 17 14 14 15 15 15 11 11 12 10 7 6 7 6 9

GFSSW_925_spd_069.txt.gz
Wind_Speed
16 16 15 15 15 15 17 18 20 22 22 25 28 30 30 33 38 26 7 10 7 7 7 2 7 12 15 6 8 3 3 8 14 15 3 2 2 3 5 8 4 2 1 9 15
17 17 17 17 17 18 18 18 18 20 22 23 28 29 29 32 35 18 12 9 12 9 9 10 9 14 4 7 5 1 4 11 17 10 6 0 6 5 5 4 5 11 12 10 19
16 16 17 17 18 20 20 20 20 20 21 22 26 28 28 30 7 4 2 7 13 10 13 10 16 7 6 6 9 8 10 16 12 11 6 5 7 13 7 11 16 4 15 11 13
16 16 19 20 18 19 21 21 22 22 21 20 25 27 27 13 5 2 1 4 7 8 8 6 6 5 5 9 14 5 15 9 8 9 5 5 2 8 14 8 18 5 7 5 11
17 17 17 19 21 20 21 21 21 22 21 20 21 23 16 5 11 24 10 7 8 7 10 7 8 6 9 7 9 9 11 8 10 10 8 7 6 8 6 11 16 4 4 6 8
19 19 18 17 19 22 22 23 23 22 21 20 19 19 4 13 14 14 20 10 11 11 9 14 7 9 11 11 7 11 13 9 8 9 9 8 6 6 7 5 15 15 7 7 8
19 19 18 18 19 21 25 25 25 24 21 18 15 13 9 25 15 15 17 16 16 16 10 19 23 8 7 10 9 11 12 10 8 11 10 8 3 6 5 10 11 12 11 11 12
20 18 18 20 20 21 25 28 28 26 22 19 14 9 9 22 18 25 22 22 20 19 24 23 21 9 4 6 9 8 9 6 12 11 12 9 3 6 11 11 8 14 9 9 11
21 21 18 19 20 22 25 31 32 27 19 16 11 7 10 15 12 23 29 17 21 22 21 17 13 5 4 5 6 5 10 13 19 17 6 6 3 10 9 9 8 10 12 12 9
21 20 20 18 19 21 25 33 24 21 12 7 11 6 9 5 8 16 19 24 9 7 6 5 3 4 3 2 9 8 9 11 7 1 6 3 7 5 8 9 7 3 5 10 13
22 19 19 19 17 18 22 15 3 1 6 10 11 7 11 11 24 6 18 13 6 5 10 6 4 13 13 13 17 16 18 8 5 5 7 6 6 9 9 11 10 12 10 15 15
24 21 19 17 17 14 15 4 11 8 11 18 21 21 29 20 9 17 12 10 8 14 10 8 18 15 16 16 17 18 12 9 2 7 2 5 5 10 10 6 12 18 16 18 14
24 22 19 16 13 19 17 26 26 27 6 11 21 18 20 21 15 22 8 10 11 12 16 15 12 18 19 18 18 12 5 7 6 5 7 4 7 5 9 7 13 18 21 18 25
22 24 19 12 8 19 10 12 19 21 5 8 9 10 16 10 10 26 20 12 8 16 17 14 19 19 19 20 14 5 10 10 4 4 3 5 5 3 6 13 14 20 19 18 24
24 21 20 14 8 9 1 21 24 6 4 7 6 11 9 18 7 10 34 9 18 18 12 14 16 22 21 19 11 9 5 1 5 5 4 4 2 5 9 10 8 11 20 18 24
25 22 20 16 19 28 25 24 18 4 10 7 6 8 8 21 8 5 13 14 3 14 10 19 13 15 20 8 7 8 2 3 3 1 4 4 4 7 5 9 13 7 19 18 21
24 25 22 19 11 16 14 4 5 6 7 9 5 9 9 9 17 9 11 13 11 14 18 18 19 21 12 9 8 6 2 2 4 2 5 5 6 9 10 7 9 14 18 18 18
25 25 25 22 25 18 10 2 12 16 26 8 2 13 9 8 16 15 9 15 16 10 5 13 14 18 8 13 7 6 8 5 5 3 3 6 5 6 8 7 5 10 19 18 18
25 26 24 25 25 18 3 8 16 14 15 21 17 9 9 11 6 14 15 14 18 18 13 11 11 2 12 6 9 5 6 7 6 2 4 4 7 6 4 5 6 6 10 14 14
28 18 23 29 23 15 8 26 15 23 16 11 7 11 4 10 9 13 9 10 14 21 21 4 6 13 21 8 9 7 4 3 3 4 3 8 7 2 4 8 7 6 5 6 8
24 4 14 32 25 7 19 21 18 18 19 9 12 14 19 17 11 7 7 10 15 17 19 16 7 11 9 13 14 5 9 4 6 6 5 2 4 4 7 6 7 8 8 8 7
11 6 25 36 11 10 22 26 13 14 14 17 16 20 18 18 15 15 11 9 10 7 21 17 3 12 17 18 18 14 10 8 4 5 4 5 5 6 10 5 9 9 9 9 9
6 4 25 34 14 20 18 24 24 18 19 11 12 10 15 16 9 3 10 7 9 11 11 8 5 7 11 15 16 17 7 10 8 4 6 6 5 6 9 3 7 8 8 9 9
6 6 5 14 15 19 20 20 20 18 20 22 16 18 21 15 14 6 7 1 4 8 17 10 9 16 14 10 6 4 7 9 8 4 4 6 6 7 6 5 4 7 8 9 9
6 6 8 15 24 20 19 11 23 18 24 11 11 21 18 13 6 3 4 6 7 5 6 9 15 17 16 17 18 19 14 15 16 11 7 5 8 8 8 10 8 5 9 8 8
5 5 8 1 14 22 20 24 22 24 14 28 22 17 12 14 7 5 8 5 7 7 7 8 6 10 16 14 18 14 15 14 12 8 5 16 13 12 10 5 7 9 10 9 9
9 17 10 16 15 16 28 27 21 16 22 19 19 15 17 17 6 1 2 10 6 6 10 6 5 6 12 14 15 6 18 13 14 11 10 9 9 6 7 6 6 8 10 10 9

GFSSW_925_spd_072.txt.gz
Wind_Speed
14 15 14 15 17 17 17 18 18 18 22 23 25 28 31 33 34 33 8 7 3 6 5 4 5 8 4 3 3 4 2 5 7 5 8 9 4 7 3 7 4 5 3 4 4
15 16 16 16 17 18 18 20 21 20 21 23 24 26 31 31 33 20 13 7 8 7 8 8 3 3 3 3 1 4 3 8 7 8 8 3 1 1 5 3 3 3 2 2 3
15 15 17 18 19 20 20 20 20 21 22 22 23 23 28 27 7 7 1 3 8 10 8 4 5 2 5 2 5 4 7 11 18 16 9 5 4 4 10 2 8 7 9 7 6
15 15 17 18 19 20 21 21 21 21 21 21 21 21 25 11 7 1 2 1 8 10 8 4 3 3 4 5 3 2 8 10 16 18 7 3 6 2 0 9 9 13 17 13 9
16 16 18 18 19 19 21 23 24 22 22 20 19 18 11 4 12 20 11 14 9 9 8 6 4 3 4 4 6 6 10 9 8 11 6 5 4 6 4 6 1 8 11 13 8
16 16 18 18 19 20 21 24 25 24 23 20 16 14 5 9 11 9 10 15 14 12 6 8 6 6 5 6 3 5 7 9 8 10 5 4 4 2 9 8 8 12 8 8 12
18 17 16 18 19 21 23 25 27 28 25 20 14 10 9 23 10 13 17 14 16 14 6 13 17 3 2 8 8 4 9 9 10 5 7 8 3 6 0 7 10 7 8 9 11
17 18 19 18 18 22 24 28 31 31 27 17 10 5 9 19 24 29 25 23 26 25 22 18 16 6 5 6 7 6 4 4 7 4 12 8 13 5 7 9 8 8 8 8 9
18 18 19 19 20 19 24 30 36 32 24 9 4 6 11 12 10 16 18 12 8 15 18 18 8 7 4 2 4 2 5 6 10 11 9 7 6 5 9 9 9 10 9 8 9
19 19 18 19 19 19 23 33 33 15 4 3 6 2 10 6 4 9 13 18 8 5 4 6 4 5 2 4 8 6 4 5 7 12 4 1 4 9 11 7 10 7 6 7 9
19 19 18 18 18 15 21 16 6 2 1 9 9 6 10 4 16 10 5 11 4 4 9 3 3 14 13 10 6 5 6 8 13 21 5 7 6 15 8 10 8 8 8 9 11
19 19 17 16 15 13 14 3 4 4 10 15 21 23 34 19 9 21 6 7 7 10 7 4 18 16 7 7 10 11 12 15 15 14 3 4 5 8 12 12 14 15 9 8 9
19 17 16 14 14 13 15 14 15 18 5 9 14 13 15 19 18 21 5 6 8 8 9 15 6 17 14 13 13 15 13 13 15 5 5 2 3 3 11 5 8 13 9 6 14
19 17 14 10 9 8 5 8 16 9 4 7 8 9 14 9 9 31 19 8 7 17 11 9 21 12 10 14 13 12 12 14 6 2 4 3 5 5 5 10 11 16 13 12 15
18 17 13 13 5 3 3 17 27 4 4 4 5 5 10 12 6 9 28 7 11 11 10 9 10 15 16 19 13 12 13 9 6 4 1 4 2 6 4 8 12 15 17 17 18
18 17 14 13 17 21 21 23 9 2 10 6 5 6 8 13 3 3 6 3 4 9 8 13 9 10 15 14 14 16 7 1 5 2 3 3 5 5 5 6 5 16 19 20 20
19 18 18 16 7 8 4 5 3 7 4 5 4 3 5 8 7 1 6 18 10 10 18 9 18 12 7 7 10 14 5 1 3 3 6 1 3 8 9 8 10 20 20 22 22
20 19 21 22 21 15 8 4 12 13 19 11 3 11 5 5 6 5 4 9 16 3 8 11 6 13 9 18 7 8 8 5 5 4 4 4 6 6 7 14 8 15 23 24 23
20 22 22 25 23 14 4 11 10 13 4 15 25 15 6 4 4 9 9 5 12 18 6 10 9 6 11 13 12 5 5 8 7 2 2 4 7 9 3 2 5 8 17 22 23
23 16 18 27 23 14 7 23 11 4 7 8 4 5 6 9 11 6 8 8 9 17 11 3 2 13 9 2 5 8 7 4 1 5 3 5 5 5 1 3 3 6 11 16 20
23 4 16 27 22 5 17 13 22 17 7 6 8 6 6 4 5 8 8 6 16 11 17 10 2 5 2 7 6 1 3 3 5 6 4 3 5 6 7 7 8 8 9 12 15
11 6 25 35 9 6 18 11 12 15 12 15 8 11 10 7 7 10 10 8 8 14 17 12 5 6 9 5 5 7 11 9 5 5 5 3 5 3 9 7 7 8 9 9 11
5 4 23 31 14 17 12 21 22 18 13 6 7 10 8 4 1 9 14 11 16 8 12 8 6 3 4 9 7 8 9 9 6 5 8 8 5 4 7 4 5 9 8 8 9
5 6 4 11 5 19 16 18 20 19 24 21 14 12 8 7 9 8 8 8 15 6 9 15 6 17 14 7 2 5 9 14 10 5 6 6 5 13 7 8 6 9 9 9 9
4 6 6 9 18 14 20 11 23 16 16 10 13 20 13 6 5 5 5 5 12 8 3 7 6 8 9 11 9 14 15 8 12 8 9 11 11 14 9 8 10 9 8 7 8
6 5 4 3 15 24 20 19 18 22 16 17 18 7 18 19 11 12 5 3 2 12 7 4 1 5 9 13 10 17 18 11 10 7 9 8 11 9 11 6 7 8 10 9 12
11 7 5 11 13 18 30 24 18 13 18 28 15 19 19 15 7 5 4 3 3 5 6 3 1 5 6 13 6 10 17 16 10 8 6 7 10 8 10 10 10 10 10 10 10

GFSSW_925_spd_075.txt.gz
Wind_Speed
15 15 15 16 16 17 18 19 20 20 21 23 24 26 28 31 32 27 8 9 4 5 9 8 7 5 2 2 3 4 3 3 5 2 7 4 3 4 2 3 2 3 2 9 13
14 15 14 16 18 18 19 20 21 21 20 22 24 25 26 29 30 19 24 14 9 6 9 7 4 6 2 1 2 4 4 7 7 6 11 11 2 5 3 2 4 4 4 12 13
16 15 16 17 18 19 19 21 22 22 22 22 23 23 24 25 6 7 5 4 8 11 6 5 7 4 2 3 4 5 6 4 12 11 6 8 4 5 6 6 7 7 5 8 10
17 17 18 19 19 17 18 20 21 24 23 22 21 21 20 8 5 2 4 5 4 9 8 4 3 4 3 4 4 2 8 5 9 7 2 4 5 6 7 4 3 5 7 12 10
15 18 16 19 20 18 19 21 22 24 24 23 20 17 10 4 11 11 8 10 10 9 9 5 5 5 5 3 1 4 6 6 8 11 7 5 5 7 7 2 4 5 5 7 9
17 17 17 17 18 19 21 23 25 24 24 24 18 14 3 6 6 6 4 6 9 12 6 7 6 6 3 4 5 4 5 9 7 10 4 7 4 1 7 7 2 7 10 8 10
16 16 19 19 20 19 20 25 27 27 25 24 16 8 8 21 8 8 10 15 8 9 3 8 8 3 2 3 3 4 8 7 6 5 6 8 2 9 4 8 7 9 7 10 8
17 17 19 20 19 21 23 26 28 30 29 23 12 5 9 16 20 27 24 21 21 17 18 17 12 4 4 3 6 4 1 3 3 3 5 6 9 8 8 9 9 9 7 9 9
18 18 18 19 20 21 23 28 33 35 29 13 4 5 11 11 11 12 16 8 10 10 16 16 5 7 2 3 3 2 4 6 10 4 3 3 10 5 7 7 7 8 8 9 8
17 19 19 17 19 22 26 29 28 10 3 8 4 2 10 5 5 8 9 10 3 7 3 6 4 3 3 4 7 6 5 5 6 6 6 5 12 4 5 7 7 7 8 8 10
17 16 17 15 16 19 25 13 6 3 3 7 7 6 7 7 9 4 6 5 4 4 9 5 4 16 15 9 3 4 3 5 8 15 3 10 6 10 5 6 8 8 8 8 10
20 17 15 13 13 17 16 1 2 2 11 14 19 21 34 17 10 16 4 6 5 7 8 3 12 14 6 8 9 6 5 10 11 18 4 9 9 6 7 9 11 10 9 8 8
19 17 14 11 12 14 6 6 9 9 6 9 11 11 14 16 14 22 5 3 6 8 12 14 7 10 15 7 8 8 10 8 11 7 5 5 5 4 4 5 6 8 5 7 13
20 17 13 7 8 4 3 4 18 7 4 6 7 8 8 9 8 28 17 9 6 15 6 8 10 7 6 10 11 11 11 13 9 3 5 3 5 4 6 10 7 10 9 9 11
18 16 14 12 4 2 1 9 21 3 5 3 3 3 8 12 1 5 16 6 12 7 8 8 9 18 17 14 9 12 7 9 9 6 3 1 1 7 2 6 11 17 14 12 14
19 17 14 11 18 15 12 14 5 1 9 6 3 4 7 5 5 4 4 2 6 5 6 8 4 9 11 19 13 6 4 4 1 3 3 5 5 5 6 9 9 10 15 13 14
20 18 18 14 5 10 3 3 2 6 5 3 3 4 3 3 5 2 6 14 7 12 16 4 11 3 3 7 7 5 3 3 2 1 5 3 3 8 8 8 9 10 13 13 12
20 19 21 23 18 9 2 1 11 5 9 4 7 17 5 2 5 4 6 8 11 4 5 12 5 15 8 16 6 8 9 5 5 4 4 0 5 6 7 6 9 12 13 13 12
19 21 19 24 23 15 3 9 7 4 4 4 7 3 3 3 3 4 6 6 12 9 7 6 7 5 9 7 17 5 5 10 6 3 2 4 7 8 8 8 6 10 8 9 12
20 13 15 25 26 15 4 17 9 1 6 5 2 2 3 5 6 10 3 3 5 18 2 3 3 8 4 8 11 10 8 4 1 5 4 3 5 7 8 8 6 6 10 12 12
20 4 16 32 26 6 12 11 14 13 4 3 2 4 3 4 1 2 6 9 2 3 15 9 2 6 6 6 8 4 4 2 4 4 6 1 6 7 10 9 8 8 9 12 13
8 5 28 38 7 4 14 12 12 12 11 12 4 8 9 5 4 4 8 4 14 5 6 9 6 10 10 3 3 5 6 6 5 3 1 5 7 4 8 6 3 7 9 10 13
4 3 22 29 10 12 12 15 16 12 11 3 4 9 5 4 4 7 6 5 11 7 5 6 6 1 5 5 5 5 5 4 4 3 8 6 6 2 5 4 6 7 7 8 12
3 5 4 7 4 19 17 10 20 11 16 7 6 4 7 4 4 5 8 5 5 13 17 6 5 15 17 3 5 4 1 1 6 6 5 7 10 6 11 6 8 8 8 7 8
4 5 5 8 16 13 21 11 17 17 15 14 12 18 11 6 8 7 10 7 9 13 7 4 9 5 12 13 5 3 3 1 5 13 13 11 16 12 10 10 8 8 7 7 9
5 4 4 2 14 21 17 20 19 19 15 15 10 6 13 22 20 8 6 4 3 6 6 7 5 3 8 10 12 16 10 7 5 9 5 4 9 7 12 6 5 9 8 8 10
13 6 4 10 13 16 25 19 21 16 12 18 14 16 14 14 14 15 11 12 7 4 2 4 5 3 4 5 4 8 9 17 6 6 6 5 7 6 8 10 9 10 9 10 12

GFSSW_925_spd_078.txt.gz
Wind_Speed
13 14 14 15 18 19 19 21 21 23 24 24 24 25 26 28 33 23 8 12 3 6 11 10 8 7 3 2 2 4 4 3 5 6 6 4 2 1 1 2 1 3 0 2 9
14 15 16 16 16 19 20 19 21 23 23 24 24 25 24 25 24 15 14 14 8 11 12 12 5 7 2 2 1 3 4 8 7 5 5 7 4 4 3 2 5 3 4 7 9
18 16 17 17 20 20 20 20 19 23 23 25 24 24 24 21 6 6 9 3 12 11 6 6 8 5 4 3 4 5 6 5 6 9 5 5 4 5 6 5 10 6 12 10 6
14 17 17 17 16 19 21 22 21 22 26 23 24 22 20 8 5 2 8 10 4 12 6 5 3 4 5 5 5 3 7 5 6 5 3 4 3 4 8 9 1 6 15 12 10
16 18 17 18 18 19 20 22 23 23 24 24 22 19 9 4 10 6 8 4 3 6 6 5 5 5 5 4 4 5 5 6 8 9 7 4 8 5 9 6 6 8 12 11 9
16 16 18 19 19 20 24 27 26 23 23 25 20 16 1 4 6 6 3 2 4 9 7 7 6 7 4 4 6 4 4 8 7 9 5 5 1 2 10 9 8 8 9 10 10
18 18 18 18 21 22 23 27 30 28 23 24 21 9 6 18 6 8 10 11 7 3 2 7 3 3 1 2 3 4 7 8 6 5 7 6 5 8 9 10 10 9 10 9 10
18 18 19 19 22 23 24 29 32 31 28 24 16 6 9 16 17 26 25 23 20 22 18 8 2 2 4 3 4 2 1 3 2 5 2 6 9 13 7 11 9 11 10 9 12
18 17 17 19 21 24 26 31 36 30 22 11 7 5 11 8 7 10 13 9 7 17 14 3 5 5 2 4 3 2 5 5 9 5 3 5 10 7 4 6 8 9 9 11 11
17 19 17 17 20 22 28 35 17 7 9 10 4 3 9 4 3 6 4 5 2 6 5 5 3 4 2 4 7 5 5 5 7 2 2 3 11 11 4 6 7 8 8 9 12
18 19 18 16 18 18 26 14 6 3 3 6 4 5 5 9 5 5 4 2 1 3 7 6 4 9 17 9 5 4 4 4 5 4 4 8 7 16 3 5 8 8 9 10 12
18 17 16 15 17 14 16 3 3 7 12 14 18 20 36 8 5 5 3 5 4 6 6 2 11 19 8 10 8 6 4 11 12 11 8 8 12 11 4 6 7 9 8 9 7
19 17 16 13 13 12 4 4 6 9 6 8 8 9 10 15 11 14 4 5 6 6 8 15 4 11 11 7 10 13 13 10 10 7 4 5 7 7 3 5 4 7 7 8 13
18 17 13 10 8 4 4 3 13 1 4 7 4 6 5 7 6 16 17 8 5 10 7 9 13 5 12 13 12 7 11 10 7 2 4 2 5 7 6 7 5 7 9 11 13
18 16 12 10 2 2 2 7 18 0 5 0 3 3 4 7 3 1 12 4 17 8 7 8 6 16 7 8 9 11 9 10 6 6 1 5 2 7 2 6 9 8 11 12 14
20 17 13 10 16 16 12 14 5 1 8 5 2 3 0 4 5 3 1 1 6 6 4 6 2 8 9 9 13 1 4 4 1 2 4 9 6 5 5 7 6 6 7 11 14
22 17 16 15 3 6 4 2 1 5 6 4 3 3 6 2 3 3 4 9 5 6 13 3 5 2 3 4 8 6 4 2 1 1 6 6 4 10 7 9 8 10 10 9 14
23 18 19 21 18 5 3 2 10 4 6 3 4 6 2 3 1 4 4 4 7 2 2 12 7 11 6 8 7 11 10 5 6 5 4 2 6 6 8 7 8 9 10 7 10
22 21 19 21 20 12 3 7 6 4 5 5 6 2 4 3 2 7 2 5 6 8 7 6 6 6 8 8 12 6 13 8 5 2 2 4 6 8 8 7 7 9 6 8 11
21 12 15 24 26 14 4 13 7 3 4 5 3 4 4 6 6 5 4 2 4 6 6 4 3 6 4 5 13 8 7 4 1 5 4 4 4 6 8 12 9 8 8 8 8
19 6 15 26 27 5 12 8 9 12 3 4 3 4 3 3 4 3 3 4 6 7 4 3 1 5 4 6 9 5 14 3 4 5 6 3 6 7 8 8 9 9 8 8 8
8 8 26 36 10 3 14 8 7 2 3 6 2 3 3 4 3 2 3 5 9 4 7 4 5 5 10 5 4 9 9 10 5 4 2 3 8 5 6 7 3 9 8 6 7
5 4 23 29 11 11 6 14 12 3 4 1 5 6 0 3 4 5 4 3 7 7 5 9 4 3 6 12 3 5 4 5 4 4 6 6 4 4 3 2 6 6 8 7 5
3 6 4 9 4 17 13 16 11 12 15 1 3 2 2 2 3 4 4 5 3 5 1 7 5 8 11 5 4 5 6 5 5 4 5 5 4 5 7 8 7 7 8 7 7
5 4 4 6 12 16 18 11 18 13 13 13 4 7 3 3 4 4 7 10 7 6 4 2 6 9 14 11 16 5 5 7 9 6 9 4 8 10 9 9 9 7 5 6 8
5 4 4 0 14 16 17 18 20 17 12 11 11 7 15 14 14 13 4 0 4 4 3 3 6 10 10 9 11 12 11 10 7 5 4 2 8 6 10 8 6 8 6 7 9
8 5 2 8 10 12 18 20 16 14 13 14 17 13 9 16 14 16 15 19 14 13 8 5 1 5 3 5 6 7 13 7 4 6 5 4 4 7 7 9 9 11 8 9 10

GFSSW_925_spd_084.txt.gz
Wind_Speed
14 16 16 14 16 16 18 17 19 21 22 23 26 26 28 28 29 12 11 7 5 10 10 15 11 11 12 11 8 7 8 11 13 11 9 8 5 4 3 8 4 6 9 3 8
15 15 14 15 16 17 18 18 18 20 21 24 25 27 27 25 22 18 8 12 13 8 14 19 16 15 12 12 7 12 11 14 6 10 8 9 8 9 7 9 9 10 12 8 9
14 15 16 17 17 16 17 20 20 22 23 23 23 25 25 19 10 1 4 10 15 14 8 14 12 14 16 11 15 12 18 13 10 9 11 12 12 9 12 13 10 10 9 13 13
16 15 16 17 18 18 18 19 21 20 21 21 22 23 21 7 8 2 3 5 10 15 9 12 11 16 13 16 17 14 16 17 13 11 14 17 15 15 16 17 12 11 9 10 13
16 17 17 17 18 20 21 21 22 23 22 22 21 18 12 6 11 8 6 3 6 12 11 13 13 14 16 12 15 19 18 14 15 15 15 16 18 20 23 18 16 11 9 11 11
16 18 19 18 20 21 23 24 24 24 24 23 19 13 8 13 6 7 5 2 8 12 14 12 6 11 11 15 15 7 13 17 15 15 14 16 20 14 22 13 10 12 14 11 11
16 18 18 18 19 20 22 25 26 24 24 27 17 9 10 21 5 6 6 6 5 10 9 9 9 8 4 13 14 12 16 18 18 19 18 16 21 24 22 8 12 12 11 11 11
17 18 17 19 20 21 24 27 28 25 28 18 10 9 10 14 12 16 16 18 17 16 9 6 7 11 15 8 9 11 14 16 4 6 6 10 18 13 7 9 11 12 11 11 12
18 18 18 18 19 21 24 28 30 21 12 4 7 9 10 6 8 10 16 11 10 13 14 9 7 12 12 16 17 15 15 17 13 12 10 13 15 6 6 8 10 9 12 12 11
19 19 18 18 19 19 24 29 12 1 6 5 2 5 10 4 4 3 7 9 4 11 8 14 10 11 13 15 19 17 18 15 16 3 11 14 18 14 14 9 10 9 12 13 13
18 18 19 18 17 18 20 14 4 5 6 8 4 7 9 9 9 7 7 10 9 10 9 20 15 18 22 23 19 15 15 18 17 2 8 12 15 17 17 10 13 10 12 14 13
20 19 18 18 16 15 11 6 4 5 12 16 24 25 30 15 8 9 7 9 9 12 13 11 20 21 20 18 17 20 19 20 18 5 10 17 18 18 16 17 13 12 13 14 14
19 17 16 16 16 9 5 4 2 13 7 11 12 10 10 18 12 15 7 9 12 16 18 16 6 19 19 18 18 19 21 20 17 11 14 18 21 23 17 13 9 10 12 13 16
18 16 14 14 9 4 2 2 3 5 5 6 6 5 6 6 7 15 14 9 12 16 16 13 19 10 21 24 19 20 19 19 18 16 13 2 10 10 9 14 12 11 12 13 15
18 16 14 8 10 4 3 2 9 3 6 5 5 3 6 6 4 2 9 13 16 10 8 8 8 19 18 20 19 18 14 14 14 14 15 16 10 11 9 16 16 16 13 13 15
18 17 15 11 10 10 9 8 5 4 9 3 4 5 4 6 2 6 4 6 5 18 16 13 2 6 19 17 15 6 11 10 7 8 10 17 12 12 11 13 10 6 9 12 14
17 16 14 10 3 3 5 4 5 7 3 5 2 3 4 3 5 7 7 9 7 7 14 19 21 11 7 7 13 16 10 5 8 7 9 4 11 15 4 6 7 9 8 9 12
17 16 14 13 9 5 4 6 11 1 5 2 2 6 1 1 2 5 8 6 10 7 4 9 8 25 16 22 12 18 17 7 9 9 7 6 7 12 8 13 13 8 5 5 11
15 14 12 15 15 15 3 10 5 10 3 4 4 5 4 2 2 2 2 2 4 7 5 3 6 4 11 22 23 15 19 16 15 13 8 9 7 12 12 9 9 10 10 10 11
10 9 18 15 14 13 5 13 14 3 4 3 4 3 2 3 1 2 2 5 3 6 6 2 5 6 8 11 19 20 7 10 11 7 11 9 11 7 5 9 8 5 7 8 10
9 4 8 13 15 5 5 8 18 11 4 5 3 2 2 2 2 3 3 4 6 7 6 4 4 4 5 9 15 12 14 12 10 14 11 11 7 6 14 11 4 10 7 3 8
5 5 7 16 8 3 6 11 3 8 14 8 4 4 4 3 4 4 3 2 6 6 4 4 3 8 13 3 1 9 18 19 12 13 10 14 14 5 3 1 3 8 5 5 4
3 4 9 16 8 12 7 5 21 14 7 9 8 8 5 5 5 6 6 3 5 5 6 5 1 5 8 10 14 11 11 14 18 17 20 12 3 11 16 12 10 7 7 7 2
2 4 8 7 9 16 21 16 6 16 15 11 3 7 7 9 9 5 5 3 3 8 1 4 5 6 8 7 9 8 14 15 17 15 17 22 20 15 10 10 8 6 7 8 5
5 7 9 6 13 17 19 10 17 6 14 11 8 12 11 10 9 11 12 12 10 10 10 6 11 12 14 17 17 17 18 18 22 23 21 16 20 20 20 18 14 7 9 9 9
6 3 11 15 18 18 17 21 21 22 13 14 15 13 16 14 12 10 9 12 8 3 4 2 3 6 11 15 16 17 22 23 25 24 23 22 22 13 9 12 12 14 11 10 11
15 9 3 14 18 9 16 20 23 18 15 19 16 14 13 14 10 11 13 13 13 11 6 4 2 3 6 3 11 17 11 19 25 25 23 19 16 13 13 13 14 15 11 10 11

GFSSW_925_spd_087.txt.gz
Wind_Speed
13 14 13 14 16 16 16 18 19 21 23 24 26 27 29 28 28 22 19 13 6 13 10 12 16 17 16 16 17 9 13 16 20 17 9 3 8 11 7 11 10 6 12 7 8
13 14 14 15 16 17 16 17 18 19 21 23 24 26 28 28 27 26 20 15 18 15 15 20 17 17 15 16 14 16 13 21 19 12 9 10 11 14 14 14 17 15 13 7 8
16 17 17 17 18 17 18 19 19 20 21 22 25 26 25 22 15 4 3 6 13 19 21 18 19 17 19 17 18 18 19 21 19 9 13 15 14 17 15 19 17 13 11 6 12
16 16 17 18 18 18 19 21 21 21 22 22 23 25 24 14 6 5 1 5 3 12 17 18 19 19 20 21 20 20 22 19 21 19 13 18 17 19 19 18 16 17 11 11 11
17 18 18 19 20 19 19 21 21 22 23 21 20 21 16 7 20 12 6 5 5 12 17 16 18 19 22 16 20 21 20 20 19 16 18 18 20 21 21 19 19 16 17 13 13
15 18 20 20 19 20 21 22 23 24 23 22 19 17 14 17 9 7 7 7 14 15 16 16 15 15 17 18 20 15 18 20 21 22 19 20 22 20 23 18 17 16 15 14 14
17 18 20 21 21 22 23 24 25 25 25 21 20 12 14 24 9 7 9 9 10 17 18 19 18 10 9 15 17 17 19 20 21 21 22 20 25 24 25 20 18 16 16 12 12
18 18 20 20 21 22 24 27 27 29 27 19 12 11 10 16 16 17 19 22 14 10 14 10 10 14 19 15 11 13 18 19 18 25 19 21 25 21 18 16 16 16 13 9 12
19 20 20 20 21 23 26 29 30 23 14 8 6 12 13 4 10 14 18 20 18 22 18 15 14 16 14 17 17 15 18 20 20 17 13 13 18 15 4 7 12 12 11 10 12
16 19 18 19 20 22 26 28 24 12 2 6 10 6 9 7 4 5 3 11 12 11 15 14 12 17 18 17 20 18 21 20 20 20 16 14 20 17 14 16 15 14 11 11 13
18 19 19 18 19 20 22 22 5 8 11 12 5 15 14 1 8 10 8 9 11 14 17 19 17 23 24 23 24 21 24 23 18 12 5 11 18 18 16 16 15 15 16 13 14
15 18 17 17 17 18 16 8 5 4 12 18 24 26 32 26 13 12 11 11 15 17 18 13 24 28 23 22 19 24 26 24 20 22 11 14 20 20 20 19 18 18 16 13 14
15 18 17 16 17 14 9 7 5 8 8 12 18 16 15 17 17 17 16 18 17 18 19 21 10 24 20 20 21 25 24 21 24 22 16 14 21 23 23 24 21 20 14 13 15
15 15 16 15 10 6 3 1 3 5 6 6 6 3 7 6 8 23 15 16 17 23 19 19 21 13 17 24 23 22 21 22 20 19 15 17 15 17 15 12 19 15 15 16 14
14 15 14 10 14 9 4 3 6 4 6 7 8 7 7 9 5 6 7 19 24 18 11 18 16 20 22 21 17 21 16 17 21 20 17 20 15 16 17 19 15 15 18 16 14
13 14 13 13 16 15 7 6 6 5 9 6 8 10 10 12 7 6 3 11 12 20 18 22 7 9 18 14 15 17 16 16 14 12 16 18 16 13 14 16 13 12 13 16 14
12 13 11 11 8 3 8 7 6 8 4 9 7 9 8 8 10 10 10 11 10 10 19 19 22 17 12 12 17 17 14 9 11 11 13 17 13 13 10 5 4 8 7 10 12
12 12 13 15 15 13 8 7 11 4 18 4 3 9 10 7 6 10 9 10 15 14 11 13 11 28 21 18 11 18 17 8 11 10 10 20 9 10 13 13 15 12 8 3 7
12 15 16 17 17 12 4 10 11 17 10 4 8 10 9 8 4 9 12 7 2 12 8 4 12 2 12 25 21 17 17 19 22 17 9 9 8 8 11 10 8 7 9 11 14
12 9 17 14 15 12 5 14 18 7 7 5 12 5 12 8 8 6 12 1 3 3 7 5 9 6 13 12 22 24 15 12 12 16 17 13 17 14 5 9 11 9 6 8 12
10 3 10 16 13 5 5 9 21 16 2 7 7 1 2 0 6 3 1 7 1 3 6 4 6 2 5 10 13 14 20 16 12 13 11 9 7 10 4 8 5 5 6 6 8
6 4 8 14 6 4 10 8 3 19 17 12 6 8 6 5 6 4 4 3 3 5 5 4 5 7 11 3 9 13 16 18 12 16 12 14 15 9 2 5 7 5 5 4 3
4 7 6 11 8 12 15 13 9 11 9 11 18 12 14 9 6 9 8 3 2 4 7 9 2 6 12 10 11 10 11 12 15 16 20 13 10 4 13 8 7 7 3 6 5
3 5 7 7 9 9 16 21 21 8 21 14 8 12 9 11 11 7 6 3 1 6 6 6 8 10 11 10 10 6 10 9 13 13 14 17 20 20 9 11 5 8 5 6 5
5 5 8 6 13 18 19 12 15 22 10 11 11 15 11 10 12 14 14 13 10 6 7 6 11 12 15 19 16 16 14 14 18 17 18 17 20 18 18 18 20 15 6 7 9
4 5 9 14 16 14 18 19 21 20 10 15 15 13 15 16 13 4 7 9 7 8 6 2 7 8 13 15 20 21 20 21 19 19 23 22 25 20 14 13 14 16 16 11 10
18 17 8 12 19 17 16 18 16 19 19 19 15 14 13 13 11 13 11 10 12 10 10 6 5 3 12 15 11 13 20 21 17 17 20 21 21 21 18 13 14 12 13 16 8

GFSSW_925_spd_090.txt.gz
Wind_Speed
12 15 16 16 17 17 18 18 19 21 21 23 25 28 29 29 32 24 21 17 11 21 14 9 13 19 19 17 19 18 13 15 21 19 19 7 2 5 4 8 11 9 7 7 16
14 15 16 16 16 17 18 19 20 22 23 23 25 28 28 30 30 26 26 19 16 14 11 16 17 17 14 15 17 17 14 22 20 19 17 13 7 10 12 16 17 13 12 14 17
16 16 17 17 17 17 18 20 21 21 22 25 25 27 27 27 11 1 4 2 9 19 17 20 22 17 19 18 20 21 20 21 23 21 21 11 15 15 14 17 13 11 11 4 14
17 17 18 18 18 19 19 18 21 20 22 23 23 25 27 13 6 5 3 4 9 4 14 17 19 19 21 21 22 24 24 24 22 20 19 20 15 16 18 16 13 11 9 7 7
16 17 18 19 19 19 21 21 21 23 22 23 22 21 16 6 14 17 16 11 5 7 16 16 17 19 22 21 21 24 24 23 22 21 20 18 19 19 18 16 15 13 15 11 7
17 18 20 20 22 22 22 24 25 24 23 22 22 17 12 15 17 11 9 10 14 15 17 17 16 19 18 21 22 24 22 22 22 21 19 23 21 18 18 16 19 17 16 16 16
18 19 21 23 23 23 24 25 27 27 24 25 19 11 12 26 12 20 15 12 15 15 17 20 19 17 14 17 21 21 22 22 21 20 19 20 22 23 18 19 21 18 15 14 14
17 19 22 25 25 24 26 29 30 30 27 21 13 8 9 19 17 21 19 22 24 16 16 19 17 18 19 17 22 16 17 19 21 21 23 23 22 21 18 21 22 17 14 12 14
18 18 21 22 25 25 27 32 33 29 21 12 6 10 10 11 11 16 17 21 18 21 18 12 5 11 13 15 16 17 19 23 22 19 22 23 20 15 17 14 5 8 12 13 8
17 17 22 23 25 25 29 32 30 26 12 8 13 7 10 10 3 6 8 11 13 14 16 15 7 13 14 14 17 20 22 24 23 19 21 25 19 15 18 17 11 10 12 13 10
16 16 18 22 23 23 25 19 3 4 12 11 7 12 11 10 6 10 13 7 11 13 16 18 15 19 22 21 25 22 24 25 22 25 22 18 14 13 14 15 14 15 15 11 10
17 15 16 21 21 22 20 6 11 7 13 20 26 29 37 26 22 20 15 10 13 16 15 16 21 21 23 23 23 24 22 27 22 28 22 20 17 16 17 19 16 15 13 15 14
15 16 16 19 20 20 15 15 9 13 8 16 29 23 23 24 25 26 19 18 18 19 19 20 18 23 21 23 25 23 24 18 23 26 25 22 24 16 19 19 19 19 15 14 14
15 14 14 15 14 11 11 5 6 9 6 8 8 6 13 8 8 19 26 21 18 23 19 20 20 21 16 19 24 22 18 20 20 20 18 21 16 17 17 17 21 24 18 13 12
14 13 12 11 18 8 6 6 5 3 6 12 9 11 14 13 3 5 17 15 22 21 15 23 21 21 20 21 15 21 13 14 19 19 22 25 14 13 16 18 17 13 13 12 8
13 13 13 14 16 19 13 9 8 6 10 7 10 11 13 15 9 8 7 11 8 20 22 22 20 19 20 16 20 15 8 14 17 14 17 22 19 14 16 18 17 11 12 16 16
11 13 14 14 16 4 8 3 5 8 6 7 10 12 14 12 12 11 9 10 9 9 18 23 24 23 11 12 16 14 12 9 5 6 12 19 16 14 17 20 12 12 8 5 14
13 13 16 18 19 16 9 5 11 11 16 11 4 10 15 12 12 15 12 11 16 15 11 12 14 22 16 20 16 17 17 9 12 7 5 16 11 14 15 11 6 3 4 4 11
12 16 19 20 18 14 4 9 10 14 14 16 12 12 15 16 5 12 14 14 12 18 13 9 11 14 20 25 20 17 19 17 17 18 4 9 18 10 13 8 6 7 13 7 6
12 15 21 19 18 9 5 13 17 24 11 19 16 10 17 18 14 13 14 11 12 2 4 8 10 9 9 6 22 17 15 14 11 16 16 12 11 9 16 13 9 7 5 5 7
9 4 13 18 13 6 8 16 14 26 5 7 11 9 14 5 8 14 7 9 2 5 4 11 9 13 4 9 12 12 17 13 11 13 10 8 1 5 10 14 9 6 9 6 7
7 4 6 22 7 5 12 18 16 23 18 8 19 5 8 8 12 4 2 8 8 6 4 9 4 7 15 9 13 17 18 17 8 12 8 11 7 12 3 12 7 6 8 5 4
4 9 13 12 7 12 14 17 21 18 16 10 11 16 12 9 6 5 7 11 7 8 8 11 3 5 11 9 8 7 9 16 17 13 16 10 10 9 10 12 4 5 2 7 5
3 3 8 6 10 14 14 17 18 16 10 17 16 18 17 12 10 7 5 5 6 4 7 4 7 9 8 5 8 11 18 14 13 9 11 14 16 17 9 18 17 17 5 4 5
5 5 7 6 12 15 16 13 10 16 22 6 7 17 15 11 11 13 12 9 5 2 4 5 10 13 18 17 13 17 16 16 14 11 11 12 17 15 13 9 15 12 21 7 5
4 4 7 11 14 13 18 18 19 16 9 9 18 17 15 14 14 9 9 8 5 4 6 1 5 10 14 16 16 17 17 18 17 16 17 18 18 16 17 19 17 10 11 13 13
17 15 5 8 14 14 12 12 16 15 14 11 18 15 10 11 11 9 3 8 10 10 8 4 4 5 11 13 14 13 14 17 19 17 15 12 14 18 20 20 18 13 8 7 7

GFSSW_925_spd_093.txt.gz
Wind_Speed
13 15 15 16 16 17 17 19 20 22 23 24 26 28 31 31 36 25 10 19 10 16 15 8 7 11 17 6 10 2 4 9 13 10 17 10 1 4 5 5 1 3 5 12 28
13 14 15 16 18 19 20 20 21 21 23 24 26 28 30 31 32 17 27 14 19 10 12 10 6 10 5 5 5 8 4 14 8 14 15 8 6 4 4 5 4 7 5 22 27
14 16 15 15 16 18 20 21 21 21 23 24 26 28 29 29 8 6 2 5 12 14 18 14 15 11 11 8 12 7 15 16 15 18 15 8 9 7 1 4 7 9 9 15 14
15 16 18 17 17 17 21 22 23 23 23 25 25 27 28 8 5 3 6 1 6 7 8 7 5 6 9 12 13 15 16 17 19 17 18 11 6 7 6 7 6 7 4 15 16
16 17 18 19 21 21 21 22 24 24 24 24 23 22 13 3 12 15 18 15 5 6 9 8 9 8 13 9 12 17 17 17 18 14 13 11 12 11 10 11 9 8 6 6 11
16 17 18 20 22 24 26 22 24 25 25 24 22 18 5 9 14 11 9 13 8 11 12 12 8 11 10 10 15 15 15 18 12 12 11 12 9 5 15 9 10 11 11 10 10
17 17 19 21 22 25 27 27 26 27 26 24 19 10 7 25 9 20 20 16 12 17 7 19 20 8 6 8 15 15 15 17 13 8 6 9 9 9 15 9 10 14 11 11 11
18 18 19 20 23 26 29 30 30 29 26 23 11 7 9 20 20 25 21 19 17 20 22 22 18 4 3 6 10 7 8 11 4 9 8 5 22 13 17 17 19 19 15 12 11
19 19 20 20 23 28 29 33 34 30 25 15 6 7 10 12 8 17 16 16 16 18 19 18 10 3 5 3 4 4 10 16 9 8 10 11 23 14 17 20 19 12 12 10 10
18 19 19 19 21 26 29 32 33 17 6 6 9 6 10 6 7 2 5 19 6 6 5 6 3 3 1 3 11 8 10 10 11 10 16 14 19 17 17 13 10 9 8 9 8
17 18 20 20 21 24 27 18 4 2 5 8 9 7 11 11 13 5 8 7 5 4 7 6 5 10 12 11 11 12 13 15 12 10 13 13 16 21 25 10 8 8 9 10 10
17 16 17 21 23 23 21 3 7 5 9 15 21 26 36 27 14 22 22 6 7 9 7 7 19 14 14 13 15 18 19 20 17 12 13 17 21 20 27 8 8 8 10 11 8
16 13 16 19 22 18 8 14 15 13 5 12 16 14 18 18 19 30 7 11 13 12 12 15 7 20 17 18 18 18 16 13 13 4 4 10 20 15 24 11 7 9 10 11 16
13 12 12 18 14 14 6 9 11 12 4 7 7 7 12 8 8 24 26 12 9 17 13 16 13 19 16 21 17 17 14 17 18 2 4 4 12 20 22 24 19 17 16 15 10
14 11 10 11 18 8 9 16 16 3 5 6 7 7 7 11 2 2 18 16 21 17 8 15 6 7 10 8 9 11 11 14 4 2 4 7 7 7 18 21 19 11 17 20 12
13 11 10 10 15 17 20 20 7 1 8 5 6 6 8 11 5 3 1 2 4 14 16 14 10 6 7 7 12 2 3 2 3 3 7 11 10 4 12 18 17 17 15 12 12
13 10 10 10 6 13 19 5 1 5 9 1 2 11 15 12 12 9 8 6 6 4 8 9 18 15 9 7 8 2 4 2 2 4 6 9 11 16 21 22 22 22 22 15 16
10 12 15 17 17 12 13 4 8 6 10 17 19 17 16 15 14 14 11 7 13 7 1 7 4 14 16 15 8 8 7 4 6 4 3 6 6 5 17 25 25 12 8 10 9
11 16 17 19 13 13 2 4 3 5 4 16 20 8 9 8 6 13 13 11 11 16 7 4 6 2 7 18 14 7 9 11 8 7 2 4 11 18 16 10 15 11 6 8 11
11 12 21 20 15 11 3 8 7 10 15 13 6 9 8 12 12 5 11 4 10 1 5 4 2 7 9 8 12 10 5 6 5 4 10 8 13 8 20 15 16 7 5 5 9
7 3 11 7 14 3 6 7 11 15 15 9 7 6 9 8 13 10 8 4 8 4 4 6 0 5 3 1 6 7 11 4 4 2 3 2 4 6 4 10 17 19 6 8 6
4 2 10 17 3 2 7 4 8 15 15 9 5 8 4 9 6 8 8 6 0 9 3 3 1 2 3 6 7 4 14 14 7 7 8 9 14 5 7 9 16 19 20 5 5
2 4 12 4 4 7 5 11 16 17 16 6 4 3 12 2 5 6 6 8 6 3 1 5 4 3 6 0 11 6 2 6 8 8 14 5 6 9 9 12 3 8 15 16 2
2 3 3 4 2 5 7 10 14 14 16 12 8 7 16 6 12 8 9 8 8 4 5 4 1 2 1 3 4 10 13 7 7 4 7 12 17 14 7 7 10 14 11 8 12
2 4 4 2 4 8 8 9 13 8 7 8 4 7 7 5 13 14 8 4 5 5 4 1 1 3 8 7 11 12 13 15 8 9 8 11 14 9 7 10 6 7 13 7 9
3 2 3 6 9 7 7 15 15 14 5 8 10 13 7 8 15 13 9 5 4 6 5 5 3 5 6 8 9 12 14 13 11 11 10 8 8 7 12 13 17 17 15 16 7
9 6 2 5 4 3 4 6 10 14 11 11 10 5 9 12 10 5 6 3 2 2 4 4 3 4 3 7 8 6 8 11 14 12 7 5 8 15 16 18 19 20 20 8 9

GFSSW_925_spd_096.txt.gz
Wind_Speed
14 14 14 16 18 19 18 20 21 21 21 23 25 27 30 31 35 25 9 21 11 14 13 6 5 5 6 3 4 5 1 6 7 8 10 4 5 6 8 3 3 6 8 8 25
14 14 15 15 16 18 20 19 20 21 22 22 23 26 29 32 30 17 24 19 15 15 17 11 5 7 2 4 4 5 5 10 6 8 11 8 4 6 4 7 4 4 5 20 29
14 15 16 16 16 17 19 21 21 20 21 23 24 24 29 26 6 7 3 7 7 11 12 11 7 5 6 4 6 6 12 13 12 9 10 11 9 3 3 5 8 8 2 11 15
17 17 17 17 17 19 22 24 23 22 22 22 23 23 27 8 6 2 6 7 3 10 13 6 4 4 6 9 10 7 8 8 14 13 11 18 8 8 6 12 8 10 5 12 12
18 18 17 18 19 21 25 26 25 24 23 21 20 20 12 3 12 10 9 9 7 10 10 6 7 7 6 5 6 9 12 14 16 14 15 16 16 15 11 13 9 9 9 15 17
19 20 19 20 21 22 25 27 27 26 24 23 19 15 3 6 11 6 12 8 10 12 6 8 6 8 5 8 9 6 11 14 11 15 9 9 10 3 11 7 8 9 12 12 17
20 20 20 20 23 24 27 31 32 27 25 22 17 10 8 24 9 8 21 23 12 13 4 9 13 5 3 6 8 10 13 13 6 6 6 8 13 10 9 8 9 11 12 12 13
21 20 21 22 23 25 29 34 34 31 28 23 10 5 9 19 22 27 20 20 15 12 14 16 14 7 6 5 7 3 4 4 4 4 6 7 23 11 11 9 11 13 15 14 13
22 22 19 21 24 27 29 36 39 35 29 14 6 6 11 13 9 14 17 11 10 14 12 12 3 5 3 3 3 3 12 9 5 5 5 7 13 8 10 7 9 12 18 16 16
20 20 19 19 23 25 31 36 32 11 5 8 4 3 10 5 4 6 9 15 3 2 1 4 2 3 2 4 13 8 7 5 5 3 8 15 19 10 7 7 12 14 21 14 11
21 20 18 17 21 24 29 15 4 2 5 9 11 7 9 7 10 5 6 2 4 3 6 4 4 7 10 11 4 3 5 7 1 5 5 10 20 12 7 11 15 16 16 12 10
21 20 17 16 20 21 25 4 4 8 10 15 21 23 28 15 9 18 7 2 6 7 5 2 14 7 7 6 7 9 11 17 13 10 12 13 20 11 7 10 10 10 16 13 4
20 16 13 17 20 15 9 13 20 15 4 8 12 11 10 18 16 25 5 4 3 5 8 11 5 15 11 11 12 12 13 12 17 10 7 4 19 14 13 11 13 18 14 14 10
20 15 11 15 13 11 11 23 20 6 2 7 7 8 8 9 7 14 16 7 6 9 7 11 12 14 10 15 13 15 16 19 16 7 9 4 18 12 12 18 20 20 17 16 10
16 16 13 8 14 6 12 30 21 1 2 2 5 9 12 10 2 1 10 6 13 6 6 7 3 14 17 16 13 14 17 15 17 6 4 3 3 8 1 12 20 18 17 17 10
14 12 9 8 7 16 20 23 5 3 6 5 3 2 6 8 1 3 5 5 7 3 12 8 6 2 4 4 7 5 7 5 2 4 4 6 4 21 3 10 16 17 13 17 7
14 8 7 9 4 17 21 6 3 4 8 6 8 10 12 4 5 3 4 6 5 5 13 8 19 14 6 7 7 5 2 2 2 1 6 7 7 15 15 15 20 24 21 22 15
8 7 12 18 16 13 11 1 6 4 3 12 12 13 5 6 6 8 5 5 5 3 0 7 6 13 8 19 8 8 8 5 6 5 7 6 6 5 6 12 21 16 15 20 18
9 9 11 20 5 5 2 5 2 2 9 12 11 5 7 7 9 5 10 9 10 14 7 5 6 3 4 21 14 7 8 7 4 3 3 4 5 6 5 12 21 21 24 17 18
6 8 10 13 10 6 3 4 3 7 10 11 6 8 7 14 11 12 4 3 9 10 13 4 4 3 6 5 6 11 7 1 2 6 13 6 6 8 9 16 16 21 16 15 9
3 3 6 7 9 3 3 4 4 8 10 6 7 7 7 7 8 5 9 6 12 6 8 3 1 5 4 1 7 4 1 1 1 4 5 2 4 6 7 9 19 20 21 15 12
1 1 2 6 2 2 2 2 4 10 6 5 3 6 5 6 5 5 6 4 15 15 6 1 2 4 7 7 4 3 3 5 4 5 5 3 5 9 8 12 5 16 19 20 17
1 3 4 4 3 2 3 5 8 9 8 4 3 4 2 3 6 2 5 12 14 9 7 2 1 2 2 4 6 5 4 6 5 4 12 3 4 3 12 6 3 12 19 19 19
0 3 3 2 2 1 5 8 7 6 10 10 10 8 7 5 9 5 4 7 9 11 21 6 2 3 2 2 3 2 6 7 4 2 4 3 7 8 4 4 8 11 19 17 14
2 4 4 2 2 5 5 4 10 7 3 4 4 9 7 5 3 4 4 6 8 12 7 4 3 3 1 3 5 6 5 13 4 7 3 4 6 4 7 8 11 6 13 8 19
3 2 3 3 4 5 3 1 10 11 8 9 4 9 10 7 5 9 7 5 2 6 6 6 3 4 3 5 5 6 6 4 8 8 11 12 5 8 6 3 7 11 12 5 11
8 2 2 3 1 2 3 3 6 10 8 6 14 11 3 7 2 8 8 11 5 2 1 1 1 3 2 6 6 3 3 7 3 9 5 0 4 7 9 12 12 13 12 12 12

GFSSW_925_spd_099.txt.gz
Wind_Speed
15 15 16 17 19 20 21 23 24 25 24 23 25 27 29 31 36 24 8 20 13 12 16 5 6 9 6 3 4 5 2 5 7 7 6 6 8 3 6 4 3 5 8 5 26
16 17 17 18 20 21 21 23 26 27 25 25 25 26 30 32 30 15 26 19 17 13 18 16 6 6 3 6 5 6 5 11 7 7 10 4 4 10 6 9 6 4 3 6 30
18 18 19 20 20 20 24 27 27 26 26 25 25 27 28 27 7 7 7 6 10 15 11 17 7 5 4 4 5 7 9 6 6 7 7 5 5 3 5 8 8 8 3 7 7
20 20 20 19 20 21 25 28 28 26 26 25 24 24 26 9 6 2 4 9 3 8 11 5 4 7 5 8 6 4 6 13 6 7 5 12 3 6 6 15 12 11 5 8 11
21 21 22 21 20 22 26 28 29 30 28 24 21 20 13 4 11 11 7 9 4 8 12 5 5 6 7 6 6 6 3 6 8 8 9 12 16 10 15 17 12 11 7 12 14
20 21 22 23 22 23 28 29 30 32 31 24 19 15 5 8 11 8 10 9 3 8 6 9 7 7 5 8 7 4 10 15 10 15 9 13 15 4 8 10 9 8 10 10 15
23 23 23 22 23 26 29 32 34 35 31 23 19 13 11 25 10 10 14 14 16 12 6 10 15 2 1 5 7 6 7 7 7 5 8 5 14 11 10 10 9 10 10 10 15
26 27 26 25 24 25 30 35 36 38 34 24 16 11 10 22 20 30 24 29 25 18 18 16 12 4 4 7 5 4 2 2 5 8 7 9 23 8 9 9 11 10 9 9 7
25 25 25 24 24 25 29 36 43 41 31 17 7 7 11 11 10 15 19 10 11 18 14 7 4 6 3 4 3 3 4 5 4 4 4 8 11 4 4 5 7 8 9 10 11
21 23 25 23 23 25 28 35 36 10 4 10 6 4 9 5 4 9 6 13 3 7 3 6 3 4 1 4 11 7 4 4 5 4 5 9 16 7 8 6 9 9 10 9 10
20 22 25 23 22 23 25 19 5 1 5 8 8 7 6 8 8 1 3 5 2 3 6 5 6 11 9 9 6 4 4 4 0 4 6 8 14 11 8 9 9 8 9 10 11
19 21 24 20 19 22 24 2 7 11 12 14 21 23 35 13 9 12 4 4 4 6 5 1 11 7 9 8 5 6 6 5 5 8 7 14 25 15 7 7 9 9 10 10 9
21 21 20 17 16 22 6 10 16 23 6 8 10 9 11 16 11 21 6 3 5 7 7 7 6 10 12 6 7 7 9 3 10 2 6 7 22 9 5 6 8 8 10 13 12
20 21 19 14 14 9 10 9 24 17 4 7 6 7 8 8 7 13 14 8 5 9 5 7 9 10 8 10 8 12 6 13 7 3 4 4 13 12 4 11 7 13 14 19 12
20 19 16 14 13 6 9 23 22 2 3 2 4 7 8 8 4 2 9 1 10 7 6 8 2 7 12 7 9 6 7 9 9 5 1 4 3 4 4 5 12 13 12 14 15
21 19 12 15 11 14 17 17 5 2 7 5 4 3 3 3 5 6 5 4 4 4 4 6 1 2 5 2 5 2 4 4 1 3 5 6 7 16 6 5 6 7 13 21 14
19 15 10 10 5 12 16 6 3 4 8 8 7 6 2 3 2 2 5 6 5 4 4 1 12 3 4 4 4 3 1 3 2 2 7 10 7 14 9 14 8 7 13 19 15
17 16 14 17 17 17 9 2 3 5 5 9 5 10 6 13 4 4 1 2 2 4 3 2 6 10 7 16 7 8 8 5 6 4 8 7 7 5 1 6 8 13 17 20 21
16 16 12 20 11 4 1 1 2 4 9 10 9 6 6 8 8 9 3 3 5 5 6 3 5 5 6 7 13 5 9 8 8 2 3 4 6 5 3 11 15 19 23 25 25
11 8 9 7 9 7 1 3 2 4 7 6 7 9 9 12 9 11 5 7 10 10 6 3 3 5 3 3 8 14 6 3 2 7 13 3 3 5 7 10 13 17 25 28 24
6 3 8 3 11 3 2 4 4 3 6 5 5 5 6 7 6 6 6 3 14 12 9 2 1 6 6 1 4 4 4 5 5 5 8 9 5 6 4 1 7 12 20 23 22
3 2 4 3 3 1 1 3 5 4 5 4 2 2 3 7 5 4 7 9 13 10 6 5 3 5 12 2 2 2 2 5 4 5 2 3 7 7 2 6 4 4 14 21 20
1 3 4 3 2 4 4 4 3 2 3 4 4 2 3 2 4 4 3 4 13 9 5 7 4 3 2 1 3 4 3 3 1 3 4 5 3 5 6 4 3 6 10 21 23
1 3 3 3 1 2 2 4 3 4 6 4 6 4 4 2 6 4 4 5 12 10 5 3 1 6 6 1 3 2 1 2 3 2 1 3 3 3 7 4 1 3 3 14 18
2 4 3 2 2 2 2 2 4 5 3 6 6 4 4 3 3 3 2 4 10 6 2 3 3 11 9 3 1 3 3 5 3 4 3 4 5 5 7 11 11 10 4 6 16
3 2 2 3 3 3 2 3 4 5 3 3 2 12 8 6 6 7 6 4 5 3 7 5 0 4 2 4 2 2 5 4 6 3 3 4 11 4 6 11 13 12 7 8 8
8 2 2 3 3 2 2 4 3 7 4 2 8 13 8 11 16 10 7 10 9 4 5 1 0 3 3 5 6 1 1 3 7 6 1 1 2 7 5 8 10 10 12 12 11

GFSSW_925_spd_102.txt.gz
Wind_Speed
16 17 18 18 19 21 22 23 26 26 26 25 24 24 26 29 35 22 9 22 15 11 15 8 8 10 5 2 2 4 2 5 7 8 6 3 1 1 3 2 4 3 4 4 6
17 17 17 19 21 22 22 25 29 26 25 26 26 25 27 30 30 15 20 14 19 15 17 18 7 9 3 3 3 4 5 11 6 7 6 2 2 1 3 6 5 4 1 3 20
19 20 20 20 20 21 23 26 30 28 27 27 28 27 28 27 7 6 9 8 9 15 12 14 12 7 5 4 6 6 8 3 6 6 4 3 4 4 1 6 8 7 3 5 5
19 20 21 22 22 22 25 27 30 28 28 28 27 26 28 10 8 1 7 12 5 9 7 9 5 7 6 7 6 5 6 7 4 6 3 6 2 4 7 9 11 8 5 6 9
21 21 22 22 23 24 26 29 31 32 30 27 26 22 15 4 10 19 19 16 5 7 9 5 5 5 6 6 4 6 4 5 7 7 6 6 13 9 7 12 12 9 6 10 10
22 22 24 25 24 25 28 31 33 34 32 27 24 20 10 13 16 13 10 8 6 8 7 7 6 7 4 6 8 3 11 16 8 11 5 9 17 4 6 7 10 8 10 10 11
22 24 24 26 27 28 28 32 33 37 36 28 23 19 15 26 14 12 19 17 10 5 3 10 16 3 4 2 6 5 10 8 6 5 7 5 11 13 10 9 10 10 8 7 11
21 22 23 24 25 27 29 31 36 40 41 34 21 15 11 19 23 28 28 29 27 28 20 15 7 5 5 4 5 3 3 3 3 10 6 9 25 3 9 6 7 8 7 5 7
19 22 24 25 25 28 28 32 39 46 38 22 10 8 13 11 10 23 23 13 11 21 16 9 6 6 3 6 3 3 4 5 2 8 5 10 12 2 4 6 7 7 8 8 7
21 22 25 27 29 28 27 33 41 19 5 10 5 3 9 6 5 5 4 14 4 8 3 5 3 4 4 5 12 7 4 4 4 2 3 8 16 6 8 5 8 9 9 9 9
21 22 24 27 27 23 25 21 6 3 3 6 6 6 8 11 4 2 2 5 3 3 8 5 5 11 8 9 5 2 5 5 1 3 3 7 14 6 9 8 8 8 9 9 10
21 23 23 23 24 24 25 2 6 9 13 14 20 22 36 22 10 16 3 5 5 6 6 3 18 7 8 7 6 6 6 5 4 6 5 8 25 9 7 8 9 11 8 10 8
19 20 23 24 24 19 10 10 20 21 8 10 10 9 10 17 14 22 4 2 4 7 10 7 4 11 12 7 9 6 9 3 8 4 3 5 19 9 7 5 7 7 8 6 9
20 22 23 24 12 11 15 11 23 29 5 6 5 6 6 7 7 11 18 7 5 10 6 7 7 5 7 8 7 10 8 9 6 2 3 4 8 0 6 6 4 8 7 7 9
20 22 22 15 11 3 19 23 21 13 5 1 3 5 5 7 5 4 7 1 9 7 6 6 3 8 10 6 8 5 8 8 6 5 1 3 4 5 3 7 9 7 8 8 9
19 21 20 13 10 16 16 26 10 2 5 8 3 0 3 5 3 3 4 2 3 2 0 5 1 3 7 5 8 5 3 3 2 3 3 8 7 3 4 2 3 3 7 8 10
21 21 18 11 5 13 19 7 6 3 9 9 6 7 3 5 1 3 5 5 5 5 6 0 10 2 3 3 2 3 5 1 1 1 5 6 5 8 5 4 4 6 8 8 11
22 22 20 17 19 22 10 3 3 7 6 8 7 9 5 10 5 6 6 3 3 1 4 6 2 10 7 12 8 7 7 4 5 4 3 4 6 5 4 5 4 1 3 5 16
20 18 12 7 10 3 3 2 5 7 9 9 9 7 8 6 4 7 6 8 8 11 3 3 3 2 3 5 12 5 5 7 2 1 1 4 6 5 4 5 6 7 9 12 17
12 9 9 12 1 3 3 4 5 4 8 6 7 7 8 10 8 8 8 8 9 8 5 2 1 3 2 4 4 6 5 3 1 3 5 4 3 5 2 5 6 7 10 13 19
6 3 11 7 4 3 2 3 5 5 4 4 5 4 4 7 6 5 8 5 11 12 8 6 2 6 5 2 2 2 3 4 4 5 3 7 5 5 4 4 5 1 5 10 18
3 3 3 3 2 2 2 3 7 5 4 3 2 2 3 5 4 5 5 5 9 11 6 2 1 2 6 3 3 3 2 6 3 3 2 2 11 5 5 8 6 4 2 6 13
2 2 3 1 0 1 5 4 4 4 5 5 4 2 1 3 4 3 2 1 6 6 4 5 2 1 4 3 3 4 2 1 2 3 5 4 5 3 6 5 5 3 4 6 13
2 3 3 2 1 4 3 3 4 6 4 4 4 4 4 2 4 4 3 2 6 7 11 1 1 2 4 3 5 4 3 2 1 2 3 4 4 6 7 7 10 7 7 4 11
0 3 3 2 1 3 4 3 5 3 3 6 4 6 3 4 5 3 3 4 4 5 7 2 1 2 4 5 9 5 3 2 1 2 4 3 3 2 5 7 9 10 10 8 10
3 2 1 3 3 4 3 2 5 5 3 2 3 8 5 4 4 5 6 2 3 6 3 4 3 2 3 4 10 8 8 4 8 7 10 6 4 1 3 5 12 11 13 11 12
4 2 1 3 3 1 3 3 4 5 3 3 5 7 6 5 7 13 7 6 4 2 3 2 2 2 1 2 7 5 5 2 4 3 2 4 3 7 5 9 12 12 12 11 13

GFSSW_925_spd_105.txt.gz
Wind_Speed
13 14 14 16 17 19 20 20 23 23 23 23 24 25 25 29 34 24 10 18 14 9 13 10 14 8 6 5 4 4 5 10 14 10 7 4 3 1 1 2 4 0 2 4 1
14 15 16 16 17 19 20 21 25 23 24 23 25 26 27 28 28 17 19 15 18 15 16 19 10 12 5 7 6 6 8 13 6 10 5 2 3 2 2 4 4 4 1 3 4
15 15 15 16 17 19 21 24 25 25 24 24 25 26 28 25 6 5 6 13 10 15 15 15 11 9 7 4 8 7 15 7 7 11 5 8 8 4 5 9 8 8 4 2 5
16 16 16 17 19 20 23 26 26 25 24 25 24 24 26 9 7 3 2 14 12 6 8 7 10 9 8 10 6 7 8 11 4 7 7 9 5 8 10 11 13 10 6 6 9
16 17 17 18 18 20 25 27 28 28 28 27 23 21 15 5 11 20 21 25 9 6 10 5 8 10 11 7 6 9 9 7 11 13 10 9 16 17 12 12 15 10 9 12 12
16 18 19 20 21 22 24 27 28 29 30 29 23 18 9 18 14 15 11 8 2 8 7 8 7 8 6 7 12 4 11 15 13 16 9 14 18 7 8 15 14 10 14 12 10
16 17 19 20 22 24 26 30 29 30 31 32 22 18 18 28 19 11 13 16 13 7 4 9 7 5 4 3 7 4 8 9 11 9 8 6 16 15 18 16 16 16 13 12 11
17 18 20 21 23 26 28 28 30 35 36 33 27 16 13 11 23 29 30 26 24 26 20 17 11 8 5 4 3 4 4 9 4 15 9 10 22 4 1 9 9 10 8 7 6
17 18 20 23 25 28 28 29 33 37 38 26 9 12 12 7 10 19 21 13 5 17 15 12 3 4 2 10 7 5 8 5 4 11 7 16 17 2 5 2 4 4 5 7 10
17 18 19 21 23 26 27 31 33 21 3 4 4 5 8 4 6 4 3 18 6 9 7 6 4 7 8 10 15 12 7 8 9 4 7 12 16 10 12 5 6 10 11 11 12
16 17 18 20 21 23 28 18 6 5 7 10 16 13 15 10 9 2 5 10 5 5 9 12 10 17 21 17 11 5 12 15 3 2 4 13 18 11 10 13 14 15 13 13 14
15 18 20 20 23 20 13 4 8 11 16 19 23 27 35 31 11 10 4 8 9 6 9 8 20 15 11 11 14 15 17 14 5 7 7 16 21 15 13 17 19 16 14 14 10
17 18 21 21 21 6 14 8 14 21 8 21 26 17 17 18 17 23 5 3 7 11 16 11 6 16 11 10 12 14 18 13 13 4 7 8 19 14 5 11 11 11 11 6 6
16 17 21 23 4 13 9 12 20 13 6 10 4 6 11 9 9 23 16 10 5 13 13 12 10 5 11 17 13 16 11 12 10 5 8 2 8 5 10 7 4 6 3 3 5
17 18 18 17 11 6 11 18 24 2 5 7 3 1 4 11 3 5 10 7 12 8 8 9 7 14 11 9 15 8 9 12 11 10 6 8 6 2 3 6 1 1 5 3 7
17 18 16 12 11 11 16 22 2 0 6 11 8 11 3 10 3 5 5 3 4 6 2 5 1 6 8 6 17 7 5 3 3 3 6 10 9 3 7 6 2 2 2 4 7
17 18 17 9 4 15 19 7 2 3 14 10 11 8 8 5 3 2 11 6 5 9 11 4 4 1 3 6 6 6 7 3 4 5 6 9 9 7 4 1 3 2 5 6 8
18 17 12 6 11 12 6 2 4 5 10 15 12 11 8 12 8 6 9 4 13 4 4 11 8 15 10 6 8 11 11 5 6 5 1 5 6 2 2 8 4 2 4 7 9
17 13 8 7 10 1 4 3 2 6 11 15 14 9 11 13 6 4 9 5 6 10 2 4 2 4 4 11 9 5 9 1 2 2 2 4 5 4 6 3 2 2 2 8 12
10 6 10 11 5 2 4 4 3 3 12 11 9 8 12 16 10 6 6 5 6 9 2 2 1 1 2 6 4 5 8 6 2 4 6 5 6 5 10 6 4 2 6 9 11
5 2 7 7 7 3 3 3 5 8 10 5 7 7 9 9 9 7 9 7 9 11 5 4 2 1 1 0 6 5 4 2 3 4 3 3 2 3 5 3 2 3 2 7 12
1 2 8 4 3 1 1 4 7 5 3 3 3 5 5 8 7 8 8 6 10 7 4 3 1 2 3 2 0 3 7 9 4 4 4 6 7 2 4 6 3 3 3 5 11
1 1 4 3 2 2 4 4 4 5 5 6 4 6 6 4 4 4 6 4 8 6 5 4 1 2 4 2 3 2 1 3 3 1 9 6 2 3 6 9 5 7 7 2 10
1 3 3 2 2 2 4 4 6 4 3 4 4 4 6 4 2 4 5 3 7 6 12 1 1 2 1 3 2 1 1 1 3 4 4 7 5 3 8 10 9 10 7 5 9
1 0 1 2 0 3 3 3 8 6 3 6 1 8 7 4 5 3 2 7 6 6 5 4 2 2 7 4 4 4 5 2 3 1 5 2 2 3 6 7 8 10 12 12 13
3 2 1 2 3 3 2 2 2 6 2 4 5 13 8 3 4 9 10 5 3 4 4 4 1 1 2 5 4 4 6 6 7 4 7 9 7 7 5 8 10 11 12 12 13
3 2 2 2 2 0 2 3 4 7 4 5 5 13 10 3 10 14 12 11 9 8 3 3 3 2 1 2 6 5 5 8 3 2 2 4 3 7 7 9 11 11 12 13 15

GFSSW_925_spd_108.txt.gz
Wind_Speed
10 11 11 12 14 14 15 17 19 19 18 19 21 23 25 29 32 21 15 12 9 9 5 7 11 13 15 15 13 12 11 17 20 18 15 4 9 6 1 6 3 4 1 5 2
12 12 12 12 13 14 15 17 19 20 20 21 22 23 25 32 28 23 16 9 13 15 12 17 15 17 13 16 11 15 16 25 17 16 8 5 10 7 9 13 9 6 3 1 1
12 12 12 12 14 15 16 20 21 19 20 21 22 23 25 26 13 2 6 6 13 8 15 16 16 17 19 15 19 14 26 17 15 16 16 16 12 11 12 14 13 10 4 4 4
12 12 13 14 16 16 19 22 21 21 22 23 22 20 22 11 8 4 9 6 10 1 10 12 14 20 19 22 20 20 21 22 18 18 14 16 15 17 15 18 16 10 10 10 11
12 12 14 14 15 16 18 20 21 23 24 24 20 18 19 8 14 13 17 17 9 8 11 13 17 18 24 15 21 24 22 16 19 20 18 16 19 19 20 12 18 16 10 14 12
13 13 14 15 16 18 20 22 25 26 26 25 21 17 18 25 15 16 12 7 5 13 14 14 11 18 13 22 19 13 19 24 18 17 17 17 20 19 14 15 22 18 16 14 14
13 15 16 17 19 21 23 25 27 28 29 29 22 19 20 30 15 14 12 12 7 6 10 15 18 11 9 16 18 18 20 18 17 13 15 12 24 26 23 23 25 23 19 18 16
13 16 17 18 20 22 25 27 29 31 29 28 23 19 18 13 15 28 30 29 26 24 15 10 7 13 15 10 10 15 19 20 19 23 21 13 27 5 6 8 15 16 14 11 14
14 15 16 19 21 24 28 29 30 27 22 19 11 11 14 6 15 25 30 27 21 26 21 12 9 14 14 18 14 18 17 20 15 10 15 21 17 15 7 8 9 8 8 8 8
13 15 16 18 21 25 28 29 16 11 5 4 1 3 12 8 14 17 9 22 10 15 16 16 10 13 16 16 23 17 17 16 10 8 15 17 19 8 9 10 8 8 10 11 12
13 14 16 18 20 24 21 19 6 2 15 13 20 16 24 32 32 23 11 16 13 21 18 23 16 24 30 24 19 17 12 15 14 7 13 16 19 19 16 14 14 15 16 17 16
13 14 15 18 20 14 12 5 2 7 14 24 29 30 43 40 29 29 21 13 17 19 21 18 29 23 14 19 18 12 13 20 14 8 11 16 21 19 17 18 19 19 18 18 15
13 14 16 20 14 6 5 5 7 15 9 19 9 15 16 22 29 31 21 19 18 18 25 20 12 22 17 15 18 19 21 18 18 11 14 19 24 24 23 20 20 16 13 11 8
13 14 16 18 2 9 4 9 12 12 6 8 12 8 8 8 15 22 29 23 13 19 20 16 7 18 22 21 19 21 20 18 13 9 14 6 10 5 4 12 11 10 9 7 6
13 14 15 10 8 7 10 13 17 4 6 12 9 18 21 10 11 7 30 19 18 11 10 11 16 13 20 20 21 15 13 12 15 16 15 19 9 12 6 14 11 10 8 6 4
11 15 14 8 7 9 12 17 4 4 5 13 13 23 9 15 14 4 11 18 14 12 10 6 2 15 17 10 18 8 8 9 8 10 12 18 14 11 11 12 9 7 6 3 2
14 15 9 5 6 14 13 7 4 4 15 16 25 18 22 9 6 6 16 17 12 17 15 12 11 7 10 15 15 13 15 6 7 6 10 6 12 12 5 5 8 6 5 4 1
15 11 4 3 11 9 6 3 3 6 11 21 20 16 9 17 6 11 14 12 4 9 11 14 14 14 12 11 12 21 17 6 8 9 10 9 8 5 8 9 6 4 1 1 2
13 4 6 10 6 7 5 1 4 8 15 14 18 10 14 22 11 0 8 5 5 7 5 13 12 4 13 9 12 15 14 10 6 1 3 8 5 4 8 9 7 7 4 5 7
8 2 7 8 9 8 2 3 4 7 14 13 11 9 9 18 15 12 5 10 8 7 5 2 7 9 7 8 18 10 13 9 9 6 8 7 10 5 12 11 10 9 6 3 6
3 2 4 11 7 2 3 4 5 10 11 9 12 11 13 15 12 9 10 6 14 11 6 6 4 8 9 8 14 10 11 9 8 9 4 2 3 4 7 6 6 5 3 5 8
3 0 8 8 1 1 4 5 5 8 8 3 8 12 12 17 10 10 11 9 11 5 7 8 3 7 8 4 6 14 16 15 8 9 10 10 5 4 3 1 3 5 5 7 7
2 2 3 4 1 3 5 3 2 8 10 8 8 11 15 10 6 10 13 9 13 11 9 7 1 6 6 6 5 8 10 14 13 8 10 8 3 6 4 2 2 4 7 4 8
1 1 2 1 1 3 6 5 7 5 5 8 6 10 15 9 9 9 13 10 15 12 13 5 2 3 2 4 2 6 9 10 12 8 9 8 4 9 2 2 5 9 12 11 11
2 1 2 0 1 5 5 3 5 7 4 6 2 12 12 6 10 9 13 16 7 8 7 5 4 5 6 4 4 5 5 9 12 11 6 4 5 7 4 7 7 8 9 11 13
2 1 3 2 3 4 2 1 4 7 5 6 7 14 13 9 9 16 16 12 6 4 8 5 2 4 5 5 6 9 11 11 10 7 7 7 7 3 8 7 8 10 11 12 13
2 2 3 1 2 3 2 2 3 7 5 5 8 15 13 10 15 20 18 16 15 13 6 4 4 3 1 1 3 8 13 13 10 4 4 7 6 5 4 8 9 9 11 12 13

GFSSW_925_spd_111.txt.gz
Wind_Speed
7 8 9 9 10 11 12 14 16 17 17 18 21 23 25 30 34 25 21 20 9 14 11 12 14 19 20 19 21 17 17 21 26 24 21 13 7 11 10 14 6 9 14 10 6
7 8 9 10 11 13 15 15 18 18 19 21 22 23 25 31 30 30 22 21 19 17 17 20 18 19 18 19 20 21 17 27 23 21 18 14 7 13 12 15 12 11 2 3 5
6 6 8 9 11 12 13 15 17 18 19 21 22 22 26 29 19 3 6 8 2 7 18 19 23 20 23 21 23 25 28 22 22 23 19 20 15 14 13 17 18 17 15 10 8
7 7 8 10 11 13 15 16 18 19 20 22 21 20 23 19 8 6 4 7 10 5 10 17 17 23 24 27 25 28 28 24 24 27 16 21 20 22 18 18 14 13 9 6 10
7 8 10 11 14 16 18 21 22 23 23 23 22 19 20 11 21 23 17 20 19 14 14 13 19 22 28 25 25 31 26 25 23 22 23 18 22 20 22 17 15 18 15 14 14
8 10 12 14 16 18 21 23 26 26 26 25 22 18 20 26 14 18 22 22 23 25 26 23 17 20 23 26 27 24 27 27 24 24 19 22 24 22 23 19 21 21 19 20 20
9 11 13 15 17 19 22 25 27 28 26 25 21 19 21 29 26 23 20 21 16 16 19 26 26 19 17 24 23 26 27 24 21 21 27 20 28 28 24 23 20 22 23 22 20
10 11 12 14 18 20 23 26 27 29 27 21 20 19 17 21 19 21 29 39 30 21 16 13 18 18 24 16 20 18 25 26 27 22 19 15 28 20 21 24 28 26 24 21 22
9 12 14 16 19 22 26 26 27 18 12 12 15 12 19 13 13 15 20 30 33 37 32 25 19 20 17 22 18 23 23 29 25 25 25 28 27 23 23 16 14 15 18 17 18
10 11 13 16 20 25 25 25 22 14 8 17 9 10 17 13 23 19 22 29 23 25 25 24 15 17 21 20 25 27 26 24 23 23 26 22 22 20 17 12 12 15 13 13 13
10 12 15 17 21 22 21 24 12 4 8 16 25 28 32 33 31 36 36 23 26 22 29 32 23 26 40 32 30 28 17 21 16 19 11 17 21 20 20 16 16 15 13 13 14
11 13 15 19 21 12 14 11 10 6 15 18 24 21 24 26 31 28 31 10 24 26 27 22 29 40 27 27 30 25 20 23 21 7 10 15 19 18 19 21 20 19 17 19 18
10 12 16 18 14 8 9 8 10 13 7 12 5 13 14 20 20 30 20 20 24 26 26 31 35 27 26 25 26 27 24 22 19 9 16 20 21 21 21 20 21 18 19 20 19
11 12 14 16 10 10 5 11 12 11 5 5 13 3 18 23 13 21 19 23 10 14 25 27 26 27 27 28 22 24 20 19 16 12 19 19 18 19 22 11 24 23 22 18 15
10 11 13 10 13 8 11 12 13 2 6 14 12 4 20 22 19 8 16 19 22 18 24 20 16 23 26 25 20 17 15 14 16 18 18 18 13 17 15 14 13 16 14 12 9
8 12 13 7 11 8 13 11 3 2 4 12 20 22 27 16 21 8 11 17 14 14 20 15 15 13 19 19 19 10 7 11 12 13 15 21 17 11 15 12 17 12 13 12 10
10 13 7 6 8 14 11 6 5 6 13 15 27 23 21 25 15 11 10 18 15 12 7 7 19 19 12 18 16 15 15 6 6 8 15 18 17 15 6 15 17 14 12 8 6
11 5 4 6 10 9 8 2 5 7 13 20 18 15 8 20 21 22 8 13 17 19 13 9 8 10 12 17 14 21 19 6 6 10 12 14 9 13 21 6 10 12 8 7 6
6 4 5 4 7 7 5 5 8 9 13 16 19 14 14 18 10 10 13 16 9 10 11 11 14 18 15 13 15 22 16 14 5 8 4 8 9 5 6 17 10 10 7 6 1
7 5 3 7 8 7 2 5 6 6 12 12 13 13 20 21 16 15 14 12 10 14 14 9 6 8 16 14 12 15 14 13 8 5 6 8 11 5 14 10 10 7 5 4 2
8 4 4 8 5 2 2 4 7 6 8 9 14 16 16 17 15 10 12 8 20 14 14 9 8 7 12 14 20 12 11 12 11 11 5 7 1 12 15 14 11 8 2 2 2
3 2 6 5 1 1 3 5 5 6 5 5 7 13 14 18 9 8 13 9 12 11 8 7 7 14 19 12 15 23 16 18 9 14 9 9 2 2 11 9 3 2 1 5 9
2 2 2 5 2 2 3 4 2 7 5 6 5 10 14 10 7 9 12 8 16 13 11 9 3 2 5 6 8 15 17 15 12 11 7 9 7 7 8 9 6 6 13 9 10
2 1 1 1 2 5 5 4 7 1 5 8 6 8 12 12 14 6 13 13 10 10 8 9 5 5 4 5 5 11 16 18 14 9 10 11 12 16 13 7 15 11 11 10 10
3 2 3 1 1 6 5 4 8 7 5 5 5 12 14 11 12 11 17 13 15 4 10 7 7 8 3 8 4 4 10 10 12 12 9 5 14 16 5 14 13 10 7 8 11
3 2 4 1 1 3 2 3 7 9 10 9 10 15 16 13 16 19 19 17 9 10 11 11 5 8 9 8 6 6 7 8 11 10 11 12 9 15 11 13 11 9 9 10 11
3 1 5 1 2 3 2 6 8 10 7 6 13 16 16 15 19 22 21 20 19 17 9 6 6 8 3 3 3 7 11 11 11 11 8 12 6 4 10 11 9 8 9 10 11

GFSSW_925_spd_114.txt.gz
Wind_Speed
5 6 7 7 8 10 11 13 15 16 17 19 22 24 25 31 36 25 19 20 20 10 18 13 16 18 18 19 22 20 16 20 26 24 22 20 22 8 5 11 15 14 9 11 8
3 5 7 8 9 10 11 13 14 16 17 18 21 24 27 32 33 29 19 20 18 19 13 19 18 18 16 16 19 20 18 29 24 22 20 23 22 12 7 13 14 11 6 12 8
4 4 5 7 9 10 11 13 15 16 17 18 20 23 25 27 19 3 2 3 7 8 13 19 24 22 23 22 23 25 29 23 25 24 25 24 20 18 11 14 12 12 11 9 9
2 3 5 7 9 11 13 14 16 17 18 19 19 19 22 15 6 6 7 5 5 12 12 15 17 22 25 26 25 29 30 27 28 26 24 22 21 22 14 15 13 14 16 16 13
3 5 7 8 10 12 14 16 17 19 20 20 19 17 14 8 13 24 22 25 23 22 19 18 18 20 27 25 25 32 29 28 27 25 24 22 25 19 18 16 11 15 12 7 11
4 6 7 9 11 14 17 19 21 22 23 23 20 16 14 17 14 16 22 22 24 28 30 27 22 22 26 25 28 25 28 29 26 27 25 24 24 20 20 15 16 15 14 15 10
5 6 8 10 13 16 20 23 24 23 24 25 20 14 15 24 22 22 24 28 31 31 24 32 34 26 22 24 26 25 28 28 27 29 26 23 25 30 20 18 19 20 18 17 17
5 7 10 12 16 19 23 24 23 22 18 15 11 10 9 17 18 17 16 20 25 30 38 30 32 29 29 27 25 24 25 25 33 26 23 23 32 25 21 21 23 22 19 18 18
5 8 10 14 17 21 24 25 22 15 13 11 9 13 17 6 14 28 30 26 25 26 29 37 26 22 21 26 21 24 25 33 26 25 25 24 33 23 20 22 25 24 22 20 20
6 8 11 14 19 22 21 22 21 15 13 17 15 11 17 16 29 30 26 29 25 23 19 26 25 21 20 20 25 36 29 22 25 23 25 28 29 21 20 19 18 18 13 18 20
7 9 11 16 18 16 19 19 8 2 12 10 20 23 24 27 26 33 36 30 22 26 24 22 23 28 33 32 31 26 26 27 26 25 25 26 27 24 24 17 17 14 19 12 9
7 9 12 14 14 10 13 10 10 3 12 20 21 20 28 17 28 30 27 21 23 23 23 17 29 30 34 31 28 30 28 27 19 17 2 6 17 16 15 19 17 15 11 14 11
9 10 12 13 10 7 7 12 9 12 6 9 6 8 7 17 25 26 25 19 23 24 20 23 24 31 33 30 32 28 27 23 25 5 14 10 15 20 17 16 15 16 18 18 13
9 10 12 12 7 11 6 10 10 7 4 2 3 5 11 22 15 33 17 9 2 10 22 21 26 33 30 33 30 26 26 26 20 7 4 12 8 17 15 17 17 17 15 9 10
6 8 10 7 10 6 9 11 8 1 5 8 12 9 18 19 27 14 12 2 9 16 16 8 19 26 28 32 31 24 18 21 11 6 8 13 10 20 20 22 19 27 25 16 10
7 9 11 6 7 8 12 9 5 4 1 9 17 23 22 22 20 21 17 23 15 12 21 23 27 22 32 25 27 21 4 7 5 7 8 20 15 15 17 26 23 19 9 9 11
8 10 8 8 7 12 11 7 5 4 14 14 24 23 19 21 19 25 24 13 11 9 11 23 10 14 16 14 22 14 13 5 4 7 13 14 15 18 15 14 20 11 15 16 13
8 8 8 7 7 8 10 4 5 14 15 18 17 17 12 19 17 26 24 13 11 12 14 15 10 11 16 14 14 16 16 6 7 7 9 19 11 17 23 17 15 12 16 15 11
8 8 11 4 5 7 6 5 6 8 13 14 19 13 13 18 6 11 8 19 14 18 11 10 1 11 17 8 15 21 18 16 2 7 4 8 17 5 22 8 14 13 15 9 8
10 7 4 2 5 9 4 4 5 7 10 13 12 13 16 19 13 7 14 13 16 17 17 6 9 20 18 10 14 16 17 13 7 3 3 5 15 4 6 19 17 12 12 10 8
6 4 4 3 4 6 3 3 5 8 7 7 12 12 15 16 15 8 12 4 21 18 18 13 5 9 13 7 13 9 13 11 11 9 2 1 1 13 6 13 5 8 10 15 15
5 2 3 2 4 3 3 3 1 5 7 5 6 12 12 15 10 11 13 11 13 10 12 9 5 4 9 13 13 12 13 16 7 10 5 1 3 9 11 12 12 22 15 16 12
3 1 4 4 3 4 4 3 1 4 8 6 6 7 14 11 6 14 14 13 12 12 12 8 4 5 7 7 14 17 15 13 12 8 5 4 1 12 3 2 17 17 14 13 14
2 2 1 4 3 5 6 2 5 5 5 7 9 9 13 14 14 4 16 15 18 8 6 6 6 5 3 8 9 8 16 16 11 7 8 5 1 10 12 16 15 15 15 15 14
4 3 3 2 3 5 6 7 7 5 5 9 6 9 13 15 14 12 18 19 18 9 13 11 6 5 14 11 6 8 9 7 15 12 8 13 4 10 12 15 11 12 13 13 14
2 2 2 3 1 2 1 5 4 6 9 10 9 14 14 14 13 18 20 18 18 16 14 11 5 14 16 10 13 4 7 10 15 9 10 5 1 13 11 12 12 13 13 11 12
5 2 4 2 4 3 3 5 9 9 6 11 14 15 14 15 18 20 18 18 19 18 13 7 4 9 4 13 10 3 7 5 7 5 3 6 8 10 15 14 11 9 10 12 12

GFSSW_925_spd_117.txt.gz
Wind_Speed
5 5 6 7 8 9 10 10 12 14 16 18 19 22 25 30 34 21 7 7 9 15 12 14 12 17 16 5 7 7 11 18 16 17 19 18 18 6 2 3 1 2 6 9 28
5 4 5 6 7 8 9 11 12 14 16 18 20 22 24 29 30 13 7 12 16 16 10 8 9 10 6 5 6 6 11 22 9 15 18 20 20 13 3 5 4 1 7 18 24
3 4 4 5 7 9 11 12 13 15 16 17 18 19 21 21 7 2 10 14 10 7 11 15 14 8 12 11 12 13 28 11 14 18 22 22 22 17 4 7 8 10 13 13 10
2 3 5 7 9 11 12 13 15 15 17 17 18 17 19 9 1 3 23 20 16 20 20 17 6 4 4 10 8 21 26 18 23 20 19 22 13 13 5 9 7 12 15 15 13
4 6 8 9 11 12 13 15 16 18 19 18 15 14 8 1 8 12 16 20 22 22 16 12 15 13 17 8 16 27 19 22 20 23 29 26 24 16 20 6 9 4 4 9 12
6 7 9 10 12 13 16 18 20 21 21 19 14 9 4 5 4 14 18 21 22 26 21 17 12 14 20 21 20 14 22 24 21 28 27 27 25 7 21 6 9 6 6 4 9
7 8 10 12 13 16 18 21 21 20 19 16 11 5 5 13 11 10 14 16 17 16 12 24 21 17 8 21 16 22 22 20 28 32 27 16 19 31 9 8 8 8 8 7 9
7 9 11 13 15 18 22 21 20 14 14 10 6 2 7 14 12 15 16 27 25 19 20 19 27 20 12 18 29 26 16 22 41 24 20 15 29 27 9 10 12 11 9 9 10
8 9 11 14 16 20 20 21 18 16 16 11 6 5 9 4 3 19 17 18 23 24 26 26 13 12 16 18 18 22 25 33 28 12 17 19 28 16 11 15 16 14 13 12 13
7 9 11 14 16 16 18 22 11 7 6 6 10 5 7 9 16 16 24 26 19 17 14 12 5 9 14 15 21 26 25 15 17 14 19 21 28 7 10 10 18 15 17 16 18
7 9 11 14 14 11 20 9 7 4 4 5 9 6 16 15 22 17 27 19 4 10 17 13 13 15 22 23 23 23 19 21 17 15 19 27 25 18 12 16 14 13 15 12 20
7 8 11 11 10 11 9 6 6 2 8 10 16 13 25 20 14 19 25 12 10 18 11 15 22 24 22 23 25 25 24 23 17 15 18 17 8 17 9 9 21 15 10 9 8
8 9 9 9 8 6 7 14 9 8 2 9 8 6 7 8 9 13 15 6 9 6 9 16 20 19 20 21 27 27 24 22 17 2 5 8 7 9 5 6 11 20 11 8 10
8 8 8 10 5 8 10 10 8 6 2 5 4 3 5 6 3 17 11 2 1 3 5 6 12 17 24 29 25 23 23 25 23 18 4 3 4 7 11 9 6 7 2 6 7
5 7 7 5 7 4 10 13 4 2 4 3 5 5 14 4 13 4 18 5 9 8 5 11 17 22 18 29 24 22 24 24 25 9 6 5 3 6 6 6 12 9 9 7 6
6 6 8 4 2 7 11 6 5 1 2 3 8 13 10 4 9 11 9 5 9 7 13 20 13 13 12 18 20 26 22 13 3 6 2 8 6 5 5 10 8 13 13 11 6
6 6 7 3 3 11 8 3 3 2 9 9 10 13 10 7 7 12 17 13 12 7 11 18 20 13 13 14 20 22 14 6 1 2 4 12 7 14 8 11 18 18 13 5 15
7 6 5 6 5 8 7 3 1 7 8 11 12 13 7 13 5 10 13 15 15 17 10 9 19 12 10 3 8 12 8 5 2 5 4 4 7 7 14 19 17 15 14 12 14
7 4 3 5 3 3 2 2 1 3 8 8 13 7 7 11 5 6 4 4 10 13 11 8 10 22 11 6 10 9 11 3 0 2 3 5 4 7 13 4 12 20 16 9 17
5 4 4 7 2 2 2 3 4 6 5 9 8 5 7 10 9 5 7 0 10 8 15 7 8 13 18 12 2 11 6 4 3 1 4 4 4 3 8 14 12 19 18 15 20
2 1 5 4 3 2 2 2 3 5 5 5 7 5 9 11 8 9 6 3 7 6 8 9 5 5 9 4 5 3 5 4 1 4 1 2 3 7 9 11 18 17 21 13 16
3 2 9 8 2 2 1 1 2 5 8 4 4 4 7 12 5 6 6 8 11 10 9 6 3 6 6 17 8 13 6 5 3 4 2 6 3 8 18 11 18 19 18 12 14
2 3 7 5 1 2 2 4 3 2 4 2 4 4 9 7 6 8 8 11 14 14 11 6 4 5 10 9 11 3 11 11 12 2 1 2 4 9 19 19 17 17 16 12 13
2 2 0 1 3 2 4 2 4 6 4 5 5 5 6 7 10 10 11 12 15 17 14 4 3 3 1 6 6 10 16 15 6 2 3 3 8 13 16 13 13 16 13 11 14
3 3 3 1 2 4 4 5 9 4 5 7 5 9 7 5 10 6 18 21 14 7 7 6 4 8 13 13 9 13 10 12 9 8 2 5 13 13 11 13 13 11 11 13 13
2 1 4 4 5 4 1 3 7 8 7 6 6 9 8 8 9 13 15 15 9 3 9 7 3 9 6 11 9 6 8 9 8 12 11 11 10 16 12 11 13 15 13 14 15
4 5 2 4 3 2 4 1 4 3 4 7 5 5 8 6 10 14 16 19 18 15 12 4 4 5 4 16 6 6 15 9 11 18 4 4 9 12 12 13 13 12 13 15 13

GFSSW_925_spd_120.txt.gz
Wind_Speed
7 7 7 7 8 9 10 11 13 14 15 17 19 23 26 29 32 14 2 3 7 14 9 11 12 8 8 3 4 1 3 12 11 7 12 11 9 3 9 7 7 3 6 14 28
7 6 6 6 7 8 10 12 14 16 17 17 19 22 24 28 24 6 9 13 10 7 8 10 5 7 2 3 3 6 9 10 6 13 15 17 17 11 6 10 8 3 4 22 32
5 4 4 6 8 10 12 13 15 16 16 17 19 20 21 22 4 2 15 12 11 9 15 15 10 1 4 4 5 6 23 10 14 9 16 20 23 13 7 19 11 7 9 19 22
4 4 6 8 9 11 13 14 15 17 17 18 18 17 18 7 2 5 15 16 16 15 16 12 4 3 3 5 7 14 17 15 14 17 19 18 8 17 7 11 11 4 8 20 19
5 6 8 10 11 12 14 15 17 18 19 17 15 14 8 4 7 7 14 13 15 17 10 7 7 4 5 5 7 20 17 21 15 22 25 17 28 25 30 9 11 4 9 7 15
7 7 9 10 13 14 15 17 19 21 17 13 10 7 1 2 2 8 8 13 18 17 18 3 2 8 9 12 17 11 15 19 20 30 24 22 24 13 35 7 13 10 10 11 10
8 8 9 11 14 16 18 20 23 20 15 10 5 2 2 10 6 9 11 11 15 12 2 9 10 2 6 10 12 9 15 19 24 29 27 13 23 30 26 11 12 12 9 10 10
8 8 9 12 15 17 20 21 20 17 12 7 1 4 6 7 8 13 10 19 13 14 13 18 17 9 6 7 11 15 12 18 27 13 23 13 30 35 19 14 22 12 10 9 10
7 8 9 12 15 18 18 20 20 11 7 5 3 4 8 12 6 10 14 13 21 23 23 18 11 8 4 6 12 11 16 21 26 8 11 19 28 36 12 16 21 15 11 10 9
6 7 9 11 13 14 17 12 4 4 7 6 2 2 6 4 7 8 22 22 12 9 2 3 4 4 3 3 14 22 14 18 17 16 12 20 23 31 10 14 22 16 10 9 10
6 6 8 10 10 11 18 3 6 4 5 4 3 4 6 7 15 8 21 9 3 4 5 3 3 11 16 17 18 19 21 21 24 23 19 22 23 28 13 11 17 15 10 10 12
7 6 6 7 7 9 7 4 4 1 6 6 11 10 23 9 5 7 8 3 4 9 6 1 13 20 17 20 19 20 22 23 22 23 21 22 26 24 19 18 19 16 11 12 8
7 6 3 3 3 5 10 9 4 1 1 6 6 5 7 10 5 5 3 2 5 6 6 8 14 7 11 15 19 25 29 20 21 20 20 17 8 15 7 16 9 5 7 9 12
6 3 2 0 3 2 4 7 1 2 3 2 3 5 4 4 3 14 4 6 3 6 3 8 7 9 13 20 19 25 19 20 22 18 10 2 7 5 6 9 6 6 2 6 9
4 3 0 2 4 4 1 5 2 0 3 1 1 4 7 1 7 3 22 2 12 9 5 12 7 9 15 19 11 17 18 19 22 19 12 15 3 7 6 5 9 9 5 5 7
4 1 3 7 5 4 5 1 2 4 1 2 3 5 7 3 7 5 6 7 3 4 8 19 10 5 16 24 13 9 16 17 17 6 12 19 10 6 6 13 7 5 5 5 15
2 3 5 6 5 2 1 3 3 3 4 5 4 7 8 5 8 4 5 8 4 7 7 13 3 2 9 15 6 7 7 1 4 6 7 17 9 17 6 5 7 7 2 5 16
6 4 5 7 6 1 2 3 4 2 1 2 3 10 3 8 5 5 5 3 4 3 12 7 9 6 9 2 6 7 11 5 4 3 4 13 8 6 11 13 5 4 10 15 20
2 2 3 6 5 2 4 4 5 2 1 3 8 2 4 6 2 5 1 4 4 4 8 7 8 20 8 11 3 1 6 17 2 7 2 5 4 6 10 11 10 20 22 21 20
4 3 3 8 7 3 4 3 3 3 1 2 2 3 5 5 6 4 3 4 6 5 7 4 9 7 15 9 3 7 4 3 3 2 3 1 3 3 10 19 20 19 18 20 17
5 2 7 8 6 4 3 3 3 3 4 2 2 4 5 6 4 4 4 6 10 10 7 7 4 8 6 4 4 7 3 5 2 1 3 3 2 5 10 13 21 17 16 18 18
4 2 11 12 2 1 2 4 4 3 3 2 3 3 2 4 5 3 5 3 9 7 8 4 4 6 11 9 11 5 11 7 2 3 2 2 2 14 16 17 18 17 16 16 19
3 2 6 5 2 1 4 2 6 3 1 1 2 2 2 3 5 4 5 8 13 12 4 6 3 6 8 3 10 5 9 14 4 2 5 1 2 13 18 19 19 18 16 16 18
3 2 2 2 1 3 0 2 3 2 0 3 1 2 3 4 1 7 4 6 9 12 10 5 3 2 5 10 6 7 16 16 8 3 3 1 4 15 14 13 17 16 14 14 16
2 3 3 2 2 4 2 1 2 3 4 6 4 3 2 4 6 2 7 9 10 5 6 2 4 5 15 9 5 5 12 12 9 10 3 9 4 8 10 13 14 13 13 14 13
3 3 3 0 3 3 1 1 2 3 2 4 1 5 4 4 4 13 11 11 6 7 6 5 4 6 6 4 6 11 11 15 11 13 13 16 9 11 13 13 14 12 10 12 13
2 2 3 2 2 3 3 3 2 2 1 1 4 4 6 7 8 13 12 15 12 10 13 4 3 5 4 13 7 8 15 17 12 22 7 5 6 10 14 16 14 12 13 12 12

GFSSW_925_spd_123.txt.gz
Wind_Speed
7 7 7 7 8 8 9 10 12 13 15 17 19 22 23 26 21 10 7 8 10 14 12 16 10 10 5 2 4 4 2 11 8 8 8 7 7 5 3 9 8 3 3 7 29
8 7 6 7 6 8 9 11 12 14 15 18 20 22 24 24 12 12 11 12 12 15 18 14 8 10 4 3 2 5 5 7 7 11 12 12 12 9 6 13 14 14 6 10 24
8 6 5 6 7 9 10 10 12 14 15 18 19 22 21 17 2 3 12 14 12 12 12 8 8 2 2 2 4 5 9 6 8 10 11 10 18 8 10 23 14 10 10 6 14
8 7 6 7 8 10 10 11 12 13 15 16 18 20 16 7 2 2 12 12 14 15 14 8 5 5 3 4 4 8 10 7 5 11 11 13 5 15 7 16 8 9 8 5 12
9 8 8 9 9 10 11 12 13 14 15 14 14 15 8 5 5 5 8 11 10 14 12 4 4 3 2 5 10 7 7 11 13 14 16 17 20 18 30 20 10 12 9 9 14
11 9 9 10 10 11 12 12 14 14 13 10 8 7 3 3 1 4 7 10 12 11 9 2 2 3 5 4 4 7 17 17 17 18 15 20 21 10 37 15 14 15 16 12 12
10 9 9 9 11 11 13 15 14 11 9 4 3 0 2 7 5 7 4 8 12 8 3 6 4 2 3 6 8 6 21 22 23 12 8 16 25 29 31 19 16 12 13 14 13
11 10 10 9 10 12 14 13 13 13 10 3 2 3 5 4 10 9 7 14 12 8 11 17 13 5 5 4 5 6 7 11 10 10 9 7 29 25 9 15 26 16 17 13 15
11 10 9 9 8 11 11 15 13 4 6 9 6 2 7 6 6 7 8 8 13 19 18 15 4 5 4 2 5 4 8 9 28 6 11 10 22 24 11 17 23 21 18 15 16
11 9 8 8 9 7 11 7 7 13 12 8 3 2 6 3 3 9 14 16 8 6 6 1 2 2 1 4 8 8 8 11 13 11 13 21 22 22 16 17 23 23 22 17 17
12 8 6 6 5 6 9 5 3 1 4 5 4 3 4 7 9 8 11 5 3 2 3 3 2 10 11 12 15 16 18 22 27 23 23 25 27 19 26 20 25 22 19 17 19
9 7 6 4 2 3 2 3 2 1 2 4 5 6 8 3 4 9 5 3 2 6 2 1 9 15 8 8 13 18 22 23 22 25 19 26 25 24 27 25 24 24 22 14 15
9 7 4 4 1 6 7 5 3 1 2 4 4 4 3 10 5 7 5 2 5 5 4 6 9 3 8 12 14 20 19 23 24 28 21 17 29 22 27 31 25 23 20 21 14
8 5 4 3 5 8 2 0 4 2 3 2 3 5 5 5 2 6 3 4 2 2 2 6 5 10 8 12 12 23 16 21 24 15 11 6 20 11 19 21 13 22 17 13 10
8 6 4 5 6 6 3 2 5 1 0 4 3 2 5 3 3 3 7 3 4 4 4 9 8 6 6 9 11 21 14 15 13 14 12 22 12 10 14 15 10 9 14 6 3
8 6 4 7 5 5 2 4 1 4 4 3 2 4 5 3 3 3 4 2 4 4 6 13 6 4 7 10 17 17 9 7 10 10 8 24 5 9 9 14 6 5 6 12 15
10 6 6 9 5 5 4 4 3 2 2 1 1 3 3 4 5 3 3 7 2 6 14 9 4 2 5 7 6 6 3 3 3 2 6 5 7 16 9 13 5 4 18 17 17
9 6 8 9 7 5 6 4 3 3 1 1 2 4 2 5 3 5 3 5 4 2 9 6 10 2 5 6 6 4 6 3 4 3 6 4 7 6 11 6 10 15 20 19 20
7 6 2 14 10 5 4 2 4 3 3 2 4 2 3 4 3 5 1 1 3 6 5 6 8 10 17 13 6 1 6 11 5 8 4 3 6 4 18 21 18 17 19 18 19
10 6 5 12 11 4 3 3 2 3 3 3 1 1 1 4 4 3 2 3 3 2 3 5 11 7 9 5 6 4 6 0 3 5 4 3 3 4 11 17 19 19 18 18 16
5 3 5 12 8 4 3 4 3 2 3 3 2 1 2 2 2 2 4 4 1 4 8 5 5 10 10 5 6 6 4 4 3 4 4 3 3 6 13 14 17 19 18 16 15
4 3 11 11 2 1 3 4 3 3 2 1 3 1 0 2 2 3 3 2 6 5 6 5 3 6 13 4 6 2 2 4 3 4 1 3 2 13 16 17 17 17 17 16 15
3 3 5 2 3 2 3 1 4 3 2 2 1 3 2 3 3 2 3 5 6 6 4 4 3 5 9 4 2 3 6 9 8 3 1 3 3 10 10 15 14 14 15 13 13
3 3 1 2 1 3 3 2 3 1 3 2 3 5 4 2 3 5 7 5 9 6 9 1 3 5 4 12 13 9 11 12 3 2 2 2 4 7 13 13 12 8 11 14 13
2 2 3 3 2 3 3 2 3 2 2 2 2 4 2 3 4 1 2 7 6 4 3 2 4 4 11 11 10 12 8 11 12 12 2 7 8 10 9 11 11 10 13 20 15
3 3 3 2 3 4 1 3 4 3 3 2 3 2 3 3 5 12 5 4 7 3 6 3 3 4 4 7 8 17 20 16 11 12 9 10 9 7 11 13 18 17 16 15 15
2 2 3 2 3 4 4 5 4 4 1 4 2 1 4 7 5 8 10 13 13 11 9 3 2 3 4 7 5 4 14 13 8 18 8 8 5 5 13 16 14 11 12 12 12